<?xml version="1.0" encoding="UTF-8" standalone="no" ?>
<gpx xmlns="http://www.topografix.com/GPX/1/1" xmlns:xsi="http://www.w3.org/2001/XMLSchema-instance" xsi:schemaLocation="http://www.topografix.com/GPX/1/1 http://www.topografix.com/GPX/1/1/gpx.xsd" version="1.1" creator="VisuGPX - https://www.visugpx.com">
  <metadata>
    <name>Dolomites Jour 3</name>
    <desc><![CDATA[De Livigno à Trevisio, sous l\'orage !]]></desc>
  </metadata>
  <trk>
    <name><![CDATA[Jour 3 - 29/07/2012]]></name>
    <trkseg>
      <trkpt lat="46.52308" lon="10.12688">
        <ele>1863.17</ele>
        <time>2012-07-29T07:29:07Z</time>
      </trkpt>
      <trkpt lat="46.52311" lon="10.12687">
        <ele>1872.79</ele>
        <time>2012-07-29T07:30:40Z</time>
      </trkpt>
      <trkpt lat="46.52316" lon="10.12684">
        <ele>1872.3</ele>
        <time>2012-07-29T07:38:36Z</time>
      </trkpt>
      <trkpt lat="46.52316" lon="10.12668">
        <ele>1871.82</ele>
        <time>2012-07-29T07:38:43Z</time>
      </trkpt>
      <trkpt lat="46.52026" lon="10.12432">
        <ele>1868.46</ele>
        <time>2012-07-29T07:39:50Z</time>
      </trkpt>
      <trkpt lat="46.51881" lon="10.12357">
        <ele>1870.86</ele>
        <time>2012-07-29T07:40:10Z</time>
      </trkpt>
      <trkpt lat="46.51721" lon="10.12269">
        <ele>1868.94</ele>
        <time>2012-07-29T07:40:32Z</time>
      </trkpt>
      <trkpt lat="46.51704" lon="10.12268">
        <ele>1868.46</ele>
        <time>2012-07-29T07:40:37Z</time>
      </trkpt>
      <trkpt lat="46.51716" lon="10.12297">
        <ele>1868.46</ele>
        <time>2012-07-29T07:40:42Z</time>
      </trkpt>
      <trkpt lat="46.51809" lon="10.12436">
        <ele>1861.25</ele>
        <time>2012-07-29T07:40:55Z</time>
      </trkpt>
      <trkpt lat="46.51838" lon="10.12517">
        <ele>1855.96</ele>
        <time>2012-07-29T07:41:05Z</time>
      </trkpt>
      <trkpt lat="46.51882" lon="10.12509">
        <ele>1858.85</ele>
        <time>2012-07-29T07:41:11Z</time>
      </trkpt>
      <trkpt lat="46.51981" lon="10.12517">
        <ele>1858.37</ele>
        <time>2012-07-29T07:41:20Z</time>
      </trkpt>
      <trkpt lat="46.52137" lon="10.12711">
        <ele>1862.21</ele>
        <time>2012-07-29T07:41:38Z</time>
      </trkpt>
      <trkpt lat="46.52291" lon="10.12721">
        <ele>1865.58</ele>
        <time>2012-07-29T07:41:50Z</time>
      </trkpt>
      <trkpt lat="46.52341" lon="10.12756">
        <ele>1868.46</ele>
        <time>2012-07-29T07:41:55Z</time>
      </trkpt>
      <trkpt lat="46.52413" lon="10.12826">
        <ele>1869.42</ele>
        <time>2012-07-29T07:42:03Z</time>
      </trkpt>
      <trkpt lat="46.52534" lon="10.12834">
        <ele>1867.5</ele>
        <time>2012-07-29T07:42:14Z</time>
      </trkpt>
      <trkpt lat="46.52625" lon="10.12802">
        <ele>1864.13</ele>
        <time>2012-07-29T07:42:23Z</time>
      </trkpt>
      <trkpt lat="46.52746" lon="10.128">
        <ele>1860.29</ele>
        <time>2012-07-29T07:42:34Z</time>
      </trkpt>
      <trkpt lat="46.52803" lon="10.12815">
        <ele>1859.81</ele>
        <time>2012-07-29T07:42:39Z</time>
      </trkpt>
      <trkpt lat="46.52886" lon="10.1287">
        <ele>1857.4</ele>
        <time>2012-07-29T07:42:47Z</time>
      </trkpt>
      <trkpt lat="46.53098" lon="10.13007">
        <ele>1848.75</ele>
        <time>2012-07-29T07:43:08Z</time>
      </trkpt>
      <trkpt lat="46.53126" lon="10.13032">
        <ele>1847.31</ele>
        <time>2012-07-29T07:43:16Z</time>
      </trkpt>
      <trkpt lat="46.53386" lon="10.13428">
        <ele>1832.89</ele>
        <time>2012-07-29T07:43:50Z</time>
      </trkpt>
      <trkpt lat="46.5345" lon="10.13506">
        <ele>1830.97</ele>
        <time>2012-07-29T07:43:56Z</time>
      </trkpt>
      <trkpt lat="46.53558" lon="10.13603">
        <ele>1826.64</ele>
        <time>2012-07-29T07:44:07Z</time>
      </trkpt>
      <trkpt lat="46.53732" lon="10.13699">
        <ele>1823.28</ele>
        <time>2012-07-29T07:46:18Z</time>
      </trkpt>
      <trkpt lat="46.53807" lon="10.13762">
        <ele>1822.32</ele>
        <time>2012-07-29T07:46:32Z</time>
      </trkpt>
      <trkpt lat="46.53692" lon="10.14176">
        <ele>1828.56</ele>
        <time>2012-07-29T07:47:17Z</time>
      </trkpt>
      <trkpt lat="46.53613" lon="10.14099">
        <ele>1836.74</ele>
        <time>2012-07-29T07:47:27Z</time>
      </trkpt>
      <trkpt lat="46.53563" lon="10.14072">
        <ele>1840.1</ele>
        <time>2012-07-29T07:47:31Z</time>
      </trkpt>
      <trkpt lat="46.5344" lon="10.14065">
        <ele>1847.79</ele>
        <time>2012-07-29T07:47:41Z</time>
      </trkpt>
      <trkpt lat="46.53363" lon="10.13997">
        <ele>1855.48</ele>
        <time>2012-07-29T07:47:49Z</time>
      </trkpt>
      <trkpt lat="46.53259" lon="10.13968">
        <ele>1863.65</ele>
        <time>2012-07-29T07:47:58Z</time>
      </trkpt>
      <trkpt lat="46.53138" lon="10.13822">
        <ele>1877.11</ele>
        <time>2012-07-29T07:48:11Z</time>
      </trkpt>
      <trkpt lat="46.52974" lon="10.13694">
        <ele>1890.57</ele>
        <time>2012-07-29T07:48:25Z</time>
      </trkpt>
      <trkpt lat="46.52928" lon="10.13655">
        <ele>1894.42</ele>
        <time>2012-07-29T07:48:29Z</time>
      </trkpt>
      <trkpt lat="46.5283" lon="10.13611">
        <ele>1899.22</ele>
        <time>2012-07-29T07:48:40Z</time>
      </trkpt>
      <trkpt lat="46.52829" lon="10.13631">
        <ele>1899.7</ele>
        <time>2012-07-29T07:48:43Z</time>
      </trkpt>
      <trkpt lat="46.52859" lon="10.13657">
        <ele>1902.11</ele>
        <time>2012-07-29T07:48:47Z</time>
      </trkpt>
      <trkpt lat="46.52873" lon="10.13677">
        <ele>1902.59</ele>
        <time>2012-07-29T07:48:49Z</time>
      </trkpt>
      <trkpt lat="46.52928" lon="10.13859">
        <ele>1912.68</ele>
        <time>2012-07-29T07:48:59Z</time>
      </trkpt>
      <trkpt lat="46.5309" lon="10.14191">
        <ele>1932.87</ele>
        <time>2012-07-29T07:49:19Z</time>
      </trkpt>
      <trkpt lat="46.53104" lon="10.14261">
        <ele>1934.79</ele>
        <time>2012-07-29T07:49:23Z</time>
      </trkpt>
      <trkpt lat="46.53169" lon="10.14354">
        <ele>1942.48</ele>
        <time>2012-07-29T07:49:30Z</time>
      </trkpt>
      <trkpt lat="46.53201" lon="10.14429">
        <ele>1947.77</ele>
        <time>2012-07-29T07:49:34Z</time>
      </trkpt>
      <trkpt lat="46.5324" lon="10.14554">
        <ele>1950.65</ele>
        <time>2012-07-29T07:49:43Z</time>
      </trkpt>
      <trkpt lat="46.53228" lon="10.14552">
        <ele>1952.09</ele>
        <time>2012-07-29T07:49:46Z</time>
      </trkpt>
      <trkpt lat="46.53205" lon="10.14507">
        <ele>1955.94</ele>
        <time>2012-07-29T07:49:50Z</time>
      </trkpt>
      <trkpt lat="46.53175" lon="10.14469">
        <ele>1959.3</ele>
        <time>2012-07-29T07:49:53Z</time>
      </trkpt>
      <trkpt lat="46.53142" lon="10.14414">
        <ele>1960.75</ele>
        <time>2012-07-29T07:49:57Z</time>
      </trkpt>
      <trkpt lat="46.53119" lon="10.14397">
        <ele>1963.15</ele>
        <time>2012-07-29T07:49:59Z</time>
      </trkpt>
      <trkpt lat="46.5308" lon="10.14374">
        <ele>1966.03</ele>
        <time>2012-07-29T07:50:02Z</time>
      </trkpt>
      <trkpt lat="46.52993" lon="10.14258">
        <ele>1973.24</ele>
        <time>2012-07-29T07:50:10Z</time>
      </trkpt>
      <trkpt lat="46.52865" lon="10.14141">
        <ele>1985.74</ele>
        <time>2012-07-29T07:50:20Z</time>
      </trkpt>
      <trkpt lat="46.52626" lon="10.13939">
        <ele>2001.6</ele>
        <time>2012-07-29T07:50:38Z</time>
      </trkpt>
      <trkpt lat="46.52597" lon="10.1392">
        <ele>2005.45</ele>
        <time>2012-07-29T07:50:40Z</time>
      </trkpt>
      <trkpt lat="46.52553" lon="10.13902">
        <ele>2006.89</ele>
        <time>2012-07-29T07:50:43Z</time>
      </trkpt>
      <trkpt lat="46.52514" lon="10.13909">
        <ele>2010.73</ele>
        <time>2012-07-29T07:50:46Z</time>
      </trkpt>
      <trkpt lat="46.52455" lon="10.13911">
        <ele>2013.62</ele>
        <time>2012-07-29T07:50:51Z</time>
      </trkpt>
      <trkpt lat="46.52414" lon="10.13882">
        <ele>2015.06</ele>
        <time>2012-07-29T07:50:57Z</time>
      </trkpt>
      <trkpt lat="46.5241" lon="10.13888">
        <ele>2015.06</ele>
        <time>2012-07-29T07:50:58Z</time>
      </trkpt>
      <trkpt lat="46.52414" lon="10.13909">
        <ele>2016.02</ele>
        <time>2012-07-29T07:51:01Z</time>
      </trkpt>
      <trkpt lat="46.52477" lon="10.13955">
        <ele>2024.19</ele>
        <time>2012-07-29T07:51:07Z</time>
      </trkpt>
      <trkpt lat="46.52574" lon="10.14021">
        <ele>2033.33</ele>
        <time>2012-07-29T07:51:14Z</time>
      </trkpt>
      <trkpt lat="46.5261" lon="10.14066">
        <ele>2036.21</ele>
        <time>2012-07-29T07:51:17Z</time>
      </trkpt>
      <trkpt lat="46.52646" lon="10.14144">
        <ele>2042.46</ele>
        <time>2012-07-29T07:51:21Z</time>
      </trkpt>
      <trkpt lat="46.52672" lon="10.14212">
        <ele>2046.3</ele>
        <time>2012-07-29T07:51:24Z</time>
      </trkpt>
      <trkpt lat="46.52825" lon="10.14441">
        <ele>2061.68</ele>
        <time>2012-07-29T07:51:37Z</time>
      </trkpt>
      <trkpt lat="46.52868" lon="10.14585">
        <ele>2070.82</ele>
        <time>2012-07-29T07:51:44Z</time>
      </trkpt>
      <trkpt lat="46.52934" lon="10.14822">
        <ele>2082.83</ele>
        <time>2012-07-29T07:51:55Z</time>
      </trkpt>
      <trkpt lat="46.53065" lon="10.15163">
        <ele>2100.14</ele>
        <time>2012-07-29T07:52:19Z</time>
      </trkpt>
      <trkpt lat="46.5307" lon="10.15208">
        <ele>2102.54</ele>
        <time>2012-07-29T07:52:22Z</time>
      </trkpt>
      <trkpt lat="46.53046" lon="10.15312">
        <ele>2107.35</ele>
        <time>2012-07-29T07:52:32Z</time>
      </trkpt>
      <trkpt lat="46.53049" lon="10.1532">
        <ele>2107.35</ele>
        <time>2012-07-29T07:52:33Z</time>
      </trkpt>
      <trkpt lat="46.53117" lon="10.15368">
        <ele>2113.6</ele>
        <time>2012-07-29T07:52:42Z</time>
      </trkpt>
      <trkpt lat="46.53278" lon="10.15429">
        <ele>2123.69</ele>
        <time>2012-07-29T07:52:59Z</time>
      </trkpt>
      <trkpt lat="46.53369" lon="10.15406">
        <ele>2128.5</ele>
        <time>2012-07-29T07:53:09Z</time>
      </trkpt>
      <trkpt lat="46.53399" lon="10.15428">
        <ele>2132.82</ele>
        <time>2012-07-29T07:53:12Z</time>
      </trkpt>
      <trkpt lat="46.53487" lon="10.15502">
        <ele>2139.07</ele>
        <time>2012-07-29T07:53:21Z</time>
      </trkpt>
      <trkpt lat="46.53498" lon="10.15506">
        <ele>2140.51</ele>
        <time>2012-07-29T07:53:22Z</time>
      </trkpt>
      <trkpt lat="46.53615" lon="10.15515">
        <ele>2148.68</ele>
        <time>2012-07-29T07:53:32Z</time>
      </trkpt>
      <trkpt lat="46.53652" lon="10.15557">
        <ele>2150.61</ele>
        <time>2012-07-29T07:53:36Z</time>
      </trkpt>
      <trkpt lat="46.53748" lon="10.15786">
        <ele>2164.55</ele>
        <time>2012-07-29T07:53:52Z</time>
      </trkpt>
      <trkpt lat="46.53769" lon="10.15905">
        <ele>2168.87</ele>
        <time>2012-07-29T07:53:59Z</time>
      </trkpt>
      <trkpt lat="46.53802" lon="10.15992">
        <ele>2172.24</ele>
        <time>2012-07-29T07:54:05Z</time>
      </trkpt>
      <trkpt lat="46.53786" lon="10.16166">
        <ele>2181.37</ele>
        <time>2012-07-29T07:54:16Z</time>
      </trkpt>
      <trkpt lat="46.53834" lon="10.1634">
        <ele>2191.46</ele>
        <time>2012-07-29T07:54:28Z</time>
      </trkpt>
      <trkpt lat="46.5385" lon="10.1645">
        <ele>2195.79</ele>
        <time>2012-07-29T07:54:51Z</time>
      </trkpt>
      <trkpt lat="46.53848" lon="10.16477">
        <ele>2196.75</ele>
        <time>2012-07-29T07:54:56Z</time>
      </trkpt>
      <trkpt lat="46.53877" lon="10.16477">
        <ele>2198.19</ele>
        <time>2012-07-29T07:55:04Z</time>
      </trkpt>
      <trkpt lat="46.53878" lon="10.16428">
        <ele>2201.08</ele>
        <time>2012-07-29T08:01:55Z</time>
      </trkpt>
      <trkpt lat="46.53863" lon="10.16487">
        <ele>2201.56</ele>
        <time>2012-07-29T08:02:22Z</time>
      </trkpt>
      <trkpt lat="46.53848" lon="10.16482">
        <ele>2201.56</ele>
        <time>2012-07-29T08:02:26Z</time>
      </trkpt>
      <trkpt lat="46.53829" lon="10.1648">
        <ele>2200.11</ele>
        <time>2012-07-29T08:02:32Z</time>
      </trkpt>
      <trkpt lat="46.53813" lon="10.16568">
        <ele>2204.44</ele>
        <time>2012-07-29T08:02:40Z</time>
      </trkpt>
      <trkpt lat="46.53831" lon="10.16648">
        <ele>2204.92</ele>
        <time>2012-07-29T08:02:52Z</time>
      </trkpt>
      <trkpt lat="46.53826" lon="10.16738">
        <ele>2199.15</ele>
        <time>2012-07-29T08:03:00Z</time>
      </trkpt>
      <trkpt lat="46.53687" lon="10.16922">
        <ele>2180.89</ele>
        <time>2012-07-29T08:03:16Z</time>
      </trkpt>
      <trkpt lat="46.53544" lon="10.17065">
        <ele>2168.87</ele>
        <time>2012-07-29T08:03:28Z</time>
      </trkpt>
      <trkpt lat="46.53509" lon="10.17093">
        <ele>2164.55</ele>
        <time>2012-07-29T08:03:31Z</time>
      </trkpt>
      <trkpt lat="46.53455" lon="10.17111">
        <ele>2162.62</ele>
        <time>2012-07-29T08:03:35Z</time>
      </trkpt>
      <trkpt lat="46.53303" lon="10.1714">
        <ele>2150.61</ele>
        <time>2012-07-29T08:03:46Z</time>
      </trkpt>
      <trkpt lat="46.53228" lon="10.17089">
        <ele>2142.92</ele>
        <time>2012-07-29T08:03:53Z</time>
      </trkpt>
      <trkpt lat="46.53171" lon="10.17093">
        <ele>2139.07</ele>
        <time>2012-07-29T08:03:58Z</time>
      </trkpt>
      <trkpt lat="46.53076" lon="10.17232">
        <ele>2130.42</ele>
        <time>2012-07-29T08:04:09Z</time>
      </trkpt>
      <trkpt lat="46.52926" lon="10.17309">
        <ele>2119.36</ele>
        <time>2012-07-29T08:04:20Z</time>
      </trkpt>
      <trkpt lat="46.52853" lon="10.17375">
        <ele>2111.67</ele>
        <time>2012-07-29T08:04:26Z</time>
      </trkpt>
      <trkpt lat="46.5279" lon="10.17447">
        <ele>2103.02</ele>
        <time>2012-07-29T08:04:33Z</time>
      </trkpt>
      <trkpt lat="46.5272" lon="10.17462">
        <ele>2097.73</ele>
        <time>2012-07-29T08:04:40Z</time>
      </trkpt>
      <trkpt lat="46.52695" lon="10.17487">
        <ele>2096.29</ele>
        <time>2012-07-29T08:04:43Z</time>
      </trkpt>
      <trkpt lat="46.52681" lon="10.17513">
        <ele>2094.37</ele>
        <time>2012-07-29T08:04:45Z</time>
      </trkpt>
      <trkpt lat="46.52648" lon="10.17554">
        <ele>2089.56</ele>
        <time>2012-07-29T08:04:49Z</time>
      </trkpt>
      <trkpt lat="46.52428" lon="10.17673">
        <ele>2076.1</ele>
        <time>2012-07-29T08:05:09Z</time>
      </trkpt>
      <trkpt lat="46.52262" lon="10.17776">
        <ele>2063.61</ele>
        <time>2012-07-29T08:05:23Z</time>
      </trkpt>
      <trkpt lat="46.52194" lon="10.17797">
        <ele>2059.28</ele>
        <time>2012-07-29T08:05:29Z</time>
      </trkpt>
      <trkpt lat="46.52148" lon="10.1784">
        <ele>2054.47</ele>
        <time>2012-07-29T08:05:34Z</time>
      </trkpt>
      <trkpt lat="46.51968" lon="10.17899">
        <ele>2042.94</ele>
        <time>2012-07-29T08:05:51Z</time>
      </trkpt>
      <trkpt lat="46.51885" lon="10.17874">
        <ele>2038.13</ele>
        <time>2012-07-29T08:05:58Z</time>
      </trkpt>
      <trkpt lat="46.51833" lon="10.17884">
        <ele>2036.69</ele>
        <time>2012-07-29T08:06:03Z</time>
      </trkpt>
      <trkpt lat="46.51756" lon="10.17874">
        <ele>2031.88</ele>
        <time>2012-07-29T08:06:08Z</time>
      </trkpt>
      <trkpt lat="46.51706" lon="10.17893">
        <ele>2028.52</ele>
        <time>2012-07-29T08:06:13Z</time>
      </trkpt>
      <trkpt lat="46.51631" lon="10.17962">
        <ele>2026.12</ele>
        <time>2012-07-29T08:06:19Z</time>
      </trkpt>
      <trkpt lat="46.51608" lon="10.18052">
        <ele>2028.52</ele>
        <time>2012-07-29T08:06:25Z</time>
      </trkpt>
      <trkpt lat="46.51612" lon="10.18066">
        <ele>2028.52</ele>
        <time>2012-07-29T08:06:26Z</time>
      </trkpt>
      <trkpt lat="46.51738" lon="10.18218">
        <ele>2040.05</ele>
        <time>2012-07-29T08:06:40Z</time>
      </trkpt>
      <trkpt lat="46.51752" lon="10.18353">
        <ele>2047.26</ele>
        <time>2012-07-29T08:06:49Z</time>
      </trkpt>
      <trkpt lat="46.51784" lon="10.18399">
        <ele>2052.55</ele>
        <time>2012-07-29T08:06:53Z</time>
      </trkpt>
      <trkpt lat="46.51817" lon="10.18436">
        <ele>2053.51</ele>
        <time>2012-07-29T08:06:57Z</time>
      </trkpt>
      <trkpt lat="46.51817" lon="10.18474">
        <ele>2055.92</ele>
        <time>2012-07-29T08:07:00Z</time>
      </trkpt>
      <trkpt lat="46.51776" lon="10.18555">
        <ele>2060.72</ele>
        <time>2012-07-29T08:07:06Z</time>
      </trkpt>
      <trkpt lat="46.51682" lon="10.18686">
        <ele>2071.3</ele>
        <time>2012-07-29T08:07:16Z</time>
      </trkpt>
      <trkpt lat="46.51648" lon="10.1874">
        <ele>2074.66</ele>
        <time>2012-07-29T08:07:20Z</time>
      </trkpt>
      <trkpt lat="46.51634" lon="10.18862">
        <ele>2083.31</ele>
        <time>2012-07-29T08:07:27Z</time>
      </trkpt>
      <trkpt lat="46.51634" lon="10.18968">
        <ele>2089.08</ele>
        <time>2012-07-29T08:07:33Z</time>
      </trkpt>
      <trkpt lat="46.51612" lon="10.19003">
        <ele>2091.97</ele>
        <time>2012-07-29T08:07:36Z</time>
      </trkpt>
      <trkpt lat="46.51576" lon="10.19031">
        <ele>2096.77</ele>
        <time>2012-07-29T08:07:39Z</time>
      </trkpt>
      <trkpt lat="46.5154" lon="10.19065">
        <ele>2099.66</ele>
        <time>2012-07-29T08:07:42Z</time>
      </trkpt>
      <trkpt lat="46.51493" lon="10.19145">
        <ele>2104.94</ele>
        <time>2012-07-29T08:07:47Z</time>
      </trkpt>
      <trkpt lat="46.51402" lon="10.19236">
        <ele>2112.63</ele>
        <time>2012-07-29T08:07:54Z</time>
      </trkpt>
      <trkpt lat="46.51332" lon="10.19326">
        <ele>2121.77</ele>
        <time>2012-07-29T08:08:00Z</time>
      </trkpt>
      <trkpt lat="46.51253" lon="10.19464">
        <ele>2130.9</ele>
        <time>2012-07-29T08:08:08Z</time>
      </trkpt>
      <trkpt lat="46.51181" lon="10.19526">
        <ele>2139.55</ele>
        <time>2012-07-29T08:08:13Z</time>
      </trkpt>
      <trkpt lat="46.51097" lon="10.19593">
        <ele>2145.8</ele>
        <time>2012-07-29T08:08:19Z</time>
      </trkpt>
      <trkpt lat="46.50988" lon="10.19728">
        <ele>2158.78</ele>
        <time>2012-07-29T08:08:28Z</time>
      </trkpt>
      <trkpt lat="46.5089" lon="10.19796">
        <ele>2167.43</ele>
        <time>2012-07-29T08:08:35Z</time>
      </trkpt>
      <trkpt lat="46.50766" lon="10.19916">
        <ele>2177.52</ele>
        <time>2012-07-29T08:08:45Z</time>
      </trkpt>
      <trkpt lat="46.50429" lon="10.20125">
        <ele>2199.15</ele>
        <time>2012-07-29T08:09:09Z</time>
      </trkpt>
      <trkpt lat="46.50176" lon="10.20255">
        <ele>2222.71</ele>
        <time>2012-07-29T08:09:22Z</time>
      </trkpt>
      <trkpt lat="46.50061" lon="10.20336">
        <ele>2227.99</ele>
        <time>2012-07-29T08:09:28Z</time>
      </trkpt>
      <trkpt lat="46.49956" lon="10.20474">
        <ele>2234.72</ele>
        <time>2012-07-29T08:09:36Z</time>
      </trkpt>
      <trkpt lat="46.49864" lon="10.20536">
        <ele>2243.37</ele>
        <time>2012-07-29T08:09:42Z</time>
      </trkpt>
      <trkpt lat="46.49776" lon="10.20589">
        <ele>2245.78</ele>
        <time>2012-07-29T08:09:50Z</time>
      </trkpt>
      <trkpt lat="46.49785" lon="10.20635">
        <ele>2249.62</ele>
        <time>2012-07-29T08:09:54Z</time>
      </trkpt>
      <trkpt lat="46.49829" lon="10.20644">
        <ele>2254.91</ele>
        <time>2012-07-29T08:09:58Z</time>
      </trkpt>
      <trkpt lat="46.49874" lon="10.20644">
        <ele>2259.24</ele>
        <time>2012-07-29T08:10:01Z</time>
      </trkpt>
      <trkpt lat="46.49919" lon="10.20637">
        <ele>2261.16</ele>
        <time>2012-07-29T08:10:04Z</time>
      </trkpt>
      <trkpt lat="46.49947" lon="10.20627">
        <ele>2259.24</ele>
        <time>2012-07-29T08:10:07Z</time>
      </trkpt>
      <trkpt lat="46.49957" lon="10.20628">
        <ele>2259.24</ele>
        <time>2012-07-29T08:10:09Z</time>
      </trkpt>
      <trkpt lat="46.49825" lon="10.20671">
        <ele>2271.73</ele>
        <time>2012-07-29T08:10:24Z</time>
      </trkpt>
      <trkpt lat="46.4966" lon="10.20761">
        <ele>2282.79</ele>
        <time>2012-07-29T08:10:36Z</time>
      </trkpt>
      <trkpt lat="46.49503" lon="10.20883">
        <ele>2278.94</ele>
        <time>2012-07-29T08:11:30Z</time>
      </trkpt>
      <trkpt lat="46.4947" lon="10.20935">
        <ele>2278.46</ele>
        <time>2012-07-29T08:12:25Z</time>
      </trkpt>
      <trkpt lat="46.49417" lon="10.21031">
        <ele>2274.62</ele>
        <time>2012-07-29T08:12:31Z</time>
      </trkpt>
      <trkpt lat="46.49205" lon="10.21424">
        <ele>2249.14</ele>
        <time>2012-07-29T08:12:54Z</time>
      </trkpt>
      <trkpt lat="46.49115" lon="10.21526">
        <ele>2244.82</ele>
        <time>2012-07-29T08:13:02Z</time>
      </trkpt>
      <trkpt lat="46.49026" lon="10.21591">
        <ele>2239.53</ele>
        <time>2012-07-29T08:13:09Z</time>
      </trkpt>
      <trkpt lat="46.48976" lon="10.21638">
        <ele>2234.72</ele>
        <time>2012-07-29T08:13:14Z</time>
      </trkpt>
      <trkpt lat="46.48951" lon="10.21796">
        <ele>2227.99</ele>
        <time>2012-07-29T08:13:23Z</time>
      </trkpt>
      <trkpt lat="46.48942" lon="10.2183">
        <ele>2224.15</ele>
        <time>2012-07-29T08:13:25Z</time>
      </trkpt>
      <trkpt lat="46.48844" lon="10.22028">
        <ele>2211.65</ele>
        <time>2012-07-29T08:13:37Z</time>
      </trkpt>
      <trkpt lat="46.4869" lon="10.22119">
        <ele>2203.96</ele>
        <time>2012-07-29T08:13:50Z</time>
      </trkpt>
      <trkpt lat="46.486" lon="10.22133">
        <ele>2196.27</ele>
        <time>2012-07-29T08:13:57Z</time>
      </trkpt>
      <trkpt lat="46.48526" lon="10.2218">
        <ele>2191.46</ele>
        <time>2012-07-29T08:14:03Z</time>
      </trkpt>
      <trkpt lat="46.484" lon="10.22172">
        <ele>2182.81</ele>
        <time>2012-07-29T08:14:12Z</time>
      </trkpt>
      <trkpt lat="46.48369" lon="10.22166">
        <ele>2177.52</ele>
        <time>2012-07-29T08:14:15Z</time>
      </trkpt>
      <trkpt lat="46.48344" lon="10.22188">
        <ele>2176.56</ele>
        <time>2012-07-29T08:14:18Z</time>
      </trkpt>
      <trkpt lat="46.48356" lon="10.22341">
        <ele>2170.79</ele>
        <time>2012-07-29T08:14:26Z</time>
      </trkpt>
      <trkpt lat="46.484" lon="10.2249">
        <ele>2161.18</ele>
        <time>2012-07-29T08:14:33Z</time>
      </trkpt>
      <trkpt lat="46.48398" lon="10.22618">
        <ele>2153.49</ele>
        <time>2012-07-29T08:14:39Z</time>
      </trkpt>
      <trkpt lat="46.48444" lon="10.22768">
        <ele>2146.28</ele>
        <time>2012-07-29T08:14:46Z</time>
      </trkpt>
      <trkpt lat="46.48449" lon="10.22827">
        <ele>2144.36</ele>
        <time>2012-07-29T08:14:49Z</time>
      </trkpt>
      <trkpt lat="46.48383" lon="10.23092">
        <ele>2138.11</ele>
        <time>2012-07-29T08:15:05Z</time>
      </trkpt>
      <trkpt lat="46.48408" lon="10.23254">
        <ele>2133.78</ele>
        <time>2012-07-29T08:15:15Z</time>
      </trkpt>
      <trkpt lat="46.48386" lon="10.2345">
        <ele>2127.05</ele>
        <time>2012-07-29T08:15:25Z</time>
      </trkpt>
      <trkpt lat="46.48271" lon="10.23766">
        <ele>2117.44</ele>
        <time>2012-07-29T08:15:40Z</time>
      </trkpt>
      <trkpt lat="46.48199" lon="10.2394">
        <ele>2110.23</ele>
        <time>2012-07-29T08:15:49Z</time>
      </trkpt>
      <trkpt lat="46.48125" lon="10.24061">
        <ele>2102.06</ele>
        <time>2012-07-29T08:15:57Z</time>
      </trkpt>
      <trkpt lat="46.48112" lon="10.24362">
        <ele>2087.16</ele>
        <time>2012-07-29T08:16:11Z</time>
      </trkpt>
      <trkpt lat="46.48097" lon="10.24413">
        <ele>2083.31</ele>
        <time>2012-07-29T08:16:14Z</time>
      </trkpt>
      <trkpt lat="46.48027" lon="10.24537">
        <ele>2078.51</ele>
        <time>2012-07-29T08:16:22Z</time>
      </trkpt>
      <trkpt lat="46.47949" lon="10.24658">
        <ele>2066.97</ele>
        <time>2012-07-29T08:16:30Z</time>
      </trkpt>
      <trkpt lat="46.47937" lon="10.24687">
        <ele>2062.65</ele>
        <time>2012-07-29T08:16:32Z</time>
      </trkpt>
      <trkpt lat="46.47888" lon="10.24722">
        <ele>2062.65</ele>
        <time>2012-07-29T08:16:36Z</time>
      </trkpt>
      <trkpt lat="46.47821" lon="10.2477">
        <ele>2056.4</ele>
        <time>2012-07-29T08:16:41Z</time>
      </trkpt>
      <trkpt lat="46.47781" lon="10.24864">
        <ele>2052.55</ele>
        <time>2012-07-29T08:16:46Z</time>
      </trkpt>
      <trkpt lat="46.4776" lon="10.24998">
        <ele>2041.5</ele>
        <time>2012-07-29T08:16:52Z</time>
      </trkpt>
      <trkpt lat="46.47735" lon="10.25044">
        <ele>2037.65</ele>
        <time>2012-07-29T08:16:55Z</time>
      </trkpt>
      <trkpt lat="46.47695" lon="10.25073">
        <ele>2036.69</ele>
        <time>2012-07-29T08:16:58Z</time>
      </trkpt>
      <trkpt lat="46.47671" lon="10.25088">
        <ele>2033.33</ele>
        <time>2012-07-29T08:17:00Z</time>
      </trkpt>
      <trkpt lat="46.4763" lon="10.25148">
        <ele>2027.56</ele>
        <time>2012-07-29T08:17:05Z</time>
      </trkpt>
      <trkpt lat="46.47511" lon="10.2521">
        <ele>2024.67</ele>
        <time>2012-07-29T08:17:13Z</time>
      </trkpt>
      <trkpt lat="46.47407" lon="10.25266">
        <ele>2013.14</ele>
        <time>2012-07-29T08:17:20Z</time>
      </trkpt>
      <trkpt lat="46.47335" lon="10.25246">
        <ele>2010.25</ele>
        <time>2012-07-29T08:17:25Z</time>
      </trkpt>
      <trkpt lat="46.47285" lon="10.25222">
        <ele>2004.49</ele>
        <time>2012-07-29T08:17:28Z</time>
      </trkpt>
      <trkpt lat="46.4716" lon="10.25109">
        <ele>1994.39</ele>
        <time>2012-07-29T08:17:37Z</time>
      </trkpt>
      <trkpt lat="46.47025" lon="10.25008">
        <ele>1982.86</ele>
        <time>2012-07-29T08:17:46Z</time>
      </trkpt>
      <trkpt lat="46.46901" lon="10.24941">
        <ele>1971.32</ele>
        <time>2012-07-29T08:17:54Z</time>
      </trkpt>
      <trkpt lat="46.46838" lon="10.2487">
        <ele>1968.44</ele>
        <time>2012-07-29T08:17:59Z</time>
      </trkpt>
      <trkpt lat="46.46796" lon="10.24781">
        <ele>1963.15</ele>
        <time>2012-07-29T08:18:04Z</time>
      </trkpt>
      <trkpt lat="46.46779" lon="10.24724">
        <ele>1958.34</ele>
        <time>2012-07-29T08:18:07Z</time>
      </trkpt>
      <trkpt lat="46.46748" lon="10.24681">
        <ele>1956.9</ele>
        <time>2012-07-29T08:18:10Z</time>
      </trkpt>
      <trkpt lat="46.46653" lon="10.24661">
        <ele>1951.61</ele>
        <time>2012-07-29T08:18:16Z</time>
      </trkpt>
      <trkpt lat="46.46567" lon="10.24673">
        <ele>1942</ele>
        <time>2012-07-29T08:18:22Z</time>
      </trkpt>
      <trkpt lat="46.46518" lon="10.24627">
        <ele>1939.6</ele>
        <time>2012-07-29T08:18:26Z</time>
      </trkpt>
      <trkpt lat="46.4647" lon="10.24584">
        <ele>1933.83</ele>
        <time>2012-07-29T08:18:30Z</time>
      </trkpt>
      <trkpt lat="46.46381" lon="10.24563">
        <ele>1930.95</ele>
        <time>2012-07-29T08:18:36Z</time>
      </trkpt>
      <trkpt lat="46.46267" lon="10.24498">
        <ele>1923.25</ele>
        <time>2012-07-29T08:18:43Z</time>
      </trkpt>
      <trkpt lat="46.46151" lon="10.24395">
        <ele>1914.6</ele>
        <time>2012-07-29T08:18:51Z</time>
      </trkpt>
      <trkpt lat="46.45976" lon="10.24241">
        <ele>1898.74</ele>
        <time>2012-07-29T08:19:06Z</time>
      </trkpt>
      <trkpt lat="46.45905" lon="10.24156">
        <ele>1892.97</ele>
        <time>2012-07-29T08:19:14Z</time>
      </trkpt>
      <trkpt lat="46.45886" lon="10.24161">
        <ele>1892.01</ele>
        <time>2012-07-29T08:19:17Z</time>
      </trkpt>
      <trkpt lat="46.4588" lon="10.24178">
        <ele>1890.57</ele>
        <time>2012-07-29T08:19:19Z</time>
      </trkpt>
      <trkpt lat="46.45889" lon="10.24207">
        <ele>1891.05</ele>
        <time>2012-07-29T08:19:22Z</time>
      </trkpt>
      <trkpt lat="46.46087" lon="10.24561">
        <ele>1872.79</ele>
        <time>2012-07-29T08:19:55Z</time>
      </trkpt>
      <trkpt lat="46.46171" lon="10.24775">
        <ele>1857.4</ele>
        <time>2012-07-29T08:20:06Z</time>
      </trkpt>
      <trkpt lat="46.4627" lon="10.24854">
        <ele>1850.19</ele>
        <time>2012-07-29T08:20:13Z</time>
      </trkpt>
      <trkpt lat="46.46326" lon="10.249">
        <ele>1842.98</ele>
        <time>2012-07-29T08:20:17Z</time>
      </trkpt>
      <trkpt lat="46.46361" lon="10.24937">
        <ele>1838.18</ele>
        <time>2012-07-29T08:20:20Z</time>
      </trkpt>
      <trkpt lat="46.46458" lon="10.25111">
        <ele>1827.12</ele>
        <time>2012-07-29T08:20:31Z</time>
      </trkpt>
      <trkpt lat="46.46516" lon="10.25152">
        <ele>1820.87</ele>
        <time>2012-07-29T08:20:36Z</time>
      </trkpt>
      <trkpt lat="46.46563" lon="10.25248">
        <ele>1813.66</ele>
        <time>2012-07-29T08:20:42Z</time>
      </trkpt>
      <trkpt lat="46.46608" lon="10.25303">
        <ele>1810.78</ele>
        <time>2012-07-29T08:20:46Z</time>
      </trkpt>
      <trkpt lat="46.46671" lon="10.25377">
        <ele>1801.65</ele>
        <time>2012-07-29T08:20:52Z</time>
      </trkpt>
      <trkpt lat="46.46711" lon="10.25402">
        <ele>1801.17</ele>
        <time>2012-07-29T08:20:55Z</time>
      </trkpt>
      <trkpt lat="46.46805" lon="10.25451">
        <ele>1790.59</ele>
        <time>2012-07-29T08:21:02Z</time>
      </trkpt>
      <trkpt lat="46.46858" lon="10.25453">
        <ele>1785.31</ele>
        <time>2012-07-29T08:21:07Z</time>
      </trkpt>
      <trkpt lat="46.46926" lon="10.25522">
        <ele>1781.46</ele>
        <time>2012-07-29T08:21:13Z</time>
      </trkpt>
      <trkpt lat="46.46998" lon="10.25551">
        <ele>1775.21</ele>
        <time>2012-07-29T08:21:19Z</time>
      </trkpt>
      <trkpt lat="46.47035" lon="10.2562">
        <ele>1773.29</ele>
        <time>2012-07-29T08:21:23Z</time>
      </trkpt>
      <trkpt lat="46.47061" lon="10.2572">
        <ele>1764.16</ele>
        <time>2012-07-29T08:21:29Z</time>
      </trkpt>
      <trkpt lat="46.4709" lon="10.25746">
        <ele>1761.27</ele>
        <time>2012-07-29T08:21:35Z</time>
      </trkpt>
      <trkpt lat="46.47058" lon="10.25732">
        <ele>1762.23</ele>
        <time>2012-07-29T08:21:40Z</time>
      </trkpt>
      <trkpt lat="46.47044" lon="10.25702">
        <ele>1761.75</ele>
        <time>2012-07-29T08:21:42Z</time>
      </trkpt>
      <trkpt lat="46.47008" lon="10.25625">
        <ele>1758.39</ele>
        <time>2012-07-29T08:21:47Z</time>
      </trkpt>
      <trkpt lat="46.46943" lon="10.25584">
        <ele>1755.5</ele>
        <time>2012-07-29T08:21:51Z</time>
      </trkpt>
      <trkpt lat="46.46861" lon="10.25553">
        <ele>1745.41</ele>
        <time>2012-07-29T08:21:57Z</time>
      </trkpt>
      <trkpt lat="46.46787" lon="10.25588">
        <ele>1741.08</ele>
        <time>2012-07-29T08:22:04Z</time>
      </trkpt>
      <trkpt lat="46.46697" lon="10.2559">
        <ele>1735.32</ele>
        <time>2012-07-29T08:22:10Z</time>
      </trkpt>
      <trkpt lat="46.46668" lon="10.2559">
        <ele>1730.51</ele>
        <time>2012-07-29T08:22:12Z</time>
      </trkpt>
      <trkpt lat="46.46542" lon="10.25525">
        <ele>1723.3</ele>
        <time>2012-07-29T08:22:21Z</time>
      </trkpt>
      <trkpt lat="46.46467" lon="10.2551">
        <ele>1717.05</ele>
        <time>2012-07-29T08:22:26Z</time>
      </trkpt>
      <trkpt lat="46.46396" lon="10.25484">
        <ele>1710.32</ele>
        <time>2012-07-29T08:22:32Z</time>
      </trkpt>
      <trkpt lat="46.46385" lon="10.25466">
        <ele>1708.88</ele>
        <time>2012-07-29T08:22:34Z</time>
      </trkpt>
      <trkpt lat="46.46379" lon="10.25411">
        <ele>1705.04</ele>
        <time>2012-07-29T08:22:40Z</time>
      </trkpt>
      <trkpt lat="46.46363" lon="10.25435">
        <ele>1705.04</ele>
        <time>2012-07-29T08:22:44Z</time>
      </trkpt>
      <trkpt lat="46.46383" lon="10.25518">
        <ele>1701.67</ele>
        <time>2012-07-29T08:22:50Z</time>
      </trkpt>
      <trkpt lat="46.465" lon="10.25599">
        <ele>1695.42</ele>
        <time>2012-07-29T08:22:59Z</time>
      </trkpt>
      <trkpt lat="46.46582" lon="10.25671">
        <ele>1689.65</ele>
        <time>2012-07-29T08:23:05Z</time>
      </trkpt>
      <trkpt lat="46.46746" lon="10.25836">
        <ele>1674.27</ele>
        <time>2012-07-29T08:23:18Z</time>
      </trkpt>
      <trkpt lat="46.46791" lon="10.25857">
        <ele>1667.06</ele>
        <time>2012-07-29T08:24:03Z</time>
      </trkpt>
      <trkpt lat="46.46855" lon="10.25847">
        <ele>1662.26</ele>
        <time>2012-07-29T08:25:55Z</time>
      </trkpt>
      <trkpt lat="46.46878" lon="10.25886">
        <ele>1662.74</ele>
        <time>2012-07-29T08:25:58Z</time>
      </trkpt>
      <trkpt lat="46.46925" lon="10.25999">
        <ele>1654.09</ele>
        <time>2012-07-29T08:26:04Z</time>
      </trkpt>
      <trkpt lat="46.46958" lon="10.26041">
        <ele>1652.64</ele>
        <time>2012-07-29T08:26:07Z</time>
      </trkpt>
      <trkpt lat="46.47062" lon="10.26112">
        <ele>1646.88</ele>
        <time>2012-07-29T08:26:14Z</time>
      </trkpt>
      <trkpt lat="46.4718" lon="10.26184">
        <ele>1635.34</ele>
        <time>2012-07-29T08:26:22Z</time>
      </trkpt>
      <trkpt lat="46.47223" lon="10.26225">
        <ele>1631.98</ele>
        <time>2012-07-29T08:26:26Z</time>
      </trkpt>
      <trkpt lat="46.47337" lon="10.26268">
        <ele>1623.8</ele>
        <time>2012-07-29T08:26:34Z</time>
      </trkpt>
      <trkpt lat="46.47402" lon="10.26355">
        <ele>1616.11</ele>
        <time>2012-07-29T08:26:42Z</time>
      </trkpt>
      <trkpt lat="46.47429" lon="10.26368">
        <ele>1615.63</ele>
        <time>2012-07-29T08:26:44Z</time>
      </trkpt>
      <trkpt lat="46.47501" lon="10.264">
        <ele>1606.5</ele>
        <time>2012-07-29T08:26:50Z</time>
      </trkpt>
      <trkpt lat="46.47555" lon="10.26438">
        <ele>1602.66</ele>
        <time>2012-07-29T08:26:56Z</time>
      </trkpt>
      <trkpt lat="46.47651" lon="10.26436">
        <ele>1598.33</ele>
        <time>2012-07-29T08:27:03Z</time>
      </trkpt>
      <trkpt lat="46.47828" lon="10.26477">
        <ele>1581.03</ele>
        <time>2012-07-29T08:27:14Z</time>
      </trkpt>
      <trkpt lat="46.48008" lon="10.26429">
        <ele>1568.05</ele>
        <time>2012-07-29T08:27:27Z</time>
      </trkpt>
      <trkpt lat="46.48062" lon="10.26384">
        <ele>1561.32</ele>
        <time>2012-07-29T08:27:32Z</time>
      </trkpt>
      <trkpt lat="46.48079" lon="10.26356">
        <ele>1559.88</ele>
        <time>2012-07-29T08:27:34Z</time>
      </trkpt>
      <trkpt lat="46.48122" lon="10.26287">
        <ele>1553.15</ele>
        <time>2012-07-29T08:27:40Z</time>
      </trkpt>
      <trkpt lat="46.4813" lon="10.26284">
        <ele>1551.71</ele>
        <time>2012-07-29T08:27:41Z</time>
      </trkpt>
      <trkpt lat="46.48166" lon="10.26307">
        <ele>1549.78</ele>
        <time>2012-07-29T08:27:45Z</time>
      </trkpt>
      <trkpt lat="46.48209" lon="10.26361">
        <ele>1546.42</ele>
        <time>2012-07-29T08:27:50Z</time>
      </trkpt>
      <trkpt lat="46.4837" lon="10.26434">
        <ele>1537.77</ele>
        <time>2012-07-29T08:28:03Z</time>
      </trkpt>
      <trkpt lat="46.48411" lon="10.26467">
        <ele>1533.44</ele>
        <time>2012-07-29T08:28:07Z</time>
      </trkpt>
      <trkpt lat="46.48447" lon="10.26468">
        <ele>1531.52</ele>
        <time>2012-07-29T08:28:10Z</time>
      </trkpt>
      <trkpt lat="46.48483" lon="10.26468">
        <ele>1527.19</ele>
        <time>2012-07-29T08:28:14Z</time>
      </trkpt>
      <trkpt lat="46.48494" lon="10.26487">
        <ele>1525.27</ele>
        <time>2012-07-29T08:28:17Z</time>
      </trkpt>
      <trkpt lat="46.48481" lon="10.26553">
        <ele>1526.71</ele>
        <time>2012-07-29T08:28:22Z</time>
      </trkpt>
      <trkpt lat="46.48473" lon="10.26609">
        <ele>1523.83</ele>
        <time>2012-07-29T08:28:25Z</time>
      </trkpt>
      <trkpt lat="46.48449" lon="10.26694">
        <ele>1518.54</ele>
        <time>2012-07-29T08:28:30Z</time>
      </trkpt>
      <trkpt lat="46.48449" lon="10.26748">
        <ele>1515.66</ele>
        <time>2012-07-29T08:28:33Z</time>
      </trkpt>
      <trkpt lat="46.48479" lon="10.26859">
        <ele>1509.41</ele>
        <time>2012-07-29T08:28:39Z</time>
      </trkpt>
      <trkpt lat="46.48502" lon="10.26928">
        <ele>1504.12</ele>
        <time>2012-07-29T08:28:44Z</time>
      </trkpt>
      <trkpt lat="46.48497" lon="10.27106">
        <ele>1496.43</ele>
        <time>2012-07-29T08:28:56Z</time>
      </trkpt>
      <trkpt lat="46.48579" lon="10.27379">
        <ele>1494.51</ele>
        <time>2012-07-29T08:29:17Z</time>
      </trkpt>
      <trkpt lat="46.48584" lon="10.27409">
        <ele>1492.58</ele>
        <time>2012-07-29T08:30:46Z</time>
      </trkpt>
      <trkpt lat="46.48611" lon="10.2748">
        <ele>1491.14</ele>
        <time>2012-07-29T08:31:41Z</time>
      </trkpt>
      <trkpt lat="46.48691" lon="10.2759">
        <ele>1481.53</ele>
        <time>2012-07-29T08:31:52Z</time>
      </trkpt>
      <trkpt lat="46.48711" lon="10.27701">
        <ele>1475.28</ele>
        <time>2012-07-29T08:32:00Z</time>
      </trkpt>
      <trkpt lat="46.48747" lon="10.27786">
        <ele>1467.59</ele>
        <time>2012-07-29T08:32:06Z</time>
      </trkpt>
      <trkpt lat="46.48745" lon="10.27972">
        <ele>1455.57</ele>
        <time>2012-07-29T08:32:18Z</time>
      </trkpt>
      <trkpt lat="46.48765" lon="10.28005">
        <ele>1454.13</ele>
        <time>2012-07-29T08:32:21Z</time>
      </trkpt>
      <trkpt lat="46.48826" lon="10.2806">
        <ele>1446.92</ele>
        <time>2012-07-29T08:32:28Z</time>
      </trkpt>
      <trkpt lat="46.48849" lon="10.282">
        <ele>1442.6</ele>
        <time>2012-07-29T08:32:37Z</time>
      </trkpt>
      <trkpt lat="46.48886" lon="10.28324">
        <ele>1432.98</ele>
        <time>2012-07-29T08:32:44Z</time>
      </trkpt>
      <trkpt lat="46.48884" lon="10.28492">
        <ele>1422.41</ele>
        <time>2012-07-29T08:32:54Z</time>
      </trkpt>
      <trkpt lat="46.48936" lon="10.28628">
        <ele>1410.87</ele>
        <time>2012-07-29T08:33:03Z</time>
      </trkpt>
      <trkpt lat="46.48945" lon="10.28738">
        <ele>1405.1</ele>
        <time>2012-07-29T08:33:10Z</time>
      </trkpt>
      <trkpt lat="46.48955" lon="10.288">
        <ele>1400.3</ele>
        <time>2012-07-29T08:33:14Z</time>
      </trkpt>
      <trkpt lat="46.4894" lon="10.29022">
        <ele>1384.44</ele>
        <time>2012-07-29T08:33:28Z</time>
      </trkpt>
      <trkpt lat="46.48929" lon="10.29053">
        <ele>1382.51</ele>
        <time>2012-07-29T08:33:31Z</time>
      </trkpt>
      <trkpt lat="46.48886" lon="10.29093">
        <ele>1380.59</ele>
        <time>2012-07-29T08:33:37Z</time>
      </trkpt>
      <trkpt lat="46.48868" lon="10.29221">
        <ele>1378.67</ele>
        <time>2012-07-29T08:33:47Z</time>
      </trkpt>
      <trkpt lat="46.48899" lon="10.29418">
        <ele>1371.94</ele>
        <time>2012-07-29T08:34:13Z</time>
      </trkpt>
      <trkpt lat="46.48884" lon="10.29467">
        <ele>1369.54</ele>
        <time>2012-07-29T08:34:25Z</time>
      </trkpt>
      <trkpt lat="46.48895" lon="10.2957">
        <ele>1366.17</ele>
        <time>2012-07-29T08:34:49Z</time>
      </trkpt>
      <trkpt lat="46.48776" lon="10.29721">
        <ele>1364.73</ele>
        <time>2012-07-29T08:35:10Z</time>
      </trkpt>
      <trkpt lat="46.48763" lon="10.29759">
        <ele>1364.73</ele>
        <time>2012-07-29T08:35:13Z</time>
      </trkpt>
      <trkpt lat="46.4877" lon="10.30021">
        <ele>1360.4</ele>
        <time>2012-07-29T08:35:31Z</time>
      </trkpt>
      <trkpt lat="46.48707" lon="10.30283">
        <ele>1358.48</ele>
        <time>2012-07-29T08:35:47Z</time>
      </trkpt>
      <trkpt lat="46.4861" lon="10.30622">
        <ele>1353.67</ele>
        <time>2012-07-29T08:36:05Z</time>
      </trkpt>
      <trkpt lat="46.48547" lon="10.3097">
        <ele>1346.46</ele>
        <time>2012-07-29T08:36:26Z</time>
      </trkpt>
      <trkpt lat="46.48524" lon="10.31025">
        <ele>1348.39</ele>
        <time>2012-07-29T08:36:30Z</time>
      </trkpt>
      <trkpt lat="46.48461" lon="10.31193">
        <ele>1345.02</ele>
        <time>2012-07-29T08:36:41Z</time>
      </trkpt>
      <trkpt lat="46.48462" lon="10.31239">
        <ele>1344.54</ele>
        <time>2012-07-29T08:36:44Z</time>
      </trkpt>
      <trkpt lat="46.48494" lon="10.31291">
        <ele>1345.02</ele>
        <time>2012-07-29T08:36:48Z</time>
      </trkpt>
      <trkpt lat="46.48598" lon="10.31405">
        <ele>1344.06</ele>
        <time>2012-07-29T08:36:59Z</time>
      </trkpt>
      <trkpt lat="46.48625" lon="10.31442">
        <ele>1341.66</ele>
        <time>2012-07-29T08:37:04Z</time>
      </trkpt>
      <trkpt lat="46.48629" lon="10.31478">
        <ele>1342.14</ele>
        <time>2012-07-29T08:37:08Z</time>
      </trkpt>
      <trkpt lat="46.48519" lon="10.32247">
        <ele>1335.89</ele>
        <time>2012-07-29T08:37:56Z</time>
      </trkpt>
      <trkpt lat="46.4846" lon="10.32563">
        <ele>1333.49</ele>
        <time>2012-07-29T08:38:09Z</time>
      </trkpt>
      <trkpt lat="46.4841" lon="10.3272">
        <ele>1331.08</ele>
        <time>2012-07-29T08:38:16Z</time>
      </trkpt>
      <trkpt lat="46.48329" lon="10.32854">
        <ele>1333.01</ele>
        <time>2012-07-29T08:38:24Z</time>
      </trkpt>
      <trkpt lat="46.48281" lon="10.3296">
        <ele>1332.52</ele>
        <time>2012-07-29T08:38:30Z</time>
      </trkpt>
      <trkpt lat="46.48258" lon="10.33122">
        <ele>1330.6</ele>
        <time>2012-07-29T08:38:38Z</time>
      </trkpt>
      <trkpt lat="46.48268" lon="10.33261">
        <ele>1329.64</ele>
        <time>2012-07-29T08:38:45Z</time>
      </trkpt>
      <trkpt lat="46.48264" lon="10.33389">
        <ele>1326.28</ele>
        <time>2012-07-29T08:38:53Z</time>
      </trkpt>
      <trkpt lat="46.48259" lon="10.33447">
        <ele>1322.43</ele>
        <time>2012-07-29T08:39:07Z</time>
      </trkpt>
      <trkpt lat="46.48316" lon="10.33642">
        <ele>1321.95</ele>
        <time>2012-07-29T08:39:23Z</time>
      </trkpt>
      <trkpt lat="46.48289" lon="10.33809">
        <ele>1322.91</ele>
        <time>2012-07-29T08:39:32Z</time>
      </trkpt>
      <trkpt lat="46.48301" lon="10.33883">
        <ele>1320.99</ele>
        <time>2012-07-29T08:39:37Z</time>
      </trkpt>
      <trkpt lat="46.48259" lon="10.33962">
        <ele>1323.87</ele>
        <time>2012-07-29T08:39:44Z</time>
      </trkpt>
      <trkpt lat="46.48252" lon="10.34012">
        <ele>1325.8</ele>
        <time>2012-07-29T08:39:47Z</time>
      </trkpt>
      <trkpt lat="46.4825" lon="10.34032">
        <ele>1326.28</ele>
        <time>2012-07-29T08:39:48Z</time>
      </trkpt>
      <trkpt lat="46.48247" lon="10.34079">
        <ele>1324.35</ele>
        <time>2012-07-29T08:39:51Z</time>
      </trkpt>
      <trkpt lat="46.48256" lon="10.3411">
        <ele>1324.35</ele>
        <time>2012-07-29T08:39:54Z</time>
      </trkpt>
      <trkpt lat="46.48329" lon="10.34212">
        <ele>1324.35</ele>
        <time>2012-07-29T08:40:12Z</time>
      </trkpt>
      <trkpt lat="46.48397" lon="10.34336">
        <ele>1324.83</ele>
        <time>2012-07-29T08:40:22Z</time>
      </trkpt>
      <trkpt lat="46.48453" lon="10.344">
        <ele>1327.24</ele>
        <time>2012-07-29T08:40:30Z</time>
      </trkpt>
      <trkpt lat="46.48529" lon="10.34535">
        <ele>1328.2</ele>
        <time>2012-07-29T08:40:42Z</time>
      </trkpt>
      <trkpt lat="46.48609" lon="10.34678">
        <ele>1328.2</ele>
        <time>2012-07-29T08:40:53Z</time>
      </trkpt>
      <trkpt lat="46.4874" lon="10.3509">
        <ele>1328.2</ele>
        <time>2012-07-29T08:41:15Z</time>
      </trkpt>
      <trkpt lat="46.4875" lon="10.35183">
        <ele>1330.12</ele>
        <time>2012-07-29T08:41:19Z</time>
      </trkpt>
      <trkpt lat="46.48736" lon="10.35537">
        <ele>1327.24</ele>
        <time>2012-07-29T08:41:35Z</time>
      </trkpt>
      <trkpt lat="46.48748" lon="10.3568">
        <ele>1325.8</ele>
        <time>2012-07-29T08:41:43Z</time>
      </trkpt>
      <trkpt lat="46.48791" lon="10.35762">
        <ele>1323.39</ele>
        <time>2012-07-29T08:41:49Z</time>
      </trkpt>
      <trkpt lat="46.4888" lon="10.3581">
        <ele>1320.99</ele>
        <time>2012-07-29T08:41:57Z</time>
      </trkpt>
      <trkpt lat="46.48933" lon="10.3586">
        <ele>1316.66</ele>
        <time>2012-07-29T08:42:12Z</time>
      </trkpt>
      <trkpt lat="46.48952" lon="10.35912">
        <ele>1316.18</ele>
        <time>2012-07-29T08:42:20Z</time>
      </trkpt>
      <trkpt lat="46.48931" lon="10.35964">
        <ele>1316.18</ele>
        <time>2012-07-29T08:42:28Z</time>
      </trkpt>
      <trkpt lat="46.48884" lon="10.35936">
        <ele>1319.07</ele>
        <time>2012-07-29T08:42:33Z</time>
      </trkpt>
      <trkpt lat="46.48856" lon="10.35923">
        <ele>1320.03</ele>
        <time>2012-07-29T08:42:35Z</time>
      </trkpt>
      <trkpt lat="46.48737" lon="10.35918">
        <ele>1319.07</ele>
        <time>2012-07-29T08:42:43Z</time>
      </trkpt>
      <trkpt lat="46.48684" lon="10.35947">
        <ele>1319.07</ele>
        <time>2012-07-29T08:42:47Z</time>
      </trkpt>
      <trkpt lat="46.48671" lon="10.35949">
        <ele>1317.62</ele>
        <time>2012-07-29T08:42:48Z</time>
      </trkpt>
      <trkpt lat="46.48559" lon="10.35925">
        <ele>1319.55</ele>
        <time>2012-07-29T08:42:56Z</time>
      </trkpt>
      <trkpt lat="46.48433" lon="10.35989">
        <ele>1317.62</ele>
        <time>2012-07-29T08:43:06Z</time>
      </trkpt>
      <trkpt lat="46.48338" lon="10.36188">
        <ele>1316.66</ele>
        <time>2012-07-29T08:43:19Z</time>
      </trkpt>
      <trkpt lat="46.48309" lon="10.36272">
        <ele>1315.7</ele>
        <time>2012-07-29T08:43:27Z</time>
      </trkpt>
      <trkpt lat="46.48294" lon="10.36382">
        <ele>1318.59</ele>
        <time>2012-07-29T08:43:34Z</time>
      </trkpt>
      <trkpt lat="46.48261" lon="10.36453">
        <ele>1320.99</ele>
        <time>2012-07-29T08:43:40Z</time>
      </trkpt>
      <trkpt lat="46.4825" lon="10.36497">
        <ele>1320.99</ele>
        <time>2012-07-29T08:43:43Z</time>
      </trkpt>
      <trkpt lat="46.48186" lon="10.36598">
        <ele>1323.39</ele>
        <time>2012-07-29T08:43:51Z</time>
      </trkpt>
      <trkpt lat="46.48114" lon="10.36641">
        <ele>1325.31</ele>
        <time>2012-07-29T08:43:58Z</time>
      </trkpt>
      <trkpt lat="46.48024" lon="10.3675">
        <ele>1320.99</ele>
        <time>2012-07-29T08:44:08Z</time>
      </trkpt>
      <trkpt lat="46.47897" lon="10.36842">
        <ele>1315.22</ele>
        <time>2012-07-29T08:44:22Z</time>
      </trkpt>
      <trkpt lat="46.47856" lon="10.36833">
        <ele>1315.22</ele>
        <time>2012-07-29T08:44:26Z</time>
      </trkpt>
      <trkpt lat="46.4776" lon="10.36735">
        <ele>1311.38</ele>
        <time>2012-07-29T08:44:41Z</time>
      </trkpt>
      <trkpt lat="46.47729" lon="10.36728">
        <ele>1310.41</ele>
        <time>2012-07-29T08:44:44Z</time>
      </trkpt>
      <trkpt lat="46.4769" lon="10.36722">
        <ele>1308.97</ele>
        <time>2012-07-29T08:44:47Z</time>
      </trkpt>
      <trkpt lat="46.47471" lon="10.36687">
        <ele>1295.51</ele>
        <time>2012-07-29T08:45:02Z</time>
      </trkpt>
      <trkpt lat="46.47396" lon="10.36701">
        <ele>1291.67</ele>
        <time>2012-07-29T08:45:07Z</time>
      </trkpt>
      <trkpt lat="46.47305" lon="10.36764">
        <ele>1284.94</ele>
        <time>2012-07-29T08:45:14Z</time>
      </trkpt>
      <trkpt lat="46.47263" lon="10.36807">
        <ele>1277.25</ele>
        <time>2012-07-29T08:45:19Z</time>
      </trkpt>
      <trkpt lat="46.47244" lon="10.36809">
        <ele>1274.85</ele>
        <time>2012-07-29T08:45:22Z</time>
      </trkpt>
      <trkpt lat="46.47236" lon="10.36783">
        <ele>1272.92</ele>
        <time>2012-07-29T08:45:25Z</time>
      </trkpt>
      <trkpt lat="46.47249" lon="10.36745">
        <ele>1273.88</ele>
        <time>2012-07-29T08:45:28Z</time>
      </trkpt>
      <trkpt lat="46.47298" lon="10.36613">
        <ele>1264.27</ele>
        <time>2012-07-29T08:45:37Z</time>
      </trkpt>
      <trkpt lat="46.47278" lon="10.36584">
        <ele>1262.83</ele>
        <time>2012-07-29T08:45:41Z</time>
      </trkpt>
      <trkpt lat="46.47224" lon="10.36609">
        <ele>1260.91</ele>
        <time>2012-07-29T08:45:46Z</time>
      </trkpt>
      <trkpt lat="46.47136" lon="10.3666">
        <ele>1252.74</ele>
        <time>2012-07-29T08:45:54Z</time>
      </trkpt>
      <trkpt lat="46.47004" lon="10.36836">
        <ele>1242.16</ele>
        <time>2012-07-29T08:46:09Z</time>
      </trkpt>
      <trkpt lat="46.46965" lon="10.36909">
        <ele>1237.83</ele>
        <time>2012-07-29T08:46:16Z</time>
      </trkpt>
      <trkpt lat="46.46946" lon="10.37061">
        <ele>1233.51</ele>
        <time>2012-07-29T08:46:26Z</time>
      </trkpt>
      <trkpt lat="46.46942" lon="10.37073">
        <ele>1233.03</ele>
        <time>2012-07-29T08:46:27Z</time>
      </trkpt>
      <trkpt lat="46.46938" lon="10.37082">
        <ele>1231.59</ele>
        <time>2012-07-29T08:46:28Z</time>
      </trkpt>
      <trkpt lat="46.46906" lon="10.37131">
        <ele>1227.74</ele>
        <time>2012-07-29T08:46:44Z</time>
      </trkpt>
      <trkpt lat="46.46853" lon="10.37175">
        <ele>1225.82</ele>
        <time>2012-07-29T08:47:01Z</time>
      </trkpt>
      <trkpt lat="46.46796" lon="10.37175">
        <ele>1221.97</ele>
        <time>2012-07-29T08:47:09Z</time>
      </trkpt>
      <trkpt lat="46.46666" lon="10.37085">
        <ele>1214.28</ele>
        <time>2012-07-29T08:47:27Z</time>
      </trkpt>
      <trkpt lat="46.46631" lon="10.37058">
        <ele>1210.92</ele>
        <time>2012-07-29T08:47:40Z</time>
      </trkpt>
      <trkpt lat="46.46655" lon="10.37127">
        <ele>1212.84</ele>
        <time>2012-07-29T08:47:51Z</time>
      </trkpt>
      <trkpt lat="46.46652" lon="10.37163">
        <ele>1213.8</ele>
        <time>2012-07-29T08:47:56Z</time>
      </trkpt>
      <trkpt lat="46.4663" lon="10.3724">
        <ele>1213.32</ele>
        <time>2012-07-29T08:48:06Z</time>
      </trkpt>
      <trkpt lat="46.46524" lon="10.37293">
        <ele>1210.92</ele>
        <time>2012-07-29T08:48:34Z</time>
      </trkpt>
      <trkpt lat="46.46684" lon="10.37957">
        <ele>1225.82</ele>
        <time>2012-07-29T08:49:35Z</time>
      </trkpt>
      <trkpt lat="46.46693" lon="10.38076">
        <ele>1228.22</ele>
        <time>2012-07-29T08:49:44Z</time>
      </trkpt>
      <trkpt lat="46.46679" lon="10.38254">
        <ele>1231.59</ele>
        <time>2012-07-29T08:49:54Z</time>
      </trkpt>
      <trkpt lat="46.46615" lon="10.38549">
        <ele>1240.72</ele>
        <time>2012-07-29T08:50:13Z</time>
      </trkpt>
      <trkpt lat="46.46625" lon="10.38934">
        <ele>1260.91</ele>
        <time>2012-07-29T08:50:37Z</time>
      </trkpt>
      <trkpt lat="46.46606" lon="10.39089">
        <ele>1269.56</ele>
        <time>2012-07-29T08:50:46Z</time>
      </trkpt>
      <trkpt lat="46.46629" lon="10.39289">
        <ele>1282.06</ele>
        <time>2012-07-29T08:50:59Z</time>
      </trkpt>
      <trkpt lat="46.46593" lon="10.39564">
        <ele>1297.92</ele>
        <time>2012-07-29T08:51:15Z</time>
      </trkpt>
      <trkpt lat="46.46593" lon="10.39722">
        <ele>1309.45</ele>
        <time>2012-07-29T08:51:24Z</time>
      </trkpt>
      <trkpt lat="46.4659" lon="10.39766">
        <ele>1311.86</ele>
        <time>2012-07-29T08:51:27Z</time>
      </trkpt>
      <trkpt lat="46.46571" lon="10.39812">
        <ele>1315.22</ele>
        <time>2012-07-29T08:51:35Z</time>
      </trkpt>
      <trkpt lat="46.46514" lon="10.39858">
        <ele>1320.03</ele>
        <time>2012-07-29T08:51:45Z</time>
      </trkpt>
      <trkpt lat="46.46458" lon="10.39945">
        <ele>1326.28</ele>
        <time>2012-07-29T08:51:56Z</time>
      </trkpt>
      <trkpt lat="46.46398" lon="10.40047">
        <ele>1328.2</ele>
        <time>2012-07-29T08:52:06Z</time>
      </trkpt>
      <trkpt lat="46.46364" lon="10.40072">
        <ele>1331.56</ele>
        <time>2012-07-29T08:52:12Z</time>
      </trkpt>
      <trkpt lat="46.46358" lon="10.40081">
        <ele>1331.08</ele>
        <time>2012-07-29T08:52:13Z</time>
      </trkpt>
      <trkpt lat="46.46323" lon="10.40161">
        <ele>1334.45</ele>
        <time>2012-07-29T08:52:21Z</time>
      </trkpt>
      <trkpt lat="46.46293" lon="10.40331">
        <ele>1335.89</ele>
        <time>2012-07-29T08:52:35Z</time>
      </trkpt>
      <trkpt lat="46.46338" lon="10.40424">
        <ele>1340.7</ele>
        <time>2012-07-29T08:52:43Z</time>
      </trkpt>
      <trkpt lat="46.46353" lon="10.40514">
        <ele>1335.41</ele>
        <time>2012-07-29T08:52:47Z</time>
      </trkpt>
      <trkpt lat="46.46342" lon="10.40646">
        <ele>1330.6</ele>
        <time>2012-07-29T08:52:55Z</time>
      </trkpt>
      <trkpt lat="46.4628" lon="10.40781">
        <ele>1328.2</ele>
        <time>2012-07-29T08:54:05Z</time>
      </trkpt>
      <trkpt lat="46.46262" lon="10.41059">
        <ele>1327.72</ele>
        <time>2012-07-29T08:56:08Z</time>
      </trkpt>
      <trkpt lat="46.46101" lon="10.41916">
        <ele>1337.33</ele>
        <time>2012-07-29T08:57:14Z</time>
      </trkpt>
      <trkpt lat="46.46053" lon="10.42085">
        <ele>1341.66</ele>
        <time>2012-07-29T08:57:26Z</time>
      </trkpt>
      <trkpt lat="46.45893" lon="10.42261">
        <ele>1344.06</ele>
        <time>2012-07-29T08:57:44Z</time>
      </trkpt>
      <trkpt lat="46.45853" lon="10.42334">
        <ele>1348.87</ele>
        <time>2012-07-29T08:57:52Z</time>
      </trkpt>
      <trkpt lat="46.45835" lon="10.42448">
        <ele>1350.79</ele>
        <time>2012-07-29T08:58:03Z</time>
      </trkpt>
      <trkpt lat="46.45845" lon="10.42498">
        <ele>1353.19</ele>
        <time>2012-07-29T08:58:09Z</time>
      </trkpt>
      <trkpt lat="46.45837" lon="10.42568">
        <ele>1353.19</ele>
        <time>2012-07-29T08:58:17Z</time>
      </trkpt>
      <trkpt lat="46.45762" lon="10.42629">
        <ele>1352.23</ele>
        <time>2012-07-29T08:58:27Z</time>
      </trkpt>
      <trkpt lat="46.45663" lon="10.42874">
        <ele>1361.36</ele>
        <time>2012-07-29T08:58:41Z</time>
      </trkpt>
      <trkpt lat="46.45623" lon="10.4298">
        <ele>1363.77</ele>
        <time>2012-07-29T08:58:46Z</time>
      </trkpt>
      <trkpt lat="46.4558" lon="10.43078">
        <ele>1364.25</ele>
        <time>2012-07-29T08:58:51Z</time>
      </trkpt>
      <trkpt lat="46.45517" lon="10.43136">
        <ele>1367.13</ele>
        <time>2012-07-29T08:58:56Z</time>
      </trkpt>
      <trkpt lat="46.45486" lon="10.43147">
        <ele>1368.09</ele>
        <time>2012-07-29T08:58:58Z</time>
      </trkpt>
      <trkpt lat="46.45372" lon="10.43196">
        <ele>1371.46</ele>
        <time>2012-07-29T08:59:06Z</time>
      </trkpt>
      <trkpt lat="46.4536" lon="10.4321">
        <ele>1371.46</ele>
        <time>2012-07-29T08:59:07Z</time>
      </trkpt>
      <trkpt lat="46.45275" lon="10.43388">
        <ele>1377.71</ele>
        <time>2012-07-29T08:59:16Z</time>
      </trkpt>
      <trkpt lat="46.45261" lon="10.43458">
        <ele>1381.07</ele>
        <time>2012-07-29T08:59:19Z</time>
      </trkpt>
      <trkpt lat="46.45227" lon="10.43547">
        <ele>1380.59</ele>
        <time>2012-07-29T08:59:24Z</time>
      </trkpt>
      <trkpt lat="46.45145" lon="10.43606">
        <ele>1387.8</ele>
        <time>2012-07-29T08:59:30Z</time>
      </trkpt>
      <trkpt lat="46.45058" lon="10.43696">
        <ele>1392.61</ele>
        <time>2012-07-29T08:59:36Z</time>
      </trkpt>
      <trkpt lat="46.44997" lon="10.43782">
        <ele>1393.57</ele>
        <time>2012-07-29T08:59:41Z</time>
      </trkpt>
      <trkpt lat="46.44816" lon="10.43958">
        <ele>1400.3</ele>
        <time>2012-07-29T08:59:54Z</time>
      </trkpt>
      <trkpt lat="46.44611" lon="10.44072">
        <ele>1419.04</ele>
        <time>2012-07-29T09:00:07Z</time>
      </trkpt>
      <trkpt lat="46.44465" lon="10.44183">
        <ele>1432.02</ele>
        <time>2012-07-29T09:00:16Z</time>
      </trkpt>
      <trkpt lat="46.44264" lon="10.44437">
        <ele>1458.94</ele>
        <time>2012-07-29T09:00:33Z</time>
      </trkpt>
      <trkpt lat="46.44162" lon="10.44578">
        <ele>1465.67</ele>
        <time>2012-07-29T09:00:42Z</time>
      </trkpt>
      <trkpt lat="46.44116" lon="10.44692">
        <ele>1466.15</ele>
        <time>2012-07-29T09:00:48Z</time>
      </trkpt>
      <trkpt lat="46.44026" lon="10.44803">
        <ele>1469.99</ele>
        <time>2012-07-29T09:00:56Z</time>
      </trkpt>
      <trkpt lat="46.43928" lon="10.44998">
        <ele>1482.01</ele>
        <time>2012-07-29T09:01:07Z</time>
      </trkpt>
      <trkpt lat="46.43853" lon="10.45086">
        <ele>1488.26</ele>
        <time>2012-07-29T09:01:13Z</time>
      </trkpt>
      <trkpt lat="46.43783" lon="10.45121">
        <ele>1491.62</ele>
        <time>2012-07-29T09:01:23Z</time>
      </trkpt>
      <trkpt lat="46.43784" lon="10.45122">
        <ele>1499.79</ele>
        <time>2012-07-29T09:28:34Z</time>
      </trkpt>
      <trkpt lat="46.43784" lon="10.45125">
        <ele>1500.27</ele>
        <time>2012-07-29T09:30:04Z</time>
      </trkpt>
      <trkpt lat="46.43712" lon="10.45236">
        <ele>1512.77</ele>
        <time>2012-07-29T09:30:17Z</time>
      </trkpt>
      <trkpt lat="46.436" lon="10.45408">
        <ele>1527.67</ele>
        <time>2012-07-29T09:30:28Z</time>
      </trkpt>
      <trkpt lat="46.43398" lon="10.45589">
        <ele>1549.78</ele>
        <time>2012-07-29T09:30:43Z</time>
      </trkpt>
      <trkpt lat="46.43369" lon="10.45565">
        <ele>1551.71</ele>
        <time>2012-07-29T09:30:44Z</time>
      </trkpt>
      <trkpt lat="46.43327" lon="10.45567">
        <ele>1556.03</ele>
        <time>2012-07-29T09:30:47Z</time>
      </trkpt>
      <trkpt lat="46.4323" lon="10.45607">
        <ele>1567.57</ele>
        <time>2012-07-29T09:30:53Z</time>
      </trkpt>
      <trkpt lat="46.43157" lon="10.45681">
        <ele>1576.22</ele>
        <time>2012-07-29T09:30:58Z</time>
      </trkpt>
      <trkpt lat="46.43061" lon="10.45778">
        <ele>1587.27</ele>
        <time>2012-07-29T09:31:05Z</time>
      </trkpt>
      <trkpt lat="46.43005" lon="10.45812">
        <ele>1593.52</ele>
        <time>2012-07-29T09:31:09Z</time>
      </trkpt>
      <trkpt lat="46.42877" lon="10.4591">
        <ele>1607.46</ele>
        <time>2012-07-29T09:31:17Z</time>
      </trkpt>
      <trkpt lat="46.42788" lon="10.46004">
        <ele>1613.23</ele>
        <time>2012-07-29T09:31:23Z</time>
      </trkpt>
      <trkpt lat="46.42643" lon="10.46205">
        <ele>1618.52</ele>
        <time>2012-07-29T09:31:34Z</time>
      </trkpt>
      <trkpt lat="46.4257" lon="10.46332">
        <ele>1626.21</ele>
        <time>2012-07-29T09:31:40Z</time>
      </trkpt>
      <trkpt lat="46.42472" lon="10.46538">
        <ele>1637.26</ele>
        <time>2012-07-29T09:31:50Z</time>
      </trkpt>
      <trkpt lat="46.42426" lon="10.46687">
        <ele>1643.99</ele>
        <time>2012-07-29T09:31:57Z</time>
      </trkpt>
      <trkpt lat="46.4241" lon="10.46825">
        <ele>1652.16</ele>
        <time>2012-07-29T09:32:03Z</time>
      </trkpt>
      <trkpt lat="46.42376" lon="10.46875">
        <ele>1655.53</ele>
        <time>2012-07-29T09:32:06Z</time>
      </trkpt>
      <trkpt lat="46.42308" lon="10.4694">
        <ele>1662.26</ele>
        <time>2012-07-29T09:32:12Z</time>
      </trkpt>
      <trkpt lat="46.42251" lon="10.47066">
        <ele>1671.39</ele>
        <time>2012-07-29T09:32:20Z</time>
      </trkpt>
      <trkpt lat="46.42163" lon="10.47194">
        <ele>1679.08</ele>
        <time>2012-07-29T09:32:29Z</time>
      </trkpt>
      <trkpt lat="46.42066" lon="10.47423">
        <ele>1689.65</ele>
        <time>2012-07-29T09:32:42Z</time>
      </trkpt>
      <trkpt lat="46.42007" lon="10.47533">
        <ele>1693.5</ele>
        <time>2012-07-29T09:32:48Z</time>
      </trkpt>
      <trkpt lat="46.4194" lon="10.47717">
        <ele>1701.67</ele>
        <time>2012-07-29T09:32:57Z</time>
      </trkpt>
      <trkpt lat="46.41892" lon="10.47839">
        <ele>1702.15</ele>
        <time>2012-07-29T09:33:04Z</time>
      </trkpt>
      <trkpt lat="46.41863" lon="10.48185">
        <ele>1710.32</ele>
        <time>2012-07-29T09:33:20Z</time>
      </trkpt>
      <trkpt lat="46.41775" lon="10.48345">
        <ele>1714.17</ele>
        <time>2012-07-29T09:33:31Z</time>
      </trkpt>
      <trkpt lat="46.41751" lon="10.48422">
        <ele>1716.57</ele>
        <time>2012-07-29T09:33:36Z</time>
      </trkpt>
      <trkpt lat="46.41705" lon="10.4847">
        <ele>1722.82</ele>
        <time>2012-07-29T09:33:41Z</time>
      </trkpt>
      <trkpt lat="46.4164" lon="10.48578">
        <ele>1726.18</ele>
        <time>2012-07-29T09:33:50Z</time>
      </trkpt>
      <trkpt lat="46.41589" lon="10.48745">
        <ele>1726.18</ele>
        <time>2012-07-29T09:34:02Z</time>
      </trkpt>
      <trkpt lat="46.41479" lon="10.48848">
        <ele>1727.63</ele>
        <time>2012-07-29T09:34:15Z</time>
      </trkpt>
      <trkpt lat="46.41446" lon="10.48912">
        <ele>1728.59</ele>
        <time>2012-07-29T09:34:21Z</time>
      </trkpt>
      <trkpt lat="46.41436" lon="10.49046">
        <ele>1727.15</ele>
        <time>2012-07-29T09:34:43Z</time>
      </trkpt>
      <trkpt lat="46.41396" lon="10.49137">
        <ele>1729.07</ele>
        <time>2012-07-29T09:34:53Z</time>
      </trkpt>
      <trkpt lat="46.41246" lon="10.4942">
        <ele>1727.63</ele>
        <time>2012-07-29T09:35:16Z</time>
      </trkpt>
      <trkpt lat="46.41167" lon="10.49463">
        <ele>1730.99</ele>
        <time>2012-07-29T09:35:26Z</time>
      </trkpt>
      <trkpt lat="46.41014" lon="10.49609">
        <ele>1744.93</ele>
        <time>2012-07-29T09:35:44Z</time>
      </trkpt>
      <trkpt lat="46.40998" lon="10.49658">
        <ele>1745.89</ele>
        <time>2012-07-29T09:35:47Z</time>
      </trkpt>
      <trkpt lat="46.4098" lon="10.49705">
        <ele>1744.45</ele>
        <time>2012-07-29T09:35:51Z</time>
      </trkpt>
      <trkpt lat="46.40898" lon="10.4978">
        <ele>1753.58</ele>
        <time>2012-07-29T09:35:59Z</time>
      </trkpt>
      <trkpt lat="46.40851" lon="10.4983">
        <ele>1755.99</ele>
        <time>2012-07-29T09:36:04Z</time>
      </trkpt>
      <trkpt lat="46.40838" lon="10.49828">
        <ele>1756.47</ele>
        <time>2012-07-29T09:36:07Z</time>
      </trkpt>
      <trkpt lat="46.40848" lon="10.49769">
        <ele>1760.79</ele>
        <time>2012-07-29T09:36:12Z</time>
      </trkpt>
      <trkpt lat="46.40882" lon="10.49676">
        <ele>1766.08</ele>
        <time>2012-07-29T09:36:20Z</time>
      </trkpt>
      <trkpt lat="46.40923" lon="10.49606">
        <ele>1772.81</ele>
        <time>2012-07-29T09:36:26Z</time>
      </trkpt>
      <trkpt lat="46.40934" lon="10.49481">
        <ele>1780.5</ele>
        <time>2012-07-29T09:36:34Z</time>
      </trkpt>
      <trkpt lat="46.40961" lon="10.49418">
        <ele>1785.31</ele>
        <time>2012-07-29T09:36:38Z</time>
      </trkpt>
      <trkpt lat="46.40986" lon="10.49367">
        <ele>1788.67</ele>
        <time>2012-07-29T09:36:45Z</time>
      </trkpt>
      <trkpt lat="46.40917" lon="10.49424">
        <ele>1798.28</ele>
        <time>2012-07-29T09:36:53Z</time>
      </trkpt>
      <trkpt lat="46.40871" lon="10.49554">
        <ele>1806.45</ele>
        <time>2012-07-29T09:37:02Z</time>
      </trkpt>
      <trkpt lat="46.40855" lon="10.49569">
        <ele>1808.38</ele>
        <time>2012-07-29T09:37:04Z</time>
      </trkpt>
      <trkpt lat="46.40811" lon="10.49616">
        <ele>1814.63</ele>
        <time>2012-07-29T09:37:09Z</time>
      </trkpt>
      <trkpt lat="46.40741" lon="10.49647">
        <ele>1823.76</ele>
        <time>2012-07-29T09:37:15Z</time>
      </trkpt>
      <trkpt lat="46.40682" lon="10.49657">
        <ele>1825.2</ele>
        <time>2012-07-29T09:37:20Z</time>
      </trkpt>
      <trkpt lat="46.40669" lon="10.49694">
        <ele>1826.64</ele>
        <time>2012-07-29T09:37:24Z</time>
      </trkpt>
      <trkpt lat="46.40686" lon="10.49709">
        <ele>1828.08</ele>
        <time>2012-07-29T09:37:25Z</time>
      </trkpt>
      <trkpt lat="46.40671" lon="10.49736">
        <ele>1831.93</ele>
        <time>2012-07-29T09:37:28Z</time>
      </trkpt>
      <trkpt lat="46.40645" lon="10.49773">
        <ele>1835.77</ele>
        <time>2012-07-29T09:37:31Z</time>
      </trkpt>
      <trkpt lat="46.40551" lon="10.49871">
        <ele>1848.75</ele>
        <time>2012-07-29T09:37:41Z</time>
      </trkpt>
      <trkpt lat="46.40484" lon="10.49929">
        <ele>1855</ele>
        <time>2012-07-29T09:37:48Z</time>
      </trkpt>
      <trkpt lat="46.40464" lon="10.49971">
        <ele>1857.4</ele>
        <time>2012-07-29T09:37:52Z</time>
      </trkpt>
      <trkpt lat="46.40433" lon="10.49984">
        <ele>1861.25</ele>
        <time>2012-07-29T09:37:55Z</time>
      </trkpt>
      <trkpt lat="46.40374" lon="10.50019">
        <ele>1864.61</ele>
        <time>2012-07-29T09:38:02Z</time>
      </trkpt>
      <trkpt lat="46.40379" lon="10.49998">
        <ele>1867.02</ele>
        <time>2012-07-29T09:38:06Z</time>
      </trkpt>
      <trkpt lat="46.40412" lon="10.49973">
        <ele>1870.86</ele>
        <time>2012-07-29T09:38:10Z</time>
      </trkpt>
      <trkpt lat="46.40446" lon="10.49944">
        <ele>1870.86</ele>
        <time>2012-07-29T09:38:14Z</time>
      </trkpt>
      <trkpt lat="46.40519" lon="10.49776">
        <ele>1880.96</ele>
        <time>2012-07-29T09:38:25Z</time>
      </trkpt>
      <trkpt lat="46.40561" lon="10.49735">
        <ele>1884.8</ele>
        <time>2012-07-29T09:38:30Z</time>
      </trkpt>
      <trkpt lat="46.40579" lon="10.49696">
        <ele>1887.69</ele>
        <time>2012-07-29T09:38:33Z</time>
      </trkpt>
      <trkpt lat="46.4059" lon="10.49669">
        <ele>1888.17</ele>
        <time>2012-07-29T09:38:36Z</time>
      </trkpt>
      <trkpt lat="46.40581" lon="10.4966">
        <ele>1888.65</ele>
        <time>2012-07-29T09:38:39Z</time>
      </trkpt>
      <trkpt lat="46.40555" lon="10.49698">
        <ele>1892.49</ele>
        <time>2012-07-29T09:38:44Z</time>
      </trkpt>
      <trkpt lat="46.4051" lon="10.49726">
        <ele>1898.74</ele>
        <time>2012-07-29T09:38:48Z</time>
      </trkpt>
      <trkpt lat="46.40497" lon="10.49733">
        <ele>1899.7</ele>
        <time>2012-07-29T09:38:49Z</time>
      </trkpt>
      <trkpt lat="46.404" lon="10.49838">
        <ele>1910.76</ele>
        <time>2012-07-29T09:38:57Z</time>
      </trkpt>
      <trkpt lat="46.40358" lon="10.49888">
        <ele>1910.28</ele>
        <time>2012-07-29T09:39:03Z</time>
      </trkpt>
      <trkpt lat="46.40369" lon="10.49864">
        <ele>1913.64</ele>
        <time>2012-07-29T09:39:09Z</time>
      </trkpt>
      <trkpt lat="46.40406" lon="10.4979">
        <ele>1921.81</ele>
        <time>2012-07-29T09:39:15Z</time>
      </trkpt>
      <trkpt lat="46.40421" lon="10.49736">
        <ele>1922.77</ele>
        <time>2012-07-29T09:39:19Z</time>
      </trkpt>
      <trkpt lat="46.40482" lon="10.49624">
        <ele>1930.95</ele>
        <time>2012-07-29T09:39:28Z</time>
      </trkpt>
      <trkpt lat="46.405" lon="10.49529">
        <ele>1935.75</ele>
        <time>2012-07-29T09:39:35Z</time>
      </trkpt>
      <trkpt lat="46.4054" lon="10.49479">
        <ele>1942</ele>
        <time>2012-07-29T09:39:40Z</time>
      </trkpt>
      <trkpt lat="46.40586" lon="10.49414">
        <ele>1943.44</ele>
        <time>2012-07-29T09:39:46Z</time>
      </trkpt>
      <trkpt lat="46.40581" lon="10.49402">
        <ele>1943.92</ele>
        <time>2012-07-29T09:39:49Z</time>
      </trkpt>
      <trkpt lat="46.4057" lon="10.49421">
        <ele>1946.33</ele>
        <time>2012-07-29T09:39:52Z</time>
      </trkpt>
      <trkpt lat="46.40565" lon="10.4943">
        <ele>1947.29</ele>
        <time>2012-07-29T09:39:53Z</time>
      </trkpt>
      <trkpt lat="46.4047" lon="10.49494">
        <ele>1955.94</ele>
        <time>2012-07-29T09:40:04Z</time>
      </trkpt>
      <trkpt lat="46.40412" lon="10.49563">
        <ele>1965.07</ele>
        <time>2012-07-29T09:40:10Z</time>
      </trkpt>
      <trkpt lat="46.40381" lon="10.496">
        <ele>1966.51</ele>
        <time>2012-07-29T09:40:14Z</time>
      </trkpt>
      <trkpt lat="46.40326" lon="10.49621">
        <ele>1971.32</ele>
        <time>2012-07-29T09:40:20Z</time>
      </trkpt>
      <trkpt lat="46.40271" lon="10.49715">
        <ele>1977.09</ele>
        <time>2012-07-29T09:40:28Z</time>
      </trkpt>
      <trkpt lat="46.40178" lon="10.4979">
        <ele>1987.66</ele>
        <time>2012-07-29T09:40:36Z</time>
      </trkpt>
      <trkpt lat="46.3988" lon="10.49906">
        <ele>2004.97</ele>
        <time>2012-07-29T09:42:05Z</time>
      </trkpt>
      <trkpt lat="46.39875" lon="10.49883">
        <ele>2008.33</ele>
        <time>2012-07-29T09:42:09Z</time>
      </trkpt>
      <trkpt lat="46.39882" lon="10.49875">
        <ele>2009.29</ele>
        <time>2012-07-29T09:42:10Z</time>
      </trkpt>
      <trkpt lat="46.3993" lon="10.49825">
        <ele>2014.58</ele>
        <time>2012-07-29T09:42:15Z</time>
      </trkpt>
      <trkpt lat="46.40022" lon="10.49763">
        <ele>2020.83</ele>
        <time>2012-07-29T09:42:23Z</time>
      </trkpt>
      <trkpt lat="46.40091" lon="10.49633">
        <ele>2028.52</ele>
        <time>2012-07-29T09:42:31Z</time>
      </trkpt>
      <trkpt lat="46.40122" lon="10.49545">
        <ele>2032.36</ele>
        <time>2012-07-29T09:42:37Z</time>
      </trkpt>
      <trkpt lat="46.40119" lon="10.49458">
        <ele>2038.13</ele>
        <time>2012-07-29T09:42:45Z</time>
      </trkpt>
      <trkpt lat="46.4014" lon="10.49381">
        <ele>2044.86</ele>
        <time>2012-07-29T09:42:50Z</time>
      </trkpt>
      <trkpt lat="46.40172" lon="10.49293">
        <ele>2050.63</ele>
        <time>2012-07-29T09:42:56Z</time>
      </trkpt>
      <trkpt lat="46.40184" lon="10.49179">
        <ele>2055.92</ele>
        <time>2012-07-29T09:43:03Z</time>
      </trkpt>
      <trkpt lat="46.4017" lon="10.4918">
        <ele>2059.28</ele>
        <time>2012-07-29T09:43:07Z</time>
      </trkpt>
      <trkpt lat="46.40157" lon="10.49214">
        <ele>2062.65</ele>
        <time>2012-07-29T09:43:10Z</time>
      </trkpt>
      <trkpt lat="46.40095" lon="10.49299">
        <ele>2070.82</ele>
        <time>2012-07-29T09:43:17Z</time>
      </trkpt>
      <trkpt lat="46.40052" lon="10.49426">
        <ele>2081.87</ele>
        <time>2012-07-29T09:43:24Z</time>
      </trkpt>
      <trkpt lat="46.40002" lon="10.49552">
        <ele>2089.56</ele>
        <time>2012-07-29T09:43:32Z</time>
      </trkpt>
      <trkpt lat="46.39966" lon="10.49576">
        <ele>2094.37</ele>
        <time>2012-07-29T09:43:36Z</time>
      </trkpt>
      <trkpt lat="46.3993" lon="10.49567">
        <ele>2100.62</ele>
        <time>2012-07-29T09:43:39Z</time>
      </trkpt>
      <trkpt lat="46.39864" lon="10.49571">
        <ele>2104.94</ele>
        <time>2012-07-29T09:43:46Z</time>
      </trkpt>
      <trkpt lat="46.39881" lon="10.49535">
        <ele>2109.75</ele>
        <time>2012-07-29T09:43:52Z</time>
      </trkpt>
      <trkpt lat="46.39965" lon="10.49474">
        <ele>2118.4</ele>
        <time>2012-07-29T09:44:01Z</time>
      </trkpt>
      <trkpt lat="46.39978" lon="10.49429">
        <ele>2123.21</ele>
        <time>2012-07-29T09:44:04Z</time>
      </trkpt>
      <trkpt lat="46.39994" lon="10.49366">
        <ele>2124.65</ele>
        <time>2012-07-29T09:44:09Z</time>
      </trkpt>
      <trkpt lat="46.39986" lon="10.49356">
        <ele>2125.61</ele>
        <time>2012-07-29T09:44:12Z</time>
      </trkpt>
      <trkpt lat="46.39973" lon="10.4938">
        <ele>2128.5</ele>
        <time>2012-07-29T09:44:16Z</time>
      </trkpt>
      <trkpt lat="46.39968" lon="10.49389">
        <ele>2129.46</ele>
        <time>2012-07-29T09:44:17Z</time>
      </trkpt>
      <trkpt lat="46.39919" lon="10.49448">
        <ele>2134.74</ele>
        <time>2012-07-29T09:44:24Z</time>
      </trkpt>
      <trkpt lat="46.39858" lon="10.49441">
        <ele>2141.47</ele>
        <time>2012-07-29T09:44:30Z</time>
      </trkpt>
      <trkpt lat="46.39804" lon="10.49437">
        <ele>2144.84</ele>
        <time>2012-07-29T09:44:35Z</time>
      </trkpt>
      <trkpt lat="46.39716" lon="10.4954">
        <ele>2156.86</ele>
        <time>2012-07-29T09:44:49Z</time>
      </trkpt>
      <trkpt lat="46.39583" lon="10.4959">
        <ele>2171.76</ele>
        <time>2012-07-29T09:45:00Z</time>
      </trkpt>
      <trkpt lat="46.39531" lon="10.49638">
        <ele>2181.37</ele>
        <time>2012-07-29T09:45:05Z</time>
      </trkpt>
      <trkpt lat="46.39497" lon="10.4967">
        <ele>2185.21</ele>
        <time>2012-07-29T09:45:08Z</time>
      </trkpt>
      <trkpt lat="46.39402" lon="10.49814">
        <ele>2189.54</ele>
        <time>2012-07-29T09:45:20Z</time>
      </trkpt>
      <trkpt lat="46.39234" lon="10.49958">
        <ele>2202.04</ele>
        <time>2012-07-29T09:45:34Z</time>
      </trkpt>
      <trkpt lat="46.39135" lon="10.49997">
        <ele>2215.5</ele>
        <time>2012-07-29T09:45:42Z</time>
      </trkpt>
      <trkpt lat="46.39099" lon="10.50035">
        <ele>2220.78</ele>
        <time>2012-07-29T09:45:46Z</time>
      </trkpt>
      <trkpt lat="46.39067" lon="10.50079">
        <ele>2220.78</ele>
        <time>2012-07-29T09:45:50Z</time>
      </trkpt>
      <trkpt lat="46.39044" lon="10.50091">
        <ele>2224.15</ele>
        <time>2012-07-29T09:45:52Z</time>
      </trkpt>
      <trkpt lat="46.39032" lon="10.50095">
        <ele>2223.67</ele>
        <time>2012-07-29T09:45:53Z</time>
      </trkpt>
      <trkpt lat="46.38988" lon="10.50091">
        <ele>2227.03</ele>
        <time>2012-07-29T09:45:57Z</time>
      </trkpt>
      <trkpt lat="46.38945" lon="10.50055">
        <ele>2228.95</ele>
        <time>2012-07-29T09:46:01Z</time>
      </trkpt>
      <trkpt lat="46.38919" lon="10.50034">
        <ele>2228.47</ele>
        <time>2012-07-29T09:46:04Z</time>
      </trkpt>
      <trkpt lat="46.38877" lon="10.50056">
        <ele>2233.76</ele>
        <time>2012-07-29T09:46:10Z</time>
      </trkpt>
      <trkpt lat="46.38826" lon="10.49997">
        <ele>2241.93</ele>
        <time>2012-07-29T09:46:16Z</time>
      </trkpt>
      <trkpt lat="46.38732" lon="10.49938">
        <ele>2243.37</ele>
        <time>2012-07-29T09:46:25Z</time>
      </trkpt>
      <trkpt lat="46.38653" lon="10.49933">
        <ele>2249.14</ele>
        <time>2012-07-29T09:46:33Z</time>
      </trkpt>
      <trkpt lat="46.38596" lon="10.49849">
        <ele>2259.72</ele>
        <time>2012-07-29T09:46:40Z</time>
      </trkpt>
      <trkpt lat="46.38522" lon="10.49688">
        <ele>2267.89</ele>
        <time>2012-07-29T09:46:54Z</time>
      </trkpt>
      <trkpt lat="46.38437" lon="10.49641">
        <ele>2276.54</ele>
        <time>2012-07-29T09:47:49Z</time>
      </trkpt>
      <trkpt lat="46.38421" lon="10.49667">
        <ele>2281.35</ele>
        <time>2012-07-29T09:47:52Z</time>
      </trkpt>
      <trkpt lat="46.38415" lon="10.49738">
        <ele>2290</ele>
        <time>2012-07-29T09:47:56Z</time>
      </trkpt>
      <trkpt lat="46.38415" lon="10.49822">
        <ele>2294.8</ele>
        <time>2012-07-29T09:48:00Z</time>
      </trkpt>
      <trkpt lat="46.38485" lon="10.50111">
        <ele>2315.47</ele>
        <time>2012-07-29T09:48:18Z</time>
      </trkpt>
      <trkpt lat="46.38467" lon="10.50187">
        <ele>2321.24</ele>
        <time>2012-07-29T09:48:24Z</time>
      </trkpt>
      <trkpt lat="46.38399" lon="10.50293">
        <ele>2332.3</ele>
        <time>2012-07-29T09:48:35Z</time>
      </trkpt>
      <trkpt lat="46.38342" lon="10.50334">
        <ele>2339.02</ele>
        <time>2012-07-29T09:48:41Z</time>
      </trkpt>
      <trkpt lat="46.38152" lon="10.50358">
        <ele>2368.35</ele>
        <time>2012-07-29T09:48:58Z</time>
      </trkpt>
      <trkpt lat="46.38098" lon="10.50402">
        <ele>2374.11</ele>
        <time>2012-07-29T09:49:06Z</time>
      </trkpt>
      <trkpt lat="46.37964" lon="10.50365">
        <ele>2391.9</ele>
        <time>2012-07-29T09:49:20Z</time>
      </trkpt>
      <trkpt lat="46.37894" lon="10.50375">
        <ele>2397.18</ele>
        <time>2012-07-29T09:49:30Z</time>
      </trkpt>
      <trkpt lat="46.37877" lon="10.50355">
        <ele>2406.8</ele>
        <time>2012-07-29T09:55:19Z</time>
      </trkpt>
      <trkpt lat="46.37835" lon="10.50344">
        <ele>2412.57</ele>
        <time>2012-07-29T09:55:26Z</time>
      </trkpt>
      <trkpt lat="46.377" lon="10.50366">
        <ele>2422.66</ele>
        <time>2012-07-29T09:55:37Z</time>
      </trkpt>
      <trkpt lat="46.37653" lon="10.50378">
        <ele>2423.14</ele>
        <time>2012-07-29T09:55:41Z</time>
      </trkpt>
      <trkpt lat="46.37574" lon="10.50336">
        <ele>2431.31</ele>
        <time>2012-07-29T09:55:48Z</time>
      </trkpt>
      <trkpt lat="46.37478" lon="10.50334">
        <ele>2441.89</ele>
        <time>2012-07-29T09:55:58Z</time>
      </trkpt>
      <trkpt lat="46.37456" lon="10.50333">
        <ele>2443.33</ele>
        <time>2012-07-29T09:56:00Z</time>
      </trkpt>
      <trkpt lat="46.37409" lon="10.50291">
        <ele>2446.69</ele>
        <time>2012-07-29T09:56:05Z</time>
      </trkpt>
      <trkpt lat="46.37377" lon="10.50232">
        <ele>2448.13</ele>
        <time>2012-07-29T09:56:10Z</time>
      </trkpt>
      <trkpt lat="46.37347" lon="10.50219">
        <ele>2451.98</ele>
        <time>2012-07-29T09:56:13Z</time>
      </trkpt>
      <trkpt lat="46.3717" lon="10.50224">
        <ele>2466.4</ele>
        <time>2012-07-29T09:56:28Z</time>
      </trkpt>
      <trkpt lat="46.37059" lon="10.50204">
        <ele>2475.05</ele>
        <time>2012-07-29T09:56:37Z</time>
      </trkpt>
      <trkpt lat="46.36832" lon="10.5019">
        <ele>2489.95</ele>
        <time>2012-07-29T09:56:53Z</time>
      </trkpt>
      <trkpt lat="46.36759" lon="10.50232">
        <ele>2491.39</ele>
        <time>2012-07-29T09:57:00Z</time>
      </trkpt>
      <trkpt lat="46.36706" lon="10.50204">
        <ele>2497.16</ele>
        <time>2012-07-29T09:57:06Z</time>
      </trkpt>
      <trkpt lat="46.3667" lon="10.50224">
        <ele>2500.05</ele>
        <time>2012-07-29T09:57:09Z</time>
      </trkpt>
      <trkpt lat="46.36627" lon="10.50233">
        <ele>2500.05</ele>
        <time>2012-07-29T09:57:13Z</time>
      </trkpt>
      <trkpt lat="46.3654" lon="10.50202">
        <ele>2505.33</ele>
        <time>2012-07-29T09:57:26Z</time>
      </trkpt>
      <trkpt lat="46.36522" lon="10.50204">
        <ele>2505.33</ele>
        <time>2012-07-29T09:57:34Z</time>
      </trkpt>
      <trkpt lat="46.36464" lon="10.50168">
        <ele>2511.58</ele>
        <time>2012-07-29T09:58:43Z</time>
      </trkpt>
      <trkpt lat="46.36224" lon="10.50079">
        <ele>2519.27</ele>
        <time>2012-07-29T09:59:04Z</time>
      </trkpt>
      <trkpt lat="46.36181" lon="10.50073">
        <ele>2518.31</ele>
        <time>2012-07-29T09:59:07Z</time>
      </trkpt>
      <trkpt lat="46.36096" lon="10.5003">
        <ele>2519.27</ele>
        <time>2012-07-29T09:59:13Z</time>
      </trkpt>
      <trkpt lat="46.36009" lon="10.5004">
        <ele>2521.68</ele>
        <time>2012-07-29T09:59:20Z</time>
      </trkpt>
      <trkpt lat="46.35934" lon="10.5002">
        <ele>2519.75</ele>
        <time>2012-07-29T09:59:27Z</time>
      </trkpt>
      <trkpt lat="46.35885" lon="10.49959">
        <ele>2521.19</ele>
        <time>2012-07-29T09:59:33Z</time>
      </trkpt>
      <trkpt lat="46.35811" lon="10.49901">
        <ele>2521.68</ele>
        <time>2012-07-29T09:59:40Z</time>
      </trkpt>
      <trkpt lat="46.35473" lon="10.49752">
        <ele>2537.06</ele>
        <time>2012-07-29T10:00:07Z</time>
      </trkpt>
      <trkpt lat="46.35381" lon="10.49653">
        <ele>2542.34</ele>
        <time>2012-07-29T10:00:15Z</time>
      </trkpt>
      <trkpt lat="46.35247" lon="10.49577">
        <ele>2549.07</ele>
        <time>2012-07-29T10:00:27Z</time>
      </trkpt>
      <trkpt lat="46.35174" lon="10.49496">
        <ele>2551.96</ele>
        <time>2012-07-29T10:00:34Z</time>
      </trkpt>
      <trkpt lat="46.35061" lon="10.49421">
        <ele>2556.28</ele>
        <time>2012-07-29T10:00:43Z</time>
      </trkpt>
      <trkpt lat="46.35015" lon="10.49396">
        <ele>2555.8</ele>
        <time>2012-07-29T10:00:47Z</time>
      </trkpt>
      <trkpt lat="46.34965" lon="10.49397">
        <ele>2558.21</ele>
        <time>2012-07-29T10:00:52Z</time>
      </trkpt>
      <trkpt lat="46.34852" lon="10.49341">
        <ele>2568.78</ele>
        <time>2012-07-29T10:01:04Z</time>
      </trkpt>
      <trkpt lat="46.34752" lon="10.49349">
        <ele>2575.51</ele>
        <time>2012-07-29T10:01:13Z</time>
      </trkpt>
      <trkpt lat="46.34701" lon="10.49385">
        <ele>2581.76</ele>
        <time>2012-07-29T10:01:18Z</time>
      </trkpt>
      <trkpt lat="46.34642" lon="10.49412">
        <ele>2585.12</ele>
        <time>2012-07-29T10:01:24Z</time>
      </trkpt>
      <trkpt lat="46.34634" lon="10.49409">
        <ele>2585.12</ele>
        <time>2012-07-29T10:01:25Z</time>
      </trkpt>
      <trkpt lat="46.34572" lon="10.492">
        <ele>2594.25</ele>
        <time>2012-07-29T10:10:12Z</time>
      </trkpt>
      <trkpt lat="46.34556" lon="10.49191">
        <ele>2594.74</ele>
        <time>2012-07-29T10:10:58Z</time>
      </trkpt>
      <trkpt lat="46.34459" lon="10.49128">
        <ele>2595.7</ele>
        <time>2012-07-29T10:11:09Z</time>
      </trkpt>
      <trkpt lat="46.34447" lon="10.49104">
        <ele>2595.22</ele>
        <time>2012-07-29T10:11:11Z</time>
      </trkpt>
      <trkpt lat="46.34414" lon="10.48934">
        <ele>2599.06</ele>
        <time>2012-07-29T10:11:22Z</time>
      </trkpt>
      <trkpt lat="46.34354" lon="10.4874">
        <ele>2604.83</ele>
        <time>2012-07-29T10:11:37Z</time>
      </trkpt>
      <trkpt lat="46.34379" lon="10.4855">
        <ele>2602.43</ele>
        <time>2012-07-29T10:11:49Z</time>
      </trkpt>
      <trkpt lat="46.34391" lon="10.48476">
        <ele>2598.58</ele>
        <time>2012-07-29T10:11:54Z</time>
      </trkpt>
      <trkpt lat="46.34377" lon="10.48421">
        <ele>2597.14</ele>
        <time>2012-07-29T10:11:59Z</time>
      </trkpt>
      <trkpt lat="46.34259" lon="10.4839">
        <ele>2587.53</ele>
        <time>2012-07-29T10:12:10Z</time>
      </trkpt>
      <trkpt lat="46.34172" lon="10.48451">
        <ele>2581.76</ele>
        <time>2012-07-29T10:12:17Z</time>
      </trkpt>
      <trkpt lat="46.34144" lon="10.4852">
        <ele>2576.95</ele>
        <time>2012-07-29T10:12:22Z</time>
      </trkpt>
      <trkpt lat="46.34091" lon="10.48565">
        <ele>2574.55</ele>
        <time>2012-07-29T10:12:27Z</time>
      </trkpt>
      <trkpt lat="46.34039" lon="10.48585">
        <ele>2566.38</ele>
        <time>2012-07-29T10:12:32Z</time>
      </trkpt>
      <trkpt lat="46.33978" lon="10.48524">
        <ele>2559.17</ele>
        <time>2012-07-29T10:12:40Z</time>
      </trkpt>
      <trkpt lat="46.33933" lon="10.48514">
        <ele>2553.4</ele>
        <time>2012-07-29T10:12:45Z</time>
      </trkpt>
      <trkpt lat="46.33917" lon="10.48467">
        <ele>2551.48</ele>
        <time>2012-07-29T10:12:50Z</time>
      </trkpt>
      <trkpt lat="46.33913" lon="10.4838">
        <ele>2545.23</ele>
        <time>2012-07-29T10:13:02Z</time>
      </trkpt>
      <trkpt lat="46.339" lon="10.48467">
        <ele>2540.42</ele>
        <time>2012-07-29T10:14:02Z</time>
      </trkpt>
      <trkpt lat="46.33877" lon="10.48588">
        <ele>2529.37</ele>
        <time>2012-07-29T10:14:11Z</time>
      </trkpt>
      <trkpt lat="46.33879" lon="10.48633">
        <ele>2526.96</ele>
        <time>2012-07-29T10:14:14Z</time>
      </trkpt>
      <trkpt lat="46.33894" lon="10.48795">
        <ele>2511.1</ele>
        <time>2012-07-29T10:14:24Z</time>
      </trkpt>
      <trkpt lat="46.33909" lon="10.4883">
        <ele>2507.74</ele>
        <time>2012-07-29T10:14:28Z</time>
      </trkpt>
      <trkpt lat="46.33921" lon="10.48844">
        <ele>2504.37</ele>
        <time>2012-07-29T10:14:37Z</time>
      </trkpt>
      <trkpt lat="46.33885" lon="10.48816">
        <ele>2501.01</ele>
        <time>2012-07-29T10:14:42Z</time>
      </trkpt>
      <trkpt lat="46.33864" lon="10.48786">
        <ele>2499.57</ele>
        <time>2012-07-29T10:14:45Z</time>
      </trkpt>
      <trkpt lat="46.33855" lon="10.48761">
        <ele>2496.2</ele>
        <time>2012-07-29T10:14:47Z</time>
      </trkpt>
      <trkpt lat="46.33823" lon="10.48602">
        <ele>2488.51</ele>
        <time>2012-07-29T10:14:58Z</time>
      </trkpt>
      <trkpt lat="46.33823" lon="10.48509">
        <ele>2482.74</ele>
        <time>2012-07-29T10:15:04Z</time>
      </trkpt>
      <trkpt lat="46.3383" lon="10.48455">
        <ele>2475.53</ele>
        <time>2012-07-29T10:15:10Z</time>
      </trkpt>
      <trkpt lat="46.33805" lon="10.48541">
        <ele>2472.17</ele>
        <time>2012-07-29T10:15:18Z</time>
      </trkpt>
      <trkpt lat="46.33784" lon="10.48706">
        <ele>2460.63</ele>
        <time>2012-07-29T10:15:27Z</time>
      </trkpt>
      <trkpt lat="46.33799" lon="10.48831">
        <ele>2448.62</ele>
        <time>2012-07-29T10:15:37Z</time>
      </trkpt>
      <trkpt lat="46.33736" lon="10.48843">
        <ele>2445.25</ele>
        <time>2012-07-29T10:15:43Z</time>
      </trkpt>
      <trkpt lat="46.33723" lon="10.48845">
        <ele>2442.37</ele>
        <time>2012-07-29T10:15:44Z</time>
      </trkpt>
      <trkpt lat="46.3368" lon="10.48843">
        <ele>2439</ele>
        <time>2012-07-29T10:15:47Z</time>
      </trkpt>
      <trkpt lat="46.33638" lon="10.48855">
        <ele>2434.68</ele>
        <time>2012-07-29T10:15:51Z</time>
      </trkpt>
      <trkpt lat="46.33576" lon="10.48825">
        <ele>2429.39</ele>
        <time>2012-07-29T10:15:56Z</time>
      </trkpt>
      <trkpt lat="46.33519" lon="10.48792">
        <ele>2422.18</ele>
        <time>2012-07-29T10:16:01Z</time>
      </trkpt>
      <trkpt lat="46.3349" lon="10.48767">
        <ele>2415.45</ele>
        <time>2012-07-29T10:16:05Z</time>
      </trkpt>
      <trkpt lat="46.33436" lon="10.48878">
        <ele>2409.68</ele>
        <time>2012-07-29T10:16:14Z</time>
      </trkpt>
      <trkpt lat="46.33409" lon="10.48898">
        <ele>2405.84</ele>
        <time>2012-07-29T10:16:17Z</time>
      </trkpt>
      <trkpt lat="46.33311" lon="10.48895">
        <ele>2397.67</ele>
        <time>2012-07-29T10:16:25Z</time>
      </trkpt>
      <trkpt lat="46.33233" lon="10.48881">
        <ele>2384.69</ele>
        <time>2012-07-29T10:16:32Z</time>
      </trkpt>
      <trkpt lat="46.33188" lon="10.48883">
        <ele>2380.36</ele>
        <time>2012-07-29T10:16:36Z</time>
      </trkpt>
      <trkpt lat="46.33124" lon="10.48926">
        <ele>2370.75</ele>
        <time>2012-07-29T10:16:44Z</time>
      </trkpt>
      <trkpt lat="46.33117" lon="10.48931">
        <ele>2356.81</ele>
        <time>2012-07-29T10:16:54Z</time>
      </trkpt>
      <trkpt lat="46.33113" lon="10.48934">
        <ele>2346.72</ele>
        <time>2012-07-29T10:17:00Z</time>
      </trkpt>
      <trkpt lat="46.33112" lon="10.48934">
        <ele>2343.35</ele>
        <time>2012-07-29T10:17:02Z</time>
      </trkpt>
      <trkpt lat="46.33109" lon="10.48936">
        <ele>2334.22</ele>
        <time>2012-07-29T10:17:07Z</time>
      </trkpt>
      <trkpt lat="46.32701" lon="10.48947">
        <ele>2330.85</ele>
        <time>2012-07-29T10:17:09Z</time>
      </trkpt>
      <trkpt lat="46.32644" lon="10.48942">
        <ele>2326.05</ele>
        <time>2012-07-29T10:17:13Z</time>
      </trkpt>
      <trkpt lat="46.3259" lon="10.48965">
        <ele>2321.24</ele>
        <time>2012-07-29T10:17:17Z</time>
      </trkpt>
      <trkpt lat="46.32468" lon="10.49039">
        <ele>2306.82</ele>
        <time>2012-07-29T10:17:26Z</time>
      </trkpt>
      <trkpt lat="46.32396" lon="10.49042">
        <ele>2298.17</ele>
        <time>2012-07-29T10:17:33Z</time>
      </trkpt>
      <trkpt lat="46.32364" lon="10.49072">
        <ele>2297.69</ele>
        <time>2012-07-29T10:17:36Z</time>
      </trkpt>
      <trkpt lat="46.323" lon="10.49137">
        <ele>2288.56</ele>
        <time>2012-07-29T10:17:42Z</time>
      </trkpt>
      <trkpt lat="46.32267" lon="10.49144">
        <ele>2286.63</ele>
        <time>2012-07-29T10:17:45Z</time>
      </trkpt>
      <trkpt lat="46.3223" lon="10.4914">
        <ele>2280.38</ele>
        <time>2012-07-29T10:17:49Z</time>
      </trkpt>
      <trkpt lat="46.32137" lon="10.49242">
        <ele>2274.14</ele>
        <time>2012-07-29T10:17:57Z</time>
      </trkpt>
      <trkpt lat="46.31983" lon="10.49361">
        <ele>2253.95</ele>
        <time>2012-07-29T10:18:09Z</time>
      </trkpt>
      <trkpt lat="46.3189" lon="10.49548">
        <ele>2239.53</ele>
        <time>2012-07-29T10:18:22Z</time>
      </trkpt>
      <trkpt lat="46.31834" lon="10.49611">
        <ele>2230.4</ele>
        <time>2012-07-29T10:18:28Z</time>
      </trkpt>
      <trkpt lat="46.31821" lon="10.49665">
        <ele>2226.55</ele>
        <time>2012-07-29T10:18:33Z</time>
      </trkpt>
      <trkpt lat="46.31834" lon="10.49721">
        <ele>2226.07</ele>
        <time>2012-07-29T10:18:38Z</time>
      </trkpt>
      <trkpt lat="46.31827" lon="10.49746">
        <ele>2225.59</ele>
        <time>2012-07-29T10:18:40Z</time>
      </trkpt>
      <trkpt lat="46.31821" lon="10.49756">
        <ele>2224.15</ele>
        <time>2012-07-29T10:18:41Z</time>
      </trkpt>
      <trkpt lat="46.31732" lon="10.49816">
        <ele>2217.42</ele>
        <time>2012-07-29T10:18:49Z</time>
      </trkpt>
      <trkpt lat="46.31699" lon="10.49835">
        <ele>2212.61</ele>
        <time>2012-07-29T10:18:52Z</time>
      </trkpt>
      <trkpt lat="46.3165" lon="10.49884">
        <ele>2209.73</ele>
        <time>2012-07-29T10:18:57Z</time>
      </trkpt>
      <trkpt lat="46.31513" lon="10.4999">
        <ele>2195.31</ele>
        <time>2012-07-29T10:19:10Z</time>
      </trkpt>
      <trkpt lat="46.31481" lon="10.49997">
        <ele>2190.98</ele>
        <time>2012-07-29T10:19:14Z</time>
      </trkpt>
      <trkpt lat="46.31464" lon="10.50088">
        <ele>2188.1</ele>
        <time>2012-07-29T10:19:21Z</time>
      </trkpt>
      <trkpt lat="46.31414" lon="10.50166">
        <ele>2181.85</ele>
        <time>2012-07-29T10:19:27Z</time>
      </trkpt>
      <trkpt lat="46.31407" lon="10.50248">
        <ele>2177.04</ele>
        <time>2012-07-29T10:19:32Z</time>
      </trkpt>
      <trkpt lat="46.31341" lon="10.50357">
        <ele>2173.68</ele>
        <time>2012-07-29T10:19:39Z</time>
      </trkpt>
      <trkpt lat="46.31275" lon="10.50442">
        <ele>2168.39</ele>
        <time>2012-07-29T10:19:45Z</time>
      </trkpt>
      <trkpt lat="46.31205" lon="10.50435">
        <ele>2161.18</ele>
        <time>2012-07-29T10:19:50Z</time>
      </trkpt>
      <trkpt lat="46.31163" lon="10.50413">
        <ele>2156.37</ele>
        <time>2012-07-29T10:19:53Z</time>
      </trkpt>
      <trkpt lat="46.31108" lon="10.50403">
        <ele>2147.72</ele>
        <time>2012-07-29T10:19:58Z</time>
      </trkpt>
      <trkpt lat="46.3108" lon="10.5046">
        <ele>2142.44</ele>
        <time>2012-07-29T10:20:03Z</time>
      </trkpt>
      <trkpt lat="46.31045" lon="10.50488">
        <ele>2139.07</ele>
        <time>2012-07-29T10:20:07Z</time>
      </trkpt>
      <trkpt lat="46.30967" lon="10.50585">
        <ele>2134.74</ele>
        <time>2012-07-29T10:20:13Z</time>
      </trkpt>
      <trkpt lat="46.30884" lon="10.50692">
        <ele>2120.81</ele>
        <time>2012-07-29T10:20:19Z</time>
      </trkpt>
      <trkpt lat="46.30838" lon="10.50773">
        <ele>2104.46</ele>
        <time>2012-07-29T10:20:25Z</time>
      </trkpt>
      <trkpt lat="46.30831" lon="10.50775">
        <ele>2103.02</ele>
        <time>2012-07-29T10:20:27Z</time>
      </trkpt>
      <trkpt lat="46.3083" lon="10.50761">
        <ele>2102.54</ele>
        <time>2012-07-29T10:20:29Z</time>
      </trkpt>
      <trkpt lat="46.30887" lon="10.50538">
        <ele>2092.93</ele>
        <time>2012-07-29T10:20:41Z</time>
      </trkpt>
      <trkpt lat="46.30922" lon="10.50466">
        <ele>2086.68</ele>
        <time>2012-07-29T10:20:48Z</time>
      </trkpt>
      <trkpt lat="46.30917" lon="10.50467">
        <ele>2085.72</ele>
        <time>2012-07-29T10:20:49Z</time>
      </trkpt>
      <trkpt lat="46.30866" lon="10.50542">
        <ele>2084.76</ele>
        <time>2012-07-29T10:20:55Z</time>
      </trkpt>
      <trkpt lat="46.30826" lon="10.50587">
        <ele>2079.95</ele>
        <time>2012-07-29T10:20:59Z</time>
      </trkpt>
      <trkpt lat="46.30765" lon="10.50699">
        <ele>2073.22</ele>
        <time>2012-07-29T10:21:08Z</time>
      </trkpt>
      <trkpt lat="46.30746" lon="10.50816">
        <ele>2064.09</ele>
        <time>2012-07-29T10:21:16Z</time>
      </trkpt>
      <trkpt lat="46.30747" lon="10.50846">
        <ele>2059.28</ele>
        <time>2012-07-29T10:21:19Z</time>
      </trkpt>
      <trkpt lat="46.30736" lon="10.50835">
        <ele>2057.36</ele>
        <time>2012-07-29T10:21:23Z</time>
      </trkpt>
      <trkpt lat="46.30728" lon="10.50717">
        <ele>2054.96</ele>
        <time>2012-07-29T10:21:31Z</time>
      </trkpt>
      <trkpt lat="46.30731" lon="10.50673">
        <ele>2051.11</ele>
        <time>2012-07-29T10:21:35Z</time>
      </trkpt>
      <trkpt lat="46.30765" lon="10.50597">
        <ele>2046.78</ele>
        <time>2012-07-29T10:21:41Z</time>
      </trkpt>
      <trkpt lat="46.30776" lon="10.50565">
        <ele>2042.94</ele>
        <time>2012-07-29T10:21:44Z</time>
      </trkpt>
      <trkpt lat="46.30817" lon="10.50504">
        <ele>2042.46</ele>
        <time>2012-07-29T10:21:50Z</time>
      </trkpt>
      <trkpt lat="46.30842" lon="10.50451">
        <ele>2038.13</ele>
        <time>2012-07-29T10:21:58Z</time>
      </trkpt>
      <trkpt lat="46.30833" lon="10.50443">
        <ele>2037.17</ele>
        <time>2012-07-29T10:22:02Z</time>
      </trkpt>
      <trkpt lat="46.30795" lon="10.50515">
        <ele>2035.25</ele>
        <time>2012-07-29T10:22:09Z</time>
      </trkpt>
      <trkpt lat="46.30777" lon="10.50535">
        <ele>2032.84</ele>
        <time>2012-07-29T10:22:11Z</time>
      </trkpt>
      <trkpt lat="46.30673" lon="10.50586">
        <ele>2021.79</ele>
        <time>2012-07-29T10:22:21Z</time>
      </trkpt>
      <trkpt lat="46.30637" lon="10.50665">
        <ele>2015.54</ele>
        <time>2012-07-29T10:22:27Z</time>
      </trkpt>
      <trkpt lat="46.30628" lon="10.50714">
        <ele>2013.14</ele>
        <time>2012-07-29T10:22:30Z</time>
      </trkpt>
      <trkpt lat="46.30609" lon="10.50783">
        <ele>2004.97</ele>
        <time>2012-07-29T10:22:35Z</time>
      </trkpt>
      <trkpt lat="46.30628" lon="10.50871">
        <ele>1999.68</ele>
        <time>2012-07-29T10:22:44Z</time>
      </trkpt>
      <trkpt lat="46.30617" lon="10.509">
        <ele>1998.24</ele>
        <time>2012-07-29T10:22:47Z</time>
      </trkpt>
      <trkpt lat="46.3059" lon="10.50925">
        <ele>1993.91</ele>
        <time>2012-07-29T10:22:50Z</time>
      </trkpt>
      <trkpt lat="46.30538" lon="10.5093">
        <ele>1990.55</ele>
        <time>2012-07-29T10:22:55Z</time>
      </trkpt>
      <trkpt lat="46.3048" lon="10.50934">
        <ele>1983.34</ele>
        <time>2012-07-29T10:23:01Z</time>
      </trkpt>
      <trkpt lat="46.30454" lon="10.50983">
        <ele>1979.49</ele>
        <time>2012-07-29T10:23:06Z</time>
      </trkpt>
      <trkpt lat="46.30437" lon="10.50991">
        <ele>1979.49</ele>
        <time>2012-07-29T10:23:08Z</time>
      </trkpt>
      <trkpt lat="46.30319" lon="10.51003">
        <ele>1968.92</ele>
        <time>2012-07-29T10:23:17Z</time>
      </trkpt>
      <trkpt lat="46.30224" lon="10.5104">
        <ele>1956.9</ele>
        <time>2012-07-29T10:23:25Z</time>
      </trkpt>
      <trkpt lat="46.30174" lon="10.5115">
        <ele>1947.77</ele>
        <time>2012-07-29T10:23:43Z</time>
      </trkpt>
      <trkpt lat="46.30212" lon="10.51015">
        <ele>1942</ele>
        <time>2012-07-29T10:23:59Z</time>
      </trkpt>
      <trkpt lat="46.30278" lon="10.50968">
        <ele>1939.6</ele>
        <time>2012-07-29T10:24:07Z</time>
      </trkpt>
      <trkpt lat="46.30332" lon="10.50932">
        <ele>1933.35</ele>
        <time>2012-07-29T10:24:13Z</time>
      </trkpt>
      <trkpt lat="46.30419" lon="10.50914">
        <ele>1925.18</ele>
        <time>2012-07-29T10:24:41Z</time>
      </trkpt>
      <trkpt lat="46.30423" lon="10.50834">
        <ele>1919.89</ele>
        <time>2012-07-29T10:26:31Z</time>
      </trkpt>
      <trkpt lat="46.30402" lon="10.5091">
        <ele>1916.53</ele>
        <time>2012-07-29T10:26:45Z</time>
      </trkpt>
      <trkpt lat="46.30352" lon="10.50916">
        <ele>1913.64</ele>
        <time>2012-07-29T10:26:51Z</time>
      </trkpt>
      <trkpt lat="46.30288" lon="10.50928">
        <ele>1906.91</ele>
        <time>2012-07-29T10:26:58Z</time>
      </trkpt>
      <trkpt lat="46.30083" lon="10.50977">
        <ele>1881.44</ele>
        <time>2012-07-29T10:27:19Z</time>
      </trkpt>
      <trkpt lat="46.30024" lon="10.51044">
        <ele>1868.94</ele>
        <time>2012-07-29T10:27:29Z</time>
      </trkpt>
      <trkpt lat="46.30051" lon="10.50951">
        <ele>1863.65</ele>
        <time>2012-07-29T10:27:39Z</time>
      </trkpt>
      <trkpt lat="46.30074" lon="10.50928">
        <ele>1863.17</ele>
        <time>2012-07-29T10:27:42Z</time>
      </trkpt>
      <trkpt lat="46.30282" lon="10.50775">
        <ele>1844.43</ele>
        <time>2012-07-29T10:28:09Z</time>
      </trkpt>
      <trkpt lat="46.30288" lon="10.50684">
        <ele>1838.18</ele>
        <time>2012-07-29T10:28:18Z</time>
      </trkpt>
      <trkpt lat="46.30292" lon="10.5061">
        <ele>1829.05</ele>
        <time>2012-07-29T10:28:24Z</time>
      </trkpt>
      <trkpt lat="46.30321" lon="10.50572">
        <ele>1823.76</ele>
        <time>2012-07-29T10:28:30Z</time>
      </trkpt>
      <trkpt lat="46.30195" lon="10.50713">
        <ele>1804.05</ele>
        <time>2012-07-29T10:28:48Z</time>
      </trkpt>
      <trkpt lat="46.30081" lon="10.50778">
        <ele>1786.75</ele>
        <time>2012-07-29T10:29:01Z</time>
      </trkpt>
      <trkpt lat="46.29954" lon="10.50806">
        <ele>1769.44</ele>
        <time>2012-07-29T10:29:15Z</time>
      </trkpt>
      <trkpt lat="46.29817" lon="10.50947">
        <ele>1757.43</ele>
        <time>2012-07-29T10:29:51Z</time>
      </trkpt>
      <trkpt lat="46.29783" lon="10.50987">
        <ele>1750.7</ele>
        <time>2012-07-29T10:29:54Z</time>
      </trkpt>
      <trkpt lat="46.29723" lon="10.51016">
        <ele>1743.97</ele>
        <time>2012-07-29T10:29:59Z</time>
      </trkpt>
      <trkpt lat="46.29715" lon="10.51024">
        <ele>1742.53</ele>
        <time>2012-07-29T10:30:00Z</time>
      </trkpt>
      <trkpt lat="46.29681" lon="10.51045">
        <ele>1735.8</ele>
        <time>2012-07-29T10:30:07Z</time>
      </trkpt>
      <trkpt lat="46.29699" lon="10.50995">
        <ele>1733.88</ele>
        <time>2012-07-29T10:30:12Z</time>
      </trkpt>
      <trkpt lat="46.29765" lon="10.50912">
        <ele>1728.11</ele>
        <time>2012-07-29T10:30:20Z</time>
      </trkpt>
      <trkpt lat="46.29891" lon="10.5074">
        <ele>1707.92</ele>
        <time>2012-07-29T10:30:32Z</time>
      </trkpt>
      <trkpt lat="46.3" lon="10.50637">
        <ele>1695.42</ele>
        <time>2012-07-29T10:30:41Z</time>
      </trkpt>
      <trkpt lat="46.30057" lon="10.50543">
        <ele>1686.77</ele>
        <time>2012-07-29T10:30:48Z</time>
      </trkpt>
      <trkpt lat="46.30074" lon="10.50472">
        <ele>1682.44</ele>
        <time>2012-07-29T10:30:52Z</time>
      </trkpt>
      <trkpt lat="46.30094" lon="10.50426">
        <ele>1677.64</ele>
        <time>2012-07-29T10:30:55Z</time>
      </trkpt>
      <trkpt lat="46.30144" lon="10.50356">
        <ele>1671.87</ele>
        <time>2012-07-29T10:31:01Z</time>
      </trkpt>
      <trkpt lat="46.3016" lon="10.50273">
        <ele>1664.18</ele>
        <time>2012-07-29T10:31:13Z</time>
      </trkpt>
      <trkpt lat="46.30084" lon="10.50364">
        <ele>1658.41</ele>
        <time>2012-07-29T10:31:23Z</time>
      </trkpt>
      <trkpt lat="46.29838" lon="10.5056">
        <ele>1637.26</ele>
        <time>2012-07-29T10:31:43Z</time>
      </trkpt>
      <trkpt lat="46.29752" lon="10.50605">
        <ele>1628.61</ele>
        <time>2012-07-29T10:31:47Z</time>
      </trkpt>
      <trkpt lat="46.29667" lon="10.50618">
        <ele>1621.4</ele>
        <time>2012-07-29T10:31:53Z</time>
      </trkpt>
      <trkpt lat="46.29562" lon="10.50692">
        <ele>1619.96</ele>
        <time>2012-07-29T10:32:02Z</time>
      </trkpt>
      <trkpt lat="46.29418" lon="10.50758">
        <ele>1613.71</ele>
        <time>2012-07-29T10:32:13Z</time>
      </trkpt>
      <trkpt lat="46.2933" lon="10.5085">
        <ele>1606.5</ele>
        <time>2012-07-29T10:32:20Z</time>
      </trkpt>
      <trkpt lat="46.29276" lon="10.50903">
        <ele>1599.77</ele>
        <time>2012-07-29T10:32:24Z</time>
      </trkpt>
      <trkpt lat="46.29244" lon="10.51004">
        <ele>1594.96</ele>
        <time>2012-07-29T10:32:29Z</time>
      </trkpt>
      <trkpt lat="46.29227" lon="10.51077">
        <ele>1590.64</ele>
        <time>2012-07-29T10:32:32Z</time>
      </trkpt>
      <trkpt lat="46.29209" lon="10.51136">
        <ele>1584.87</ele>
        <time>2012-07-29T10:32:35Z</time>
      </trkpt>
      <trkpt lat="46.29126" lon="10.51236">
        <ele>1577.66</ele>
        <time>2012-07-29T10:32:42Z</time>
      </trkpt>
      <trkpt lat="46.29039" lon="10.51279">
        <ele>1567.57</ele>
        <time>2012-07-29T10:32:48Z</time>
      </trkpt>
      <trkpt lat="46.2899" lon="10.51353">
        <ele>1562.76</ele>
        <time>2012-07-29T10:32:53Z</time>
      </trkpt>
      <trkpt lat="46.28961" lon="10.5142">
        <ele>1554.59</ele>
        <time>2012-07-29T10:32:58Z</time>
      </trkpt>
      <trkpt lat="46.28868" lon="10.51552">
        <ele>1545.46</ele>
        <time>2012-07-29T10:33:09Z</time>
      </trkpt>
      <trkpt lat="46.28816" lon="10.51596">
        <ele>1538.25</ele>
        <time>2012-07-29T10:33:15Z</time>
      </trkpt>
      <trkpt lat="46.28809" lon="10.51651">
        <ele>1533.92</ele>
        <time>2012-07-29T10:33:19Z</time>
      </trkpt>
      <trkpt lat="46.28778" lon="10.51704">
        <ele>1531.04</ele>
        <time>2012-07-29T10:33:22Z</time>
      </trkpt>
      <trkpt lat="46.28754" lon="10.5174">
        <ele>1528.15</ele>
        <time>2012-07-29T10:33:25Z</time>
      </trkpt>
      <trkpt lat="46.28695" lon="10.51851">
        <ele>1519.5</ele>
        <time>2012-07-29T10:33:32Z</time>
      </trkpt>
      <trkpt lat="46.28453" lon="10.52034">
        <ele>1492.1</ele>
        <time>2012-07-29T10:33:52Z</time>
      </trkpt>
      <trkpt lat="46.2843" lon="10.52059">
        <ele>1485.37</ele>
        <time>2012-07-29T10:33:56Z</time>
      </trkpt>
      <trkpt lat="46.28422" lon="10.52035">
        <ele>1482.97</ele>
        <time>2012-07-29T10:34:00Z</time>
      </trkpt>
      <trkpt lat="46.28471" lon="10.51914">
        <ele>1479.13</ele>
        <time>2012-07-29T10:34:09Z</time>
      </trkpt>
      <trkpt lat="46.28492" lon="10.51832">
        <ele>1472.88</ele>
        <time>2012-07-29T10:34:14Z</time>
      </trkpt>
      <trkpt lat="46.28584" lon="10.51791">
        <ele>1473.84</ele>
        <time>2012-07-29T10:34:22Z</time>
      </trkpt>
      <trkpt lat="46.28599" lon="10.51769">
        <ele>1473.36</ele>
        <time>2012-07-29T10:34:24Z</time>
      </trkpt>
      <trkpt lat="46.28606" lon="10.51748">
        <ele>1472.4</ele>
        <time>2012-07-29T10:34:26Z</time>
      </trkpt>
      <trkpt lat="46.2859" lon="10.5172">
        <ele>1471.92</ele>
        <time>2012-07-29T10:34:29Z</time>
      </trkpt>
      <trkpt lat="46.28383" lon="10.51779">
        <ele>1457.98</ele>
        <time>2012-07-29T10:34:46Z</time>
      </trkpt>
      <trkpt lat="46.28307" lon="10.51851">
        <ele>1453.65</ele>
        <time>2012-07-29T10:34:53Z</time>
      </trkpt>
      <trkpt lat="46.28257" lon="10.51861">
        <ele>1453.17</ele>
        <time>2012-07-29T10:34:56Z</time>
      </trkpt>
      <trkpt lat="46.28184" lon="10.51856">
        <ele>1448.36</ele>
        <time>2012-07-29T10:35:00Z</time>
      </trkpt>
      <trkpt lat="46.28118" lon="10.51837">
        <ele>1440.67</ele>
        <time>2012-07-29T10:35:05Z</time>
      </trkpt>
      <trkpt lat="46.28034" lon="10.51846">
        <ele>1436.83</ele>
        <time>2012-07-29T10:35:11Z</time>
      </trkpt>
      <trkpt lat="46.27986" lon="10.51856">
        <ele>1433.46</ele>
        <time>2012-07-29T10:35:15Z</time>
      </trkpt>
      <trkpt lat="46.27856" lon="10.51935">
        <ele>1426.73</ele>
        <time>2012-07-29T10:35:29Z</time>
      </trkpt>
      <trkpt lat="46.27765" lon="10.51913">
        <ele>1423.85</ele>
        <time>2012-07-29T10:35:37Z</time>
      </trkpt>
      <trkpt lat="46.27666" lon="10.51906">
        <ele>1418.08</ele>
        <time>2012-07-29T10:35:46Z</time>
      </trkpt>
      <trkpt lat="46.27582" lon="10.51934">
        <ele>1414.72</ele>
        <time>2012-07-29T10:35:54Z</time>
      </trkpt>
      <trkpt lat="46.2754" lon="10.51945">
        <ele>1412.31</ele>
        <time>2012-07-29T10:35:58Z</time>
      </trkpt>
      <trkpt lat="46.27339" lon="10.51892">
        <ele>1403.18</ele>
        <time>2012-07-29T10:36:17Z</time>
      </trkpt>
      <trkpt lat="46.27305" lon="10.51898">
        <ele>1399.82</ele>
        <time>2012-07-29T10:36:21Z</time>
      </trkpt>
      <trkpt lat="46.27252" lon="10.51809">
        <ele>1399.34</ele>
        <time>2012-07-29T10:36:29Z</time>
      </trkpt>
      <trkpt lat="46.27191" lon="10.51744">
        <ele>1396.45</ele>
        <time>2012-07-29T10:36:34Z</time>
      </trkpt>
      <trkpt lat="46.27135" lon="10.51717">
        <ele>1394.05</ele>
        <time>2012-07-29T10:36:37Z</time>
      </trkpt>
      <trkpt lat="46.26985" lon="10.51718">
        <ele>1387.8</ele>
        <time>2012-07-29T10:36:45Z</time>
      </trkpt>
      <trkpt lat="46.26874" lon="10.51738">
        <ele>1379.63</ele>
        <time>2012-07-29T10:36:51Z</time>
      </trkpt>
      <trkpt lat="46.26768" lon="10.51723">
        <ele>1374.34</ele>
        <time>2012-07-29T10:36:58Z</time>
      </trkpt>
      <trkpt lat="46.26694" lon="10.51744">
        <ele>1365.21</ele>
        <time>2012-07-29T10:37:03Z</time>
      </trkpt>
      <trkpt lat="46.2658" lon="10.51701">
        <ele>1359.92</ele>
        <time>2012-07-29T10:37:12Z</time>
      </trkpt>
      <trkpt lat="46.26475" lon="10.51724">
        <ele>1360.4</ele>
        <time>2012-07-29T10:37:20Z</time>
      </trkpt>
      <trkpt lat="46.26427" lon="10.5176">
        <ele>1361.84</ele>
        <time>2012-07-29T10:37:25Z</time>
      </trkpt>
      <trkpt lat="46.26238" lon="10.51664">
        <ele>1367.13</ele>
        <time>2012-07-29T10:37:41Z</time>
      </trkpt>
      <trkpt lat="46.26098" lon="10.51722">
        <ele>1378.19</ele>
        <time>2012-07-29T10:37:51Z</time>
      </trkpt>
      <trkpt lat="46.26001" lon="10.51668">
        <ele>1383.47</ele>
        <time>2012-07-29T10:37:59Z</time>
      </trkpt>
      <trkpt lat="46.25891" lon="10.51692">
        <ele>1390.68</ele>
        <time>2012-07-29T10:38:07Z</time>
      </trkpt>
      <trkpt lat="46.25846" lon="10.51735">
        <ele>1394.05</ele>
        <time>2012-07-29T10:38:11Z</time>
      </trkpt>
      <trkpt lat="46.25823" lon="10.51787">
        <ele>1397.89</ele>
        <time>2012-07-29T10:38:14Z</time>
      </trkpt>
      <trkpt lat="46.25689" lon="10.52059">
        <ele>1415.2</ele>
        <time>2012-07-29T10:38:29Z</time>
      </trkpt>
      <trkpt lat="46.25672" lon="10.52096">
        <ele>1416.64</ele>
        <time>2012-07-29T10:38:31Z</time>
      </trkpt>
      <trkpt lat="46.25631" lon="10.52275">
        <ele>1424.33</ele>
        <time>2012-07-29T10:38:49Z</time>
      </trkpt>
      <trkpt lat="46.25659" lon="10.52281">
        <ele>1424.33</ele>
        <time>2012-07-29T10:39:06Z</time>
      </trkpt>
      <trkpt lat="46.2572" lon="10.52192">
        <ele>1433.46</ele>
        <time>2012-07-29T10:39:14Z</time>
      </trkpt>
      <trkpt lat="46.25768" lon="10.52125">
        <ele>1437.31</ele>
        <time>2012-07-29T10:39:19Z</time>
      </trkpt>
      <trkpt lat="46.25846" lon="10.52054">
        <ele>1440.19</ele>
        <time>2012-07-29T10:39:30Z</time>
      </trkpt>
      <trkpt lat="46.2585" lon="10.52084">
        <ele>1440.67</ele>
        <time>2012-07-29T10:39:34Z</time>
      </trkpt>
      <trkpt lat="46.25787" lon="10.52174">
        <ele>1447.88</ele>
        <time>2012-07-29T10:39:44Z</time>
      </trkpt>
      <trkpt lat="46.25722" lon="10.52327">
        <ele>1464.71</ele>
        <time>2012-07-29T10:40:03Z</time>
      </trkpt>
      <trkpt lat="46.25826" lon="10.52197">
        <ele>1474.8</ele>
        <time>2012-07-29T10:40:12Z</time>
      </trkpt>
      <trkpt lat="46.2595" lon="10.52079">
        <ele>1486.34</ele>
        <time>2012-07-29T10:40:21Z</time>
      </trkpt>
      <trkpt lat="46.26055" lon="10.52018">
        <ele>1493.55</ele>
        <time>2012-07-29T10:40:28Z</time>
      </trkpt>
      <trkpt lat="46.26072" lon="10.52016">
        <ele>1494.03</ele>
        <time>2012-07-29T10:40:29Z</time>
      </trkpt>
      <trkpt lat="46.2612" lon="10.52027">
        <ele>1499.79</ele>
        <time>2012-07-29T10:40:32Z</time>
      </trkpt>
      <trkpt lat="46.26308" lon="10.52126">
        <ele>1513.73</ele>
        <time>2012-07-29T10:40:43Z</time>
      </trkpt>
      <trkpt lat="46.26419" lon="10.52196">
        <ele>1514.69</ele>
        <time>2012-07-29T10:40:54Z</time>
      </trkpt>
      <trkpt lat="46.26343" lon="10.52154">
        <ele>1524.31</ele>
        <time>2012-07-29T10:41:02Z</time>
      </trkpt>
      <trkpt lat="46.26152" lon="10.52094">
        <ele>1535.84</ele>
        <time>2012-07-29T10:41:14Z</time>
      </trkpt>
      <trkpt lat="46.2605" lon="10.52137">
        <ele>1544.01</ele>
        <time>2012-07-29T10:41:21Z</time>
      </trkpt>
      <trkpt lat="46.25982" lon="10.52234">
        <ele>1551.71</ele>
        <time>2012-07-29T10:41:27Z</time>
      </trkpt>
      <trkpt lat="46.25893" lon="10.52389">
        <ele>1561.32</ele>
        <time>2012-07-29T10:41:36Z</time>
      </trkpt>
      <trkpt lat="46.25878" lon="10.52513">
        <ele>1569.01</ele>
        <time>2012-07-29T10:41:42Z</time>
      </trkpt>
      <trkpt lat="46.25864" lon="10.52597">
        <ele>1571.41</ele>
        <time>2012-07-29T10:41:46Z</time>
      </trkpt>
      <trkpt lat="46.25876" lon="10.52685">
        <ele>1577.66</ele>
        <time>2012-07-29T10:41:51Z</time>
      </trkpt>
      <trkpt lat="46.25889" lon="10.52761">
        <ele>1581.03</ele>
        <time>2012-07-29T10:41:58Z</time>
      </trkpt>
      <trkpt lat="46.25883" lon="10.5276">
        <ele>1583.43</ele>
        <time>2012-07-29T10:42:00Z</time>
      </trkpt>
      <trkpt lat="46.2587" lon="10.52757">
        <ele>1583.91</ele>
        <time>2012-07-29T10:42:01Z</time>
      </trkpt>
      <trkpt lat="46.25832" lon="10.52754">
        <ele>1585.35</ele>
        <time>2012-07-29T10:42:04Z</time>
      </trkpt>
      <trkpt lat="46.25819" lon="10.52757">
        <ele>1586.79</ele>
        <time>2012-07-29T10:42:05Z</time>
      </trkpt>
      <trkpt lat="46.25759" lon="10.52772">
        <ele>1589.68</ele>
        <time>2012-07-29T10:42:09Z</time>
      </trkpt>
      <trkpt lat="46.25707" lon="10.52822">
        <ele>1594.48</ele>
        <time>2012-07-29T10:42:14Z</time>
      </trkpt>
      <trkpt lat="46.25604" lon="10.52847">
        <ele>1600.73</ele>
        <time>2012-07-29T10:42:22Z</time>
      </trkpt>
      <trkpt lat="46.25586" lon="10.52869">
        <ele>1603.62</ele>
        <time>2012-07-29T10:42:25Z</time>
      </trkpt>
      <trkpt lat="46.2556" lon="10.52944">
        <ele>1606.02</ele>
        <time>2012-07-29T10:42:30Z</time>
      </trkpt>
      <trkpt lat="46.25499" lon="10.52975">
        <ele>1608.42</ele>
        <time>2012-07-29T10:42:35Z</time>
      </trkpt>
      <trkpt lat="46.25463" lon="10.53043">
        <ele>1611.79</ele>
        <time>2012-07-29T10:42:39Z</time>
      </trkpt>
      <trkpt lat="46.25419" lon="10.53288">
        <ele>1625.25</ele>
        <time>2012-07-29T10:42:50Z</time>
      </trkpt>
      <trkpt lat="46.2541" lon="10.53437">
        <ele>1632.94</ele>
        <time>2012-07-29T10:42:57Z</time>
      </trkpt>
      <trkpt lat="46.25418" lon="10.53498">
        <ele>1634.38</ele>
        <time>2012-07-29T10:43:01Z</time>
      </trkpt>
      <trkpt lat="46.25375" lon="10.5355">
        <ele>1639.67</ele>
        <time>2012-07-29T10:43:06Z</time>
      </trkpt>
      <trkpt lat="46.25324" lon="10.53615">
        <ele>1640.63</ele>
        <time>2012-07-29T10:43:11Z</time>
      </trkpt>
      <trkpt lat="46.25288" lon="10.53744">
        <ele>1644.47</ele>
        <time>2012-07-29T10:43:19Z</time>
      </trkpt>
      <trkpt lat="46.25265" lon="10.53855">
        <ele>1646.4</ele>
        <time>2012-07-29T10:43:28Z</time>
      </trkpt>
      <trkpt lat="46.2526" lon="10.54012">
        <ele>1652.16</ele>
        <time>2012-07-29T10:43:41Z</time>
      </trkpt>
      <trkpt lat="46.25323" lon="10.54239">
        <ele>1664.18</ele>
        <time>2012-07-29T10:43:55Z</time>
      </trkpt>
      <trkpt lat="46.25336" lon="10.54329">
        <ele>1668.51</ele>
        <time>2012-07-29T10:44:00Z</time>
      </trkpt>
      <trkpt lat="46.25341" lon="10.54425">
        <ele>1671.87</ele>
        <time>2012-07-29T10:44:06Z</time>
      </trkpt>
      <trkpt lat="46.25363" lon="10.54451">
        <ele>1675.23</ele>
        <time>2012-07-29T10:44:10Z</time>
      </trkpt>
      <trkpt lat="46.25386" lon="10.54411">
        <ele>1678.6</ele>
        <time>2012-07-29T10:44:14Z</time>
      </trkpt>
      <trkpt lat="46.25386" lon="10.54284">
        <ele>1685.33</ele>
        <time>2012-07-29T10:44:21Z</time>
      </trkpt>
      <trkpt lat="46.25395" lon="10.54158">
        <ele>1691.1</ele>
        <time>2012-07-29T10:44:28Z</time>
      </trkpt>
      <trkpt lat="46.25389" lon="10.54105">
        <ele>1692.54</ele>
        <time>2012-07-29T10:44:34Z</time>
      </trkpt>
      <trkpt lat="46.25427" lon="10.54211">
        <ele>1700.23</ele>
        <time>2012-07-29T10:44:42Z</time>
      </trkpt>
      <trkpt lat="46.25456" lon="10.54294">
        <ele>1703.11</ele>
        <time>2012-07-29T10:44:47Z</time>
      </trkpt>
      <trkpt lat="46.25438" lon="10.54371">
        <ele>1708.4</ele>
        <time>2012-07-29T10:44:52Z</time>
      </trkpt>
      <trkpt lat="46.25443" lon="10.54402">
        <ele>1709.84</ele>
        <time>2012-07-29T10:44:54Z</time>
      </trkpt>
      <trkpt lat="46.25501" lon="10.54504">
        <ele>1717.05</ele>
        <time>2012-07-29T10:45:01Z</time>
      </trkpt>
      <trkpt lat="46.25522" lon="10.54596">
        <ele>1721.86</ele>
        <time>2012-07-29T10:45:07Z</time>
      </trkpt>
      <trkpt lat="46.2555" lon="10.54655">
        <ele>1723.78</ele>
        <time>2012-07-29T10:45:11Z</time>
      </trkpt>
      <trkpt lat="46.25539" lon="10.5473">
        <ele>1729.55</ele>
        <time>2012-07-29T10:45:16Z</time>
      </trkpt>
      <trkpt lat="46.25562" lon="10.54907">
        <ele>1740.6</ele>
        <time>2012-07-29T10:45:25Z</time>
      </trkpt>
      <trkpt lat="46.25568" lon="10.54987">
        <ele>1743.97</ele>
        <time>2012-07-29T10:45:29Z</time>
      </trkpt>
      <trkpt lat="46.25512" lon="10.55178">
        <ele>1755.5</ele>
        <time>2012-07-29T10:45:40Z</time>
      </trkpt>
      <trkpt lat="46.25517" lon="10.55357">
        <ele>1763.2</ele>
        <time>2012-07-29T10:45:49Z</time>
      </trkpt>
      <trkpt lat="46.25544" lon="10.55406">
        <ele>1766.56</ele>
        <time>2012-07-29T10:45:52Z</time>
      </trkpt>
      <trkpt lat="46.25584" lon="10.55444">
        <ele>1769.92</ele>
        <time>2012-07-29T10:45:55Z</time>
      </trkpt>
      <trkpt lat="46.25632" lon="10.55489">
        <ele>1772.81</ele>
        <time>2012-07-29T10:45:59Z</time>
      </trkpt>
      <trkpt lat="46.25641" lon="10.55507">
        <ele>1773.29</ele>
        <time>2012-07-29T10:46:00Z</time>
      </trkpt>
      <trkpt lat="46.25716" lon="10.55803">
        <ele>1790.11</ele>
        <time>2012-07-29T10:46:14Z</time>
      </trkpt>
      <trkpt lat="46.25719" lon="10.55824">
        <ele>1790.11</ele>
        <time>2012-07-29T10:46:15Z</time>
      </trkpt>
      <trkpt lat="46.25719" lon="10.56112">
        <ele>1806.45</ele>
        <time>2012-07-29T10:46:29Z</time>
      </trkpt>
      <trkpt lat="46.25768" lon="10.56301">
        <ele>1809.34</ele>
        <time>2012-07-29T10:46:39Z</time>
      </trkpt>
      <trkpt lat="46.25759" lon="10.56327">
        <ele>1810.3</ele>
        <time>2012-07-29T10:46:41Z</time>
      </trkpt>
      <trkpt lat="46.25731" lon="10.56344">
        <ele>1814.15</ele>
        <time>2012-07-29T10:46:44Z</time>
      </trkpt>
      <trkpt lat="46.25712" lon="10.56333">
        <ele>1816.55</ele>
        <time>2012-07-29T10:46:46Z</time>
      </trkpt>
      <trkpt lat="46.25698" lon="10.56305">
        <ele>1818.95</ele>
        <time>2012-07-29T10:46:48Z</time>
      </trkpt>
      <trkpt lat="46.2567" lon="10.5626">
        <ele>1822.32</ele>
        <time>2012-07-29T10:46:51Z</time>
      </trkpt>
      <trkpt lat="46.25645" lon="10.5625">
        <ele>1824.24</ele>
        <time>2012-07-29T10:46:53Z</time>
      </trkpt>
      <trkpt lat="46.25601" lon="10.56291">
        <ele>1828.56</ele>
        <time>2012-07-29T10:46:57Z</time>
      </trkpt>
      <trkpt lat="46.25555" lon="10.56384">
        <ele>1835.77</ele>
        <time>2012-07-29T10:47:02Z</time>
      </trkpt>
      <trkpt lat="46.25529" lon="10.5653">
        <ele>1840.1</ele>
        <time>2012-07-29T10:47:09Z</time>
      </trkpt>
      <trkpt lat="46.25531" lon="10.5655">
        <ele>1840.58</ele>
        <time>2012-07-29T10:47:10Z</time>
      </trkpt>
      <trkpt lat="46.25615" lon="10.56717">
        <ele>1851.64</ele>
        <time>2012-07-29T10:47:20Z</time>
      </trkpt>
      <trkpt lat="46.25651" lon="10.56783">
        <ele>1855</ele>
        <time>2012-07-29T10:47:24Z</time>
      </trkpt>
      <trkpt lat="46.25691" lon="10.56895">
        <ele>1858.85</ele>
        <time>2012-07-29T10:47:29Z</time>
      </trkpt>
      <trkpt lat="46.25706" lon="10.57289">
        <ele>1875.67</ele>
        <time>2012-07-29T10:47:52Z</time>
      </trkpt>
      <trkpt lat="46.25761" lon="10.57805">
        <ele>1899.7</ele>
        <time>2012-07-29T10:48:22Z</time>
      </trkpt>
      <trkpt lat="46.25811" lon="10.58222">
        <ele>1900.66</ele>
        <time>2012-07-29T10:48:46Z</time>
      </trkpt>
      <trkpt lat="46.25836" lon="10.58286">
        <ele>1898.74</ele>
        <time>2012-07-29T10:48:52Z</time>
      </trkpt>
      <trkpt lat="46.25846" lon="10.58284">
        <ele>1899.22</ele>
        <time>2012-07-29T10:49:21Z</time>
      </trkpt>
      <trkpt lat="46.25838" lon="10.58268">
        <ele>1900.66</ele>
        <time>2012-07-29T10:49:23Z</time>
      </trkpt>
      <trkpt lat="46.25812" lon="10.58209">
        <ele>1900.66</ele>
        <time>2012-07-29T10:49:30Z</time>
      </trkpt>
      <trkpt lat="46.25797" lon="10.58203">
        <ele>1900.66</ele>
        <time>2012-07-29T10:49:35Z</time>
      </trkpt>
      <trkpt lat="46.25782" lon="10.58221">
        <ele>1898.74</ele>
        <time>2012-07-29T10:49:42Z</time>
      </trkpt>
      <trkpt lat="46.25822" lon="10.58246">
        <ele>1895.38</ele>
        <time>2012-07-29T11:28:10Z</time>
      </trkpt>
      <trkpt lat="46.25957" lon="10.58527">
        <ele>1889.13</ele>
        <time>2012-07-29T11:28:38Z</time>
      </trkpt>
      <trkpt lat="46.25998" lon="10.5865">
        <ele>1887.21</ele>
        <time>2012-07-29T11:28:47Z</time>
      </trkpt>
      <trkpt lat="46.26037" lon="10.58795">
        <ele>1883.36</ele>
        <time>2012-07-29T11:28:56Z</time>
      </trkpt>
      <trkpt lat="46.26062" lon="10.5898">
        <ele>1880.48</ele>
        <time>2012-07-29T11:29:06Z</time>
      </trkpt>
      <trkpt lat="46.26075" lon="10.59213">
        <ele>1875.19</ele>
        <time>2012-07-29T11:29:17Z</time>
      </trkpt>
      <trkpt lat="46.26097" lon="10.59269">
        <ele>1873.27</ele>
        <time>2012-07-29T11:29:20Z</time>
      </trkpt>
      <trkpt lat="46.26125" lon="10.59291">
        <ele>1873.27</ele>
        <time>2012-07-29T11:29:22Z</time>
      </trkpt>
      <trkpt lat="46.26164" lon="10.59306">
        <ele>1870.38</ele>
        <time>2012-07-29T11:29:25Z</time>
      </trkpt>
      <trkpt lat="46.26186" lon="10.59344">
        <ele>1867.98</ele>
        <time>2012-07-29T11:29:28Z</time>
      </trkpt>
      <trkpt lat="46.26183" lon="10.59378">
        <ele>1867.5</ele>
        <time>2012-07-29T11:29:30Z</time>
      </trkpt>
      <trkpt lat="46.26155" lon="10.59418">
        <ele>1866.54</ele>
        <time>2012-07-29T11:29:33Z</time>
      </trkpt>
      <trkpt lat="46.2611" lon="10.5949">
        <ele>1864.13</ele>
        <time>2012-07-29T11:29:38Z</time>
      </trkpt>
      <trkpt lat="46.26096" lon="10.59544">
        <ele>1862.21</ele>
        <time>2012-07-29T11:29:41Z</time>
      </trkpt>
      <trkpt lat="46.26112" lon="10.59613">
        <ele>1860.77</ele>
        <time>2012-07-29T11:29:45Z</time>
      </trkpt>
      <trkpt lat="46.26137" lon="10.59679">
        <ele>1857.4</ele>
        <time>2012-07-29T11:29:49Z</time>
      </trkpt>
      <trkpt lat="46.2612" lon="10.59738">
        <ele>1856.92</ele>
        <time>2012-07-29T11:29:52Z</time>
      </trkpt>
      <trkpt lat="46.26095" lon="10.59801">
        <ele>1852.6</ele>
        <time>2012-07-29T11:29:56Z</time>
      </trkpt>
      <trkpt lat="46.26107" lon="10.59927">
        <ele>1851.16</ele>
        <time>2012-07-29T11:30:04Z</time>
      </trkpt>
      <trkpt lat="46.26095" lon="10.60028">
        <ele>1846.83</ele>
        <time>2012-07-29T11:30:10Z</time>
      </trkpt>
      <trkpt lat="46.26115" lon="10.60092">
        <ele>1845.39</ele>
        <time>2012-07-29T11:30:14Z</time>
      </trkpt>
      <trkpt lat="46.26058" lon="10.60462">
        <ele>1838.66</ele>
        <time>2012-07-29T11:30:30Z</time>
      </trkpt>
      <trkpt lat="46.26043" lon="10.60557">
        <ele>1835.29</ele>
        <time>2012-07-29T11:30:34Z</time>
      </trkpt>
      <trkpt lat="46.26051" lon="10.6077">
        <ele>1830.01</ele>
        <time>2012-07-29T11:30:43Z</time>
      </trkpt>
      <trkpt lat="46.26127" lon="10.60913">
        <ele>1823.28</ele>
        <time>2012-07-29T11:30:51Z</time>
      </trkpt>
      <trkpt lat="46.26142" lon="10.60975">
        <ele>1822.32</ele>
        <time>2012-07-29T11:30:54Z</time>
      </trkpt>
      <trkpt lat="46.2616" lon="10.61032">
        <ele>1817.99</ele>
        <time>2012-07-29T11:30:57Z</time>
      </trkpt>
      <trkpt lat="46.26201" lon="10.61096">
        <ele>1814.63</ele>
        <time>2012-07-29T11:31:01Z</time>
      </trkpt>
      <trkpt lat="46.2624" lon="10.6113">
        <ele>1812.22</ele>
        <time>2012-07-29T11:31:04Z</time>
      </trkpt>
      <trkpt lat="46.26355" lon="10.61182">
        <ele>1802.61</ele>
        <time>2012-07-29T11:31:12Z</time>
      </trkpt>
      <trkpt lat="46.26411" lon="10.61192">
        <ele>1795.88</ele>
        <time>2012-07-29T11:31:16Z</time>
      </trkpt>
      <trkpt lat="46.26449" lon="10.61224">
        <ele>1793.96</ele>
        <time>2012-07-29T11:31:19Z</time>
      </trkpt>
      <trkpt lat="46.26518" lon="10.61431">
        <ele>1784.82</ele>
        <time>2012-07-29T11:31:29Z</time>
      </trkpt>
      <trkpt lat="46.26551" lon="10.61504">
        <ele>1776.17</ele>
        <time>2012-07-29T11:31:34Z</time>
      </trkpt>
      <trkpt lat="46.26592" lon="10.61505">
        <ele>1774.25</ele>
        <time>2012-07-29T11:31:39Z</time>
      </trkpt>
      <trkpt lat="46.26642" lon="10.61472">
        <ele>1769.92</ele>
        <time>2012-07-29T11:31:45Z</time>
      </trkpt>
      <trkpt lat="46.26677" lon="10.61507">
        <ele>1765.12</ele>
        <time>2012-07-29T11:31:49Z</time>
      </trkpt>
      <trkpt lat="46.2673" lon="10.61499">
        <ele>1760.79</ele>
        <time>2012-07-29T11:31:55Z</time>
      </trkpt>
      <trkpt lat="46.26763" lon="10.61525">
        <ele>1758.39</ele>
        <time>2012-07-29T11:32:00Z</time>
      </trkpt>
      <trkpt lat="46.26847" lon="10.61479">
        <ele>1750.7</ele>
        <time>2012-07-29T11:32:10Z</time>
      </trkpt>
      <trkpt lat="46.26886" lon="10.61519">
        <ele>1748.78</ele>
        <time>2012-07-29T11:32:15Z</time>
      </trkpt>
      <trkpt lat="46.26814" lon="10.61684">
        <ele>1747.33</ele>
        <time>2012-07-29T11:32:17Z</time>
      </trkpt>
      <trkpt lat="46.26808" lon="10.61725">
        <ele>1746.37</ele>
        <time>2012-07-29T11:32:19Z</time>
      </trkpt>
      <trkpt lat="46.26778" lon="10.61914">
        <ele>1731.95</ele>
        <time>2012-07-29T11:32:30Z</time>
      </trkpt>
      <trkpt lat="46.26783" lon="10.61982">
        <ele>1728.11</ele>
        <time>2012-07-29T11:32:35Z</time>
      </trkpt>
      <trkpt lat="46.26826" lon="10.62007">
        <ele>1723.3</ele>
        <time>2012-07-29T11:32:41Z</time>
      </trkpt>
      <trkpt lat="46.2698" lon="10.61968">
        <ele>1713.69</ele>
        <time>2012-07-29T11:33:00Z</time>
      </trkpt>
      <trkpt lat="46.27" lon="10.61983">
        <ele>1711.76</ele>
        <time>2012-07-29T11:33:05Z</time>
      </trkpt>
      <trkpt lat="46.26964" lon="10.62046">
        <ele>1708.4</ele>
        <time>2012-07-29T11:33:07Z</time>
      </trkpt>
      <trkpt lat="46.26919" lon="10.62177">
        <ele>1703.59</ele>
        <time>2012-07-29T11:33:14Z</time>
      </trkpt>
      <trkpt lat="46.26911" lon="10.62199">
        <ele>1701.67</ele>
        <time>2012-07-29T11:33:16Z</time>
      </trkpt>
      <trkpt lat="46.26931" lon="10.62299">
        <ele>1697.34</ele>
        <time>2012-07-29T11:33:23Z</time>
      </trkpt>
      <trkpt lat="46.26968" lon="10.62338">
        <ele>1693.98</ele>
        <time>2012-07-29T11:33:28Z</time>
      </trkpt>
      <trkpt lat="46.2704" lon="10.62531">
        <ele>1682.93</ele>
        <time>2012-07-29T11:33:40Z</time>
      </trkpt>
      <trkpt lat="46.27103" lon="10.62633">
        <ele>1679.08</ele>
        <time>2012-07-29T11:33:47Z</time>
      </trkpt>
      <trkpt lat="46.27164" lon="10.62727">
        <ele>1671.39</ele>
        <time>2012-07-29T11:33:53Z</time>
      </trkpt>
      <trkpt lat="46.2719" lon="10.6279">
        <ele>1667.54</ele>
        <time>2012-07-29T11:33:57Z</time>
      </trkpt>
      <trkpt lat="46.27263" lon="10.62864">
        <ele>1660.81</ele>
        <time>2012-07-29T11:34:05Z</time>
      </trkpt>
      <trkpt lat="46.27289" lon="10.62944">
        <ele>1657.45</ele>
        <time>2012-07-29T11:34:10Z</time>
      </trkpt>
      <trkpt lat="46.27422" lon="10.63137">
        <ele>1644.47</ele>
        <time>2012-07-29T11:34:23Z</time>
      </trkpt>
      <trkpt lat="46.27649" lon="10.63589">
        <ele>1619.96</ele>
        <time>2012-07-29T11:34:46Z</time>
      </trkpt>
      <trkpt lat="46.27788" lon="10.63838">
        <ele>1602.66</ele>
        <time>2012-07-29T11:35:02Z</time>
      </trkpt>
      <trkpt lat="46.27867" lon="10.63941">
        <ele>1595.45</ele>
        <time>2012-07-29T11:35:10Z</time>
      </trkpt>
      <trkpt lat="46.27879" lon="10.63973">
        <ele>1594</ele>
        <time>2012-07-29T11:35:12Z</time>
      </trkpt>
      <trkpt lat="46.2789" lon="10.64069">
        <ele>1587.27</ele>
        <time>2012-07-29T11:35:18Z</time>
      </trkpt>
      <trkpt lat="46.2791" lon="10.64107">
        <ele>1586.31</ele>
        <time>2012-07-29T11:35:21Z</time>
      </trkpt>
      <trkpt lat="46.27955" lon="10.64153">
        <ele>1581.03</ele>
        <time>2012-07-29T11:35:26Z</time>
      </trkpt>
      <trkpt lat="46.27965" lon="10.64221">
        <ele>1577.18</ele>
        <time>2012-07-29T11:35:31Z</time>
      </trkpt>
      <trkpt lat="46.28003" lon="10.64283">
        <ele>1569.97</ele>
        <time>2012-07-29T11:35:39Z</time>
      </trkpt>
      <trkpt lat="46.2793" lon="10.64321">
        <ele>1565.64</ele>
        <time>2012-07-29T11:35:49Z</time>
      </trkpt>
      <trkpt lat="46.27914" lon="10.64358">
        <ele>1563.24</ele>
        <time>2012-07-29T11:35:53Z</time>
      </trkpt>
      <trkpt lat="46.27966" lon="10.6447">
        <ele>1557.95</ele>
        <time>2012-07-29T11:36:02Z</time>
      </trkpt>
      <trkpt lat="46.27964" lon="10.64571">
        <ele>1549.78</ele>
        <time>2012-07-29T11:36:09Z</time>
      </trkpt>
      <trkpt lat="46.2798" lon="10.64641">
        <ele>1545.94</ele>
        <time>2012-07-29T11:36:15Z</time>
      </trkpt>
      <trkpt lat="46.27983" lon="10.64682">
        <ele>1543.05</ele>
        <time>2012-07-29T11:36:18Z</time>
      </trkpt>
      <trkpt lat="46.27976" lon="10.64743">
        <ele>1539.69</ele>
        <time>2012-07-29T11:36:23Z</time>
      </trkpt>
      <trkpt lat="46.28001" lon="10.64837">
        <ele>1540.65</ele>
        <time>2012-07-29T11:36:28Z</time>
      </trkpt>
      <trkpt lat="46.28018" lon="10.65017">
        <ele>1529.11</ele>
        <time>2012-07-29T11:36:35Z</time>
      </trkpt>
      <trkpt lat="46.28015" lon="10.65103">
        <ele>1521.42</ele>
        <time>2012-07-29T11:36:39Z</time>
      </trkpt>
      <trkpt lat="46.28036" lon="10.65162">
        <ele>1519.98</ele>
        <time>2012-07-29T11:36:42Z</time>
      </trkpt>
      <trkpt lat="46.28063" lon="10.6531">
        <ele>1510.37</ele>
        <time>2012-07-29T11:36:49Z</time>
      </trkpt>
      <trkpt lat="46.28099" lon="10.65367">
        <ele>1506.04</ele>
        <time>2012-07-29T11:36:53Z</time>
      </trkpt>
      <trkpt lat="46.28104" lon="10.6547">
        <ele>1502.2</ele>
        <time>2012-07-29T11:36:58Z</time>
      </trkpt>
      <trkpt lat="46.28113" lon="10.655">
        <ele>1497.87</ele>
        <time>2012-07-29T11:37:00Z</time>
      </trkpt>
      <trkpt lat="46.28144" lon="10.65532">
        <ele>1497.87</ele>
        <time>2012-07-29T11:37:04Z</time>
      </trkpt>
      <trkpt lat="46.28219" lon="10.6557">
        <ele>1491.14</ele>
        <time>2012-07-29T11:37:11Z</time>
      </trkpt>
      <trkpt lat="46.28206" lon="10.65693">
        <ele>1486.34</ele>
        <time>2012-07-29T11:37:16Z</time>
      </trkpt>
      <trkpt lat="46.28232" lon="10.65783">
        <ele>1478.16</ele>
        <time>2012-07-29T11:37:21Z</time>
      </trkpt>
      <trkpt lat="46.28271" lon="10.65817">
        <ele>1476.24</ele>
        <time>2012-07-29T11:37:26Z</time>
      </trkpt>
      <trkpt lat="46.28332" lon="10.65825">
        <ele>1469.99</ele>
        <time>2012-07-29T11:37:31Z</time>
      </trkpt>
      <trkpt lat="46.28352" lon="10.65887">
        <ele>1469.99</ele>
        <time>2012-07-29T11:37:35Z</time>
      </trkpt>
      <trkpt lat="46.28358" lon="10.65986">
        <ele>1459.42</ele>
        <time>2012-07-29T11:37:41Z</time>
      </trkpt>
      <trkpt lat="46.28379" lon="10.66045">
        <ele>1456.53</ele>
        <time>2012-07-29T11:37:45Z</time>
      </trkpt>
      <trkpt lat="46.28434" lon="10.66138">
        <ele>1449.32</ele>
        <time>2012-07-29T11:37:52Z</time>
      </trkpt>
      <trkpt lat="46.2849" lon="10.66159">
        <ele>1445</ele>
        <time>2012-07-29T11:37:59Z</time>
      </trkpt>
      <trkpt lat="46.28502" lon="10.66205">
        <ele>1445.48</ele>
        <time>2012-07-29T11:38:02Z</time>
      </trkpt>
      <trkpt lat="46.28538" lon="10.66284">
        <ele>1440.67</ele>
        <time>2012-07-29T11:38:06Z</time>
      </trkpt>
      <trkpt lat="46.2859" lon="10.66372">
        <ele>1437.31</ele>
        <time>2012-07-29T11:38:11Z</time>
      </trkpt>
      <trkpt lat="46.28628" lon="10.66458">
        <ele>1427.21</ele>
        <time>2012-07-29T11:38:16Z</time>
      </trkpt>
      <trkpt lat="46.28697" lon="10.66493">
        <ele>1421.93</ele>
        <time>2012-07-29T11:38:23Z</time>
      </trkpt>
      <trkpt lat="46.28709" lon="10.66562">
        <ele>1420</ele>
        <time>2012-07-29T11:38:27Z</time>
      </trkpt>
      <trkpt lat="46.28723" lon="10.666">
        <ele>1417.6</ele>
        <time>2012-07-29T11:38:29Z</time>
      </trkpt>
      <trkpt lat="46.28764" lon="10.66665">
        <ele>1413.28</ele>
        <time>2012-07-29T11:38:33Z</time>
      </trkpt>
      <trkpt lat="46.28799" lon="10.66698">
        <ele>1409.91</ele>
        <time>2012-07-29T11:38:36Z</time>
      </trkpt>
      <trkpt lat="46.28812" lon="10.66737">
        <ele>1408.47</ele>
        <time>2012-07-29T11:38:38Z</time>
      </trkpt>
      <trkpt lat="46.28828" lon="10.66817">
        <ele>1401.26</ele>
        <time>2012-07-29T11:38:42Z</time>
      </trkpt>
      <trkpt lat="46.28868" lon="10.66867">
        <ele>1396.93</ele>
        <time>2012-07-29T11:38:46Z</time>
      </trkpt>
      <trkpt lat="46.28892" lon="10.6697">
        <ele>1395.01</ele>
        <time>2012-07-29T11:38:51Z</time>
      </trkpt>
      <trkpt lat="46.28927" lon="10.67036">
        <ele>1391.17</ele>
        <time>2012-07-29T11:38:54Z</time>
      </trkpt>
      <trkpt lat="46.28973" lon="10.67145">
        <ele>1383.96</ele>
        <time>2012-07-29T11:38:59Z</time>
      </trkpt>
      <trkpt lat="46.29" lon="10.6726">
        <ele>1374.34</ele>
        <time>2012-07-29T11:39:05Z</time>
      </trkpt>
      <trkpt lat="46.29051" lon="10.6732">
        <ele>1371.46</ele>
        <time>2012-07-29T11:39:11Z</time>
      </trkpt>
      <trkpt lat="46.29065" lon="10.67421">
        <ele>1368.57</ele>
        <time>2012-07-29T11:39:16Z</time>
      </trkpt>
      <trkpt lat="46.29114" lon="10.67571">
        <ele>1363.29</ele>
        <time>2012-07-29T11:39:23Z</time>
      </trkpt>
      <trkpt lat="46.29121" lon="10.67599">
        <ele>1362.33</ele>
        <time>2012-07-29T11:39:24Z</time>
      </trkpt>
      <trkpt lat="46.29138" lon="10.67657">
        <ele>1359.92</ele>
        <time>2012-07-29T11:39:26Z</time>
      </trkpt>
      <trkpt lat="46.29201" lon="10.6783">
        <ele>1344.54</ele>
        <time>2012-07-29T11:39:33Z</time>
      </trkpt>
      <trkpt lat="46.29252" lon="10.67902">
        <ele>1338.77</ele>
        <time>2012-07-29T11:39:38Z</time>
      </trkpt>
      <trkpt lat="46.29302" lon="10.68035">
        <ele>1332.04</ele>
        <time>2012-07-29T11:39:45Z</time>
      </trkpt>
      <trkpt lat="46.29314" lon="10.68048">
        <ele>1331.08</ele>
        <time>2012-07-29T11:39:46Z</time>
      </trkpt>
      <trkpt lat="46.29347" lon="10.68106">
        <ele>1325.8</ele>
        <time>2012-07-29T11:39:50Z</time>
      </trkpt>
      <trkpt lat="46.29354" lon="10.68138">
        <ele>1322.43</ele>
        <time>2012-07-29T11:39:52Z</time>
      </trkpt>
      <trkpt lat="46.29373" lon="10.68155">
        <ele>1321.47</ele>
        <time>2012-07-29T11:39:54Z</time>
      </trkpt>
      <trkpt lat="46.29388" lon="10.68176">
        <ele>1318.1</ele>
        <time>2012-07-29T11:39:56Z</time>
      </trkpt>
      <trkpt lat="46.29394" lon="10.68248">
        <ele>1318.1</ele>
        <time>2012-07-29T11:40:00Z</time>
      </trkpt>
      <trkpt lat="46.29449" lon="10.68388">
        <ele>1307.05</ele>
        <time>2012-07-29T11:40:09Z</time>
      </trkpt>
      <trkpt lat="46.2946" lon="10.68592">
        <ele>1300.8</ele>
        <time>2012-07-29T11:40:22Z</time>
      </trkpt>
      <trkpt lat="46.29482" lon="10.68635">
        <ele>1299.84</ele>
        <time>2012-07-29T11:40:26Z</time>
      </trkpt>
      <trkpt lat="46.29541" lon="10.68687">
        <ele>1299.36</ele>
        <time>2012-07-29T11:40:33Z</time>
      </trkpt>
      <trkpt lat="46.29562" lon="10.68725">
        <ele>1299.84</ele>
        <time>2012-07-29T11:40:36Z</time>
      </trkpt>
      <trkpt lat="46.29654" lon="10.68864">
        <ele>1287.82</ele>
        <time>2012-07-29T11:40:49Z</time>
      </trkpt>
      <trkpt lat="46.2972" lon="10.6904">
        <ele>1278.21</ele>
        <time>2012-07-29T11:41:02Z</time>
      </trkpt>
      <trkpt lat="46.29719" lon="10.69138">
        <ele>1273.88</ele>
        <time>2012-07-29T11:41:09Z</time>
      </trkpt>
      <trkpt lat="46.29685" lon="10.69236">
        <ele>1268.12</ele>
        <time>2012-07-29T11:41:16Z</time>
      </trkpt>
      <trkpt lat="46.29711" lon="10.69464">
        <ele>1259.46</ele>
        <time>2012-07-29T11:41:29Z</time>
      </trkpt>
      <trkpt lat="46.29719" lon="10.69498">
        <ele>1256.1</ele>
        <time>2012-07-29T11:41:31Z</time>
      </trkpt>
      <trkpt lat="46.29804" lon="10.69662">
        <ele>1245.04</ele>
        <time>2012-07-29T11:41:42Z</time>
      </trkpt>
      <trkpt lat="46.29854" lon="10.69722">
        <ele>1240.24</ele>
        <time>2012-07-29T11:41:47Z</time>
      </trkpt>
      <trkpt lat="46.29922" lon="10.69804">
        <ele>1230.62</ele>
        <time>2012-07-29T11:41:54Z</time>
      </trkpt>
      <trkpt lat="46.29943" lon="10.6985">
        <ele>1229.66</ele>
        <time>2012-07-29T11:41:57Z</time>
      </trkpt>
      <trkpt lat="46.29953" lon="10.69994">
        <ele>1221.49</ele>
        <time>2012-07-29T11:42:05Z</time>
      </trkpt>
      <trkpt lat="46.29943" lon="10.70094">
        <ele>1215.24</ele>
        <time>2012-07-29T11:42:11Z</time>
      </trkpt>
      <trkpt lat="46.29955" lon="10.70132">
        <ele>1213.32</ele>
        <time>2012-07-29T11:42:14Z</time>
      </trkpt>
      <trkpt lat="46.2997" lon="10.70168">
        <ele>1209</ele>
        <time>2012-07-29T11:42:17Z</time>
      </trkpt>
      <trkpt lat="46.29951" lon="10.7024">
        <ele>1205.63</ele>
        <time>2012-07-29T11:42:22Z</time>
      </trkpt>
      <trkpt lat="46.29959" lon="10.70286">
        <ele>1208.51</ele>
        <time>2012-07-29T11:42:25Z</time>
      </trkpt>
      <trkpt lat="46.30047" lon="10.70499">
        <ele>1195.06</ele>
        <time>2012-07-29T11:42:36Z</time>
      </trkpt>
      <trkpt lat="46.30093" lon="10.70666">
        <ele>1187.37</ele>
        <time>2012-07-29T11:42:43Z</time>
      </trkpt>
      <trkpt lat="46.30146" lon="10.70876">
        <ele>1175.83</ele>
        <time>2012-07-29T11:42:51Z</time>
      </trkpt>
      <trkpt lat="46.30194" lon="10.71031">
        <ele>1164.29</ele>
        <time>2012-07-29T11:42:58Z</time>
      </trkpt>
      <trkpt lat="46.30337" lon="10.71297">
        <ele>1146.03</ele>
        <time>2012-07-29T11:43:11Z</time>
      </trkpt>
      <trkpt lat="46.30366" lon="10.71455">
        <ele>1141.7</ele>
        <time>2012-07-29T11:43:17Z</time>
      </trkpt>
      <trkpt lat="46.30408" lon="10.71704">
        <ele>1125.36</ele>
        <time>2012-07-29T11:43:26Z</time>
      </trkpt>
      <trkpt lat="46.30518" lon="10.72047">
        <ele>1107.58</ele>
        <time>2012-07-29T11:43:40Z</time>
      </trkpt>
      <trkpt lat="46.3069" lon="10.72385">
        <ele>1084.5</ele>
        <time>2012-07-29T11:43:56Z</time>
      </trkpt>
      <trkpt lat="46.30715" lon="10.72466">
        <ele>1080.66</ele>
        <time>2012-07-29T11:44:00Z</time>
      </trkpt>
      <trkpt lat="46.30757" lon="10.72555">
        <ele>1072.97</ele>
        <time>2012-07-29T11:44:05Z</time>
      </trkpt>
      <trkpt lat="46.30763" lon="10.72696">
        <ele>1066.24</ele>
        <time>2012-07-29T11:44:12Z</time>
      </trkpt>
      <trkpt lat="46.30786" lon="10.72748">
        <ele>1065.28</ele>
        <time>2012-07-29T11:44:15Z</time>
      </trkpt>
      <trkpt lat="46.3081" lon="10.72798">
        <ele>1060.47</ele>
        <time>2012-07-29T11:44:18Z</time>
      </trkpt>
      <trkpt lat="46.30829" lon="10.72901">
        <ele>1054.7</ele>
        <time>2012-07-29T11:44:24Z</time>
      </trkpt>
      <trkpt lat="46.30889" lon="10.72965">
        <ele>1046.53</ele>
        <time>2012-07-29T11:44:31Z</time>
      </trkpt>
      <trkpt lat="46.30977" lon="10.72973">
        <ele>1039.8</ele>
        <time>2012-07-29T11:44:38Z</time>
      </trkpt>
      <trkpt lat="46.31028" lon="10.73013">
        <ele>1034.52</ele>
        <time>2012-07-29T11:44:43Z</time>
      </trkpt>
      <trkpt lat="46.31288" lon="10.73725">
        <ele>1010.48</ele>
        <time>2012-07-29T11:45:28Z</time>
      </trkpt>
      <trkpt lat="46.31273" lon="10.73812">
        <ele>1011.93</ele>
        <time>2012-07-29T11:45:33Z</time>
      </trkpt>
      <trkpt lat="46.31206" lon="10.73958">
        <ele>1010.96</ele>
        <time>2012-07-29T11:45:41Z</time>
      </trkpt>
      <trkpt lat="46.31174" lon="10.7415">
        <ele>1005.68</ele>
        <time>2012-07-29T11:45:50Z</time>
      </trkpt>
      <trkpt lat="46.31069" lon="10.74434">
        <ele>999.91</ele>
        <time>2012-07-29T11:46:05Z</time>
      </trkpt>
      <trkpt lat="46.31063" lon="10.74705">
        <ele>997.99</ele>
        <time>2012-07-29T11:46:21Z</time>
      </trkpt>
      <trkpt lat="46.31084" lon="10.74822">
        <ele>997.51</ele>
        <time>2012-07-29T11:46:28Z</time>
      </trkpt>
      <trkpt lat="46.31141" lon="10.75">
        <ele>992.7</ele>
        <time>2012-07-29T11:46:39Z</time>
      </trkpt>
      <trkpt lat="46.31145" lon="10.75277">
        <ele>988.37</ele>
        <time>2012-07-29T11:46:54Z</time>
      </trkpt>
      <trkpt lat="46.31123" lon="10.75569">
        <ele>983.57</ele>
        <time>2012-07-29T11:47:10Z</time>
      </trkpt>
      <trkpt lat="46.31117" lon="10.75652">
        <ele>980.2</ele>
        <time>2012-07-29T11:47:15Z</time>
      </trkpt>
      <trkpt lat="46.31166" lon="10.7608">
        <ele>979.24</ele>
        <time>2012-07-29T11:47:40Z</time>
      </trkpt>
      <trkpt lat="46.3122" lon="10.76268">
        <ele>979.24</ele>
        <time>2012-07-29T11:47:49Z</time>
      </trkpt>
      <trkpt lat="46.31208" lon="10.76757">
        <ele>982.12</ele>
        <time>2012-07-29T11:48:06Z</time>
      </trkpt>
      <trkpt lat="46.31219" lon="10.76812">
        <ele>982.12</ele>
        <time>2012-07-29T11:48:08Z</time>
      </trkpt>
      <trkpt lat="46.3127" lon="10.77031">
        <ele>979.24</ele>
        <time>2012-07-29T11:48:16Z</time>
      </trkpt>
      <trkpt lat="46.31249" lon="10.77174">
        <ele>978.76</ele>
        <time>2012-07-29T11:48:21Z</time>
      </trkpt>
      <trkpt lat="46.31194" lon="10.77393">
        <ele>977.32</ele>
        <time>2012-07-29T11:48:29Z</time>
      </trkpt>
      <trkpt lat="46.31191" lon="10.77477">
        <ele>977.8</ele>
        <time>2012-07-29T11:48:32Z</time>
      </trkpt>
      <trkpt lat="46.31248" lon="10.77659">
        <ele>980.2</ele>
        <time>2012-07-29T11:48:39Z</time>
      </trkpt>
      <trkpt lat="46.31293" lon="10.77761">
        <ele>977.32</ele>
        <time>2012-07-29T11:48:43Z</time>
      </trkpt>
      <trkpt lat="46.31559" lon="10.78045">
        <ele>975.39</ele>
        <time>2012-07-29T11:48:58Z</time>
      </trkpt>
      <trkpt lat="46.31604" lon="10.78153">
        <ele>974.43</ele>
        <time>2012-07-29T11:49:02Z</time>
      </trkpt>
      <trkpt lat="46.31617" lon="10.78245">
        <ele>972.99</ele>
        <time>2012-07-29T11:49:05Z</time>
      </trkpt>
      <trkpt lat="46.31611" lon="10.78404">
        <ele>975.88</ele>
        <time>2012-07-29T11:49:10Z</time>
      </trkpt>
      <trkpt lat="46.316" lon="10.78496">
        <ele>973.47</ele>
        <time>2012-07-29T11:49:13Z</time>
      </trkpt>
      <trkpt lat="46.31519" lon="10.787">
        <ele>972.99</ele>
        <time>2012-07-29T11:49:21Z</time>
      </trkpt>
      <trkpt lat="46.31514" lon="10.78788">
        <ele>972.51</ele>
        <time>2012-07-29T11:49:24Z</time>
      </trkpt>
      <trkpt lat="46.31538" lon="10.78975">
        <ele>971.55</ele>
        <time>2012-07-29T11:49:30Z</time>
      </trkpt>
      <trkpt lat="46.316" lon="10.79141">
        <ele>970.11</ele>
        <time>2012-07-29T11:49:36Z</time>
      </trkpt>
      <trkpt lat="46.31631" lon="10.79297">
        <ele>970.11</ele>
        <time>2012-07-29T11:49:42Z</time>
      </trkpt>
      <trkpt lat="46.31677" lon="10.79409">
        <ele>968.67</ele>
        <time>2012-07-29T11:49:47Z</time>
      </trkpt>
      <trkpt lat="46.31721" lon="10.79507">
        <ele>963.86</ele>
        <time>2012-07-29T11:49:52Z</time>
      </trkpt>
      <trkpt lat="46.31735" lon="10.79572">
        <ele>964.82</ele>
        <time>2012-07-29T11:49:55Z</time>
      </trkpt>
      <trkpt lat="46.31736" lon="10.79697">
        <ele>960.98</ele>
        <time>2012-07-29T11:50:01Z</time>
      </trkpt>
      <trkpt lat="46.31711" lon="10.79787">
        <ele>959.53</ele>
        <time>2012-07-29T11:50:07Z</time>
      </trkpt>
      <trkpt lat="46.31604" lon="10.79944">
        <ele>961.46</ele>
        <time>2012-07-29T11:50:20Z</time>
      </trkpt>
      <trkpt lat="46.31585" lon="10.79987">
        <ele>960.01</ele>
        <time>2012-07-29T11:50:23Z</time>
      </trkpt>
      <trkpt lat="46.31568" lon="10.80048">
        <ele>960.98</ele>
        <time>2012-07-29T11:50:27Z</time>
      </trkpt>
      <trkpt lat="46.31575" lon="10.80198">
        <ele>960.49</ele>
        <time>2012-07-29T11:50:36Z</time>
      </trkpt>
      <trkpt lat="46.31589" lon="10.80374">
        <ele>956.17</ele>
        <time>2012-07-29T11:50:47Z</time>
      </trkpt>
      <trkpt lat="46.31615" lon="10.80483">
        <ele>951.84</ele>
        <time>2012-07-29T11:50:54Z</time>
      </trkpt>
      <trkpt lat="46.31795" lon="10.80823">
        <ele>937.42</ele>
        <time>2012-07-29T11:51:17Z</time>
      </trkpt>
      <trkpt lat="46.31863" lon="10.8109">
        <ele>930.69</ele>
        <time>2012-07-29T11:51:28Z</time>
      </trkpt>
      <trkpt lat="46.31898" lon="10.81172">
        <ele>923</ele>
        <time>2012-07-29T11:51:32Z</time>
      </trkpt>
      <trkpt lat="46.31932" lon="10.81417">
        <ele>915.31</ele>
        <time>2012-07-29T11:51:44Z</time>
      </trkpt>
      <trkpt lat="46.31976" lon="10.81538">
        <ele>909.06</ele>
        <time>2012-07-29T11:51:50Z</time>
      </trkpt>
      <trkpt lat="46.31975" lon="10.81775">
        <ele>903.78</ele>
        <time>2012-07-29T11:52:00Z</time>
      </trkpt>
      <trkpt lat="46.32038" lon="10.82129">
        <ele>899.93</ele>
        <time>2012-07-29T11:52:14Z</time>
      </trkpt>
      <trkpt lat="46.32058" lon="10.82288">
        <ele>895.61</ele>
        <time>2012-07-29T11:52:20Z</time>
      </trkpt>
      <trkpt lat="46.32032" lon="10.82422">
        <ele>890.8</ele>
        <time>2012-07-29T11:52:25Z</time>
      </trkpt>
      <trkpt lat="46.3192" lon="10.82616">
        <ele>887.91</ele>
        <time>2012-07-29T11:52:34Z</time>
      </trkpt>
      <trkpt lat="46.31912" lon="10.8264">
        <ele>886.47</ele>
        <time>2012-07-29T11:52:35Z</time>
      </trkpt>
      <trkpt lat="46.31893" lon="10.8277">
        <ele>882.63</ele>
        <time>2012-07-29T11:52:40Z</time>
      </trkpt>
      <trkpt lat="46.31934" lon="10.8309">
        <ele>874.46</ele>
        <time>2012-07-29T11:52:52Z</time>
      </trkpt>
      <trkpt lat="46.31964" lon="10.83247">
        <ele>867.73</ele>
        <time>2012-07-29T11:52:58Z</time>
      </trkpt>
      <trkpt lat="46.321" lon="10.83697">
        <ele>860.04</ele>
        <time>2012-07-29T11:53:17Z</time>
      </trkpt>
      <trkpt lat="46.32084" lon="10.84059">
        <ele>862.92</ele>
        <time>2012-07-29T11:53:31Z</time>
      </trkpt>
      <trkpt lat="46.32091" lon="10.84292">
        <ele>859.56</ele>
        <time>2012-07-29T11:53:39Z</time>
      </trkpt>
      <trkpt lat="46.32104" lon="10.84439">
        <ele>855.23</ele>
        <time>2012-07-29T11:53:44Z</time>
      </trkpt>
      <trkpt lat="46.32175" lon="10.84618">
        <ele>851.87</ele>
        <time>2012-07-29T11:53:51Z</time>
      </trkpt>
      <trkpt lat="46.32354" lon="10.84967">
        <ele>841.77</ele>
        <time>2012-07-29T11:54:06Z</time>
      </trkpt>
      <trkpt lat="46.32367" lon="10.85015">
        <ele>842.25</ele>
        <time>2012-07-29T11:54:08Z</time>
      </trkpt>
      <trkpt lat="46.32374" lon="10.85121">
        <ele>843.21</ele>
        <time>2012-07-29T11:54:12Z</time>
      </trkpt>
      <trkpt lat="46.32361" lon="10.85334">
        <ele>840.33</ele>
        <time>2012-07-29T11:54:20Z</time>
      </trkpt>
      <trkpt lat="46.32381" lon="10.85566">
        <ele>838.89</ele>
        <time>2012-07-29T11:54:28Z</time>
      </trkpt>
      <trkpt lat="46.32381" lon="10.85817">
        <ele>837.93</ele>
        <time>2012-07-29T11:54:38Z</time>
      </trkpt>
      <trkpt lat="46.32398" lon="10.85926">
        <ele>836</ele>
        <time>2012-07-29T11:54:44Z</time>
      </trkpt>
      <trkpt lat="46.32434" lon="10.85993">
        <ele>835.04</ele>
        <time>2012-07-29T11:54:48Z</time>
      </trkpt>
      <trkpt lat="46.32672" lon="10.86315">
        <ele>831.68</ele>
        <time>2012-07-29T11:55:11Z</time>
      </trkpt>
      <trkpt lat="46.32727" lon="10.86457">
        <ele>827.35</ele>
        <time>2012-07-29T11:55:18Z</time>
      </trkpt>
      <trkpt lat="46.32747" lon="10.86608">
        <ele>824.47</ele>
        <time>2012-07-29T11:55:25Z</time>
      </trkpt>
      <trkpt lat="46.32742" lon="10.8687">
        <ele>817.26</ele>
        <time>2012-07-29T11:55:37Z</time>
      </trkpt>
      <trkpt lat="46.32818" lon="10.87109">
        <ele>803.8</ele>
        <time>2012-07-29T11:55:53Z</time>
      </trkpt>
      <trkpt lat="46.32798" lon="10.87163">
        <ele>802.84</ele>
        <time>2012-07-29T11:56:01Z</time>
      </trkpt>
      <trkpt lat="46.32817" lon="10.87213">
        <ele>803.8</ele>
        <time>2012-07-29T11:56:06Z</time>
      </trkpt>
      <trkpt lat="46.3281" lon="10.87263">
        <ele>804.76</ele>
        <time>2012-07-29T11:56:09Z</time>
      </trkpt>
      <trkpt lat="46.32755" lon="10.87401">
        <ele>804.76</ele>
        <time>2012-07-29T11:56:16Z</time>
      </trkpt>
      <trkpt lat="46.32751" lon="10.87423">
        <ele>803.32</ele>
        <time>2012-07-29T11:56:17Z</time>
      </trkpt>
      <trkpt lat="46.32759" lon="10.87543">
        <ele>802.36</ele>
        <time>2012-07-29T11:56:22Z</time>
      </trkpt>
      <trkpt lat="46.32804" lon="10.87644">
        <ele>799.95</ele>
        <time>2012-07-29T11:56:27Z</time>
      </trkpt>
      <trkpt lat="46.32892" lon="10.8772">
        <ele>802.36</ele>
        <time>2012-07-29T11:56:33Z</time>
      </trkpt>
      <trkpt lat="46.33003" lon="10.87805">
        <ele>801.4</ele>
        <time>2012-07-29T11:56:40Z</time>
      </trkpt>
      <trkpt lat="46.33077" lon="10.87874">
        <ele>798.51</ele>
        <time>2012-07-29T11:56:45Z</time>
      </trkpt>
      <trkpt lat="46.33088" lon="10.87894">
        <ele>797.55</ele>
        <time>2012-07-29T11:56:46Z</time>
      </trkpt>
      <trkpt lat="46.33123" lon="10.88046">
        <ele>796.11</ele>
        <time>2012-07-29T11:56:52Z</time>
      </trkpt>
      <trkpt lat="46.33214" lon="10.88568">
        <ele>788.9</ele>
        <time>2012-07-29T11:57:12Z</time>
      </trkpt>
      <trkpt lat="46.33407" lon="10.89051">
        <ele>784.57</ele>
        <time>2012-07-29T11:57:33Z</time>
      </trkpt>
      <trkpt lat="46.33512" lon="10.89224">
        <ele>782.17</ele>
        <time>2012-07-29T11:57:41Z</time>
      </trkpt>
      <trkpt lat="46.3387" lon="10.89728">
        <ele>773.04</ele>
        <time>2012-07-29T11:58:08Z</time>
      </trkpt>
      <trkpt lat="46.33926" lon="10.89822">
        <ele>770.15</ele>
        <time>2012-07-29T11:58:13Z</time>
      </trkpt>
      <trkpt lat="46.34155" lon="10.903">
        <ele>763.9</ele>
        <time>2012-07-29T11:58:36Z</time>
      </trkpt>
      <trkpt lat="46.34299" lon="10.90544">
        <ele>760.54</ele>
        <time>2012-07-29T11:58:48Z</time>
      </trkpt>
      <trkpt lat="46.34354" lon="10.9062">
        <ele>761.5</ele>
        <time>2012-07-29T11:58:52Z</time>
      </trkpt>
      <trkpt lat="46.34397" lon="10.90673">
        <ele>758.14</ele>
        <time>2012-07-29T11:58:55Z</time>
      </trkpt>
      <trkpt lat="46.34636" lon="10.90943">
        <ele>758.62</ele>
        <time>2012-07-29T11:59:11Z</time>
      </trkpt>
      <trkpt lat="46.34723" lon="10.91069">
        <ele>755.25</ele>
        <time>2012-07-29T11:59:18Z</time>
      </trkpt>
      <trkpt lat="46.35093" lon="10.91717">
        <ele>757.18</ele>
        <time>2012-07-29T11:59:47Z</time>
      </trkpt>
      <trkpt lat="46.35206" lon="10.91896">
        <ele>752.85</ele>
        <time>2012-07-29T11:59:55Z</time>
      </trkpt>
      <trkpt lat="46.35917" lon="10.92893">
        <ele>755.73</ele>
        <time>2012-07-29T12:00:45Z</time>
      </trkpt>
      <trkpt lat="46.35984" lon="10.93023">
        <ele>759.58</ele>
        <time>2012-07-29T12:00:51Z</time>
      </trkpt>
      <trkpt lat="46.36084" lon="10.93196">
        <ele>756.21</ele>
        <time>2012-07-29T12:00:59Z</time>
      </trkpt>
      <trkpt lat="46.36381" lon="10.93458">
        <ele>739.87</ele>
        <time>2012-07-29T12:01:19Z</time>
      </trkpt>
      <trkpt lat="46.36459" lon="10.93586">
        <ele>736.03</ele>
        <time>2012-07-29T12:01:28Z</time>
      </trkpt>
      <trkpt lat="46.36595" lon="10.94022">
        <ele>736.03</ele>
        <time>2012-07-29T12:01:52Z</time>
      </trkpt>
      <trkpt lat="46.36666" lon="10.94692">
        <ele>731.7</ele>
        <time>2012-07-29T12:02:22Z</time>
      </trkpt>
      <trkpt lat="46.36704" lon="10.94793">
        <ele>733.62</ele>
        <time>2012-07-29T12:02:27Z</time>
      </trkpt>
      <trkpt lat="46.36716" lon="10.94806">
        <ele>733.62</ele>
        <time>2012-07-29T12:02:28Z</time>
      </trkpt>
      <trkpt lat="46.36843" lon="10.94835">
        <ele>727.37</ele>
        <time>2012-07-29T12:02:36Z</time>
      </trkpt>
      <trkpt lat="46.36914" lon="10.94901">
        <ele>724.97</ele>
        <time>2012-07-29T12:02:41Z</time>
      </trkpt>
      <trkpt lat="46.37025" lon="10.95026">
        <ele>717.28</ele>
        <time>2012-07-29T12:02:49Z</time>
      </trkpt>
      <trkpt lat="46.37085" lon="10.95111">
        <ele>713.92</ele>
        <time>2012-07-29T12:02:54Z</time>
      </trkpt>
      <trkpt lat="46.37184" lon="10.95269">
        <ele>711.03</ele>
        <time>2012-07-29T12:03:03Z</time>
      </trkpt>
      <trkpt lat="46.37242" lon="10.95395">
        <ele>711.99</ele>
        <time>2012-07-29T12:03:09Z</time>
      </trkpt>
      <trkpt lat="46.37374" lon="10.95595">
        <ele>714.88</ele>
        <time>2012-07-29T12:03:20Z</time>
      </trkpt>
      <trkpt lat="46.37421" lon="10.9577">
        <ele>715.84</ele>
        <time>2012-07-29T12:03:27Z</time>
      </trkpt>
      <trkpt lat="46.37442" lon="10.95966">
        <ele>712.47</ele>
        <time>2012-07-29T12:03:36Z</time>
      </trkpt>
      <trkpt lat="46.37463" lon="10.95985">
        <ele>713.44</ele>
        <time>2012-07-29T12:03:38Z</time>
      </trkpt>
      <trkpt lat="46.37531" lon="10.95999">
        <ele>711.51</ele>
        <time>2012-07-29T12:03:43Z</time>
      </trkpt>
      <trkpt lat="46.37554" lon="10.96027">
        <ele>711.51</ele>
        <time>2012-07-29T12:03:45Z</time>
      </trkpt>
      <trkpt lat="46.37662" lon="10.96315">
        <ele>713.44</ele>
        <time>2012-07-29T12:03:58Z</time>
      </trkpt>
      <trkpt lat="46.37743" lon="10.96489">
        <ele>707.19</ele>
        <time>2012-07-29T12:04:06Z</time>
      </trkpt>
      <trkpt lat="46.37802" lon="10.96718">
        <ele>705.26</ele>
        <time>2012-07-29T12:04:16Z</time>
      </trkpt>
      <trkpt lat="46.37813" lon="10.96735">
        <ele>704.3</ele>
        <time>2012-07-29T12:04:17Z</time>
      </trkpt>
      <trkpt lat="46.37892" lon="10.96779">
        <ele>702.86</ele>
        <time>2012-07-29T12:04:22Z</time>
      </trkpt>
      <trkpt lat="46.38027" lon="10.96821">
        <ele>694.69</ele>
        <time>2012-07-29T12:04:31Z</time>
      </trkpt>
      <trkpt lat="46.3817" lon="10.97038">
        <ele>696.61</ele>
        <time>2012-07-29T12:04:47Z</time>
      </trkpt>
      <trkpt lat="46.38227" lon="10.97144">
        <ele>694.21</ele>
        <time>2012-07-29T12:04:54Z</time>
      </trkpt>
      <trkpt lat="46.38289" lon="10.97291">
        <ele>691.81</ele>
        <time>2012-07-29T12:05:03Z</time>
      </trkpt>
      <trkpt lat="46.38283" lon="10.97402">
        <ele>691.81</ele>
        <time>2012-07-29T12:05:09Z</time>
      </trkpt>
      <trkpt lat="46.38303" lon="10.97463">
        <ele>690.36</ele>
        <time>2012-07-29T12:05:13Z</time>
      </trkpt>
      <trkpt lat="46.3829" lon="10.97556">
        <ele>692.77</ele>
        <time>2012-07-29T12:05:18Z</time>
      </trkpt>
      <trkpt lat="46.383" lon="10.97594">
        <ele>691.81</ele>
        <time>2012-07-29T12:05:20Z</time>
      </trkpt>
      <trkpt lat="46.38362" lon="10.97682">
        <ele>692.29</ele>
        <time>2012-07-29T12:05:26Z</time>
      </trkpt>
      <trkpt lat="46.38424" lon="10.97696">
        <ele>691.33</ele>
        <time>2012-07-29T12:05:31Z</time>
      </trkpt>
      <trkpt lat="46.38462" lon="10.97735">
        <ele>692.77</ele>
        <time>2012-07-29T12:05:34Z</time>
      </trkpt>
      <trkpt lat="46.38624" lon="10.97921">
        <ele>691.81</ele>
        <time>2012-07-29T12:05:47Z</time>
      </trkpt>
      <trkpt lat="46.38665" lon="10.98057">
        <ele>691.33</ele>
        <time>2012-07-29T12:05:54Z</time>
      </trkpt>
      <trkpt lat="46.38708" lon="10.98146">
        <ele>687.96</ele>
        <time>2012-07-29T12:06:00Z</time>
      </trkpt>
      <trkpt lat="46.38757" lon="10.98327">
        <ele>680.27</ele>
        <time>2012-07-29T12:06:11Z</time>
      </trkpt>
      <trkpt lat="46.38793" lon="10.98518">
        <ele>673.54</ele>
        <time>2012-07-29T12:06:22Z</time>
      </trkpt>
      <trkpt lat="46.38829" lon="10.98605">
        <ele>668.73</ele>
        <time>2012-07-29T12:06:28Z</time>
      </trkpt>
      <trkpt lat="46.3889" lon="10.98914">
        <ele>662.01</ele>
        <time>2012-07-29T12:06:47Z</time>
      </trkpt>
      <trkpt lat="46.38941" lon="10.99026">
        <ele>660.08</ele>
        <time>2012-07-29T12:06:54Z</time>
      </trkpt>
      <trkpt lat="46.38971" lon="10.99217">
        <ele>657.68</ele>
        <time>2012-07-29T12:07:04Z</time>
      </trkpt>
      <trkpt lat="46.39035" lon="10.99381">
        <ele>655.28</ele>
        <time>2012-07-29T12:07:14Z</time>
      </trkpt>
      <trkpt lat="46.391" lon="10.99458">
        <ele>650.47</ele>
        <time>2012-07-29T12:07:21Z</time>
      </trkpt>
      <trkpt lat="46.39108" lon="10.9955">
        <ele>650.95</ele>
        <time>2012-07-29T12:07:27Z</time>
      </trkpt>
      <trkpt lat="46.39161" lon="10.99626">
        <ele>646.62</ele>
        <time>2012-07-29T12:07:34Z</time>
      </trkpt>
      <trkpt lat="46.39156" lon="10.99692">
        <ele>645.18</ele>
        <time>2012-07-29T12:07:39Z</time>
      </trkpt>
      <trkpt lat="46.39191" lon="10.9975">
        <ele>643.26</ele>
        <time>2012-07-29T12:07:45Z</time>
      </trkpt>
      <trkpt lat="46.39202" lon="10.99824">
        <ele>644.22</ele>
        <time>2012-07-29T12:07:50Z</time>
      </trkpt>
      <trkpt lat="46.3927" lon="10.99927">
        <ele>640.86</ele>
        <time>2012-07-29T12:07:59Z</time>
      </trkpt>
      <trkpt lat="46.39351" lon="11.00016">
        <ele>637.01</ele>
        <time>2012-07-29T12:08:08Z</time>
      </trkpt>
      <trkpt lat="46.39408" lon="11.00155">
        <ele>636.05</ele>
        <time>2012-07-29T12:08:18Z</time>
      </trkpt>
      <trkpt lat="46.39451" lon="11.00213">
        <ele>634.13</ele>
        <time>2012-07-29T12:08:23Z</time>
      </trkpt>
      <trkpt lat="46.39482" lon="11.00383">
        <ele>631.24</ele>
        <time>2012-07-29T12:08:33Z</time>
      </trkpt>
      <trkpt lat="46.39463" lon="11.00465">
        <ele>630.76</ele>
        <time>2012-07-29T12:08:38Z</time>
      </trkpt>
      <trkpt lat="46.39463" lon="11.00557">
        <ele>629.32</ele>
        <time>2012-07-29T12:08:44Z</time>
      </trkpt>
      <trkpt lat="46.39497" lon="11.00712">
        <ele>628.36</ele>
        <time>2012-07-29T12:08:55Z</time>
      </trkpt>
      <trkpt lat="46.3951" lon="11.00747">
        <ele>626.92</ele>
        <time>2012-07-29T12:08:58Z</time>
      </trkpt>
      <trkpt lat="46.39459" lon="11.00968">
        <ele>627.88</ele>
        <time>2012-07-29T12:09:13Z</time>
      </trkpt>
      <trkpt lat="46.39399" lon="11.01121">
        <ele>627.4</ele>
        <time>2012-07-29T12:09:23Z</time>
      </trkpt>
      <trkpt lat="46.3936" lon="11.01302">
        <ele>623.07</ele>
        <time>2012-07-29T12:09:38Z</time>
      </trkpt>
      <trkpt lat="46.39301" lon="11.01322">
        <ele>624.51</ele>
        <time>2012-07-29T12:09:45Z</time>
      </trkpt>
      <trkpt lat="46.39206" lon="11.01308">
        <ele>629.32</ele>
        <time>2012-07-29T12:09:54Z</time>
      </trkpt>
      <trkpt lat="46.39195" lon="11.0131">
        <ele>628.84</ele>
        <time>2012-07-29T12:09:55Z</time>
      </trkpt>
      <trkpt lat="46.39115" lon="11.01344">
        <ele>635.57</ele>
        <time>2012-07-29T12:10:04Z</time>
      </trkpt>
      <trkpt lat="46.39106" lon="11.01459">
        <ele>640.86</ele>
        <time>2012-07-29T12:10:12Z</time>
      </trkpt>
      <trkpt lat="46.39135" lon="11.01507">
        <ele>645.66</ele>
        <time>2012-07-29T12:10:16Z</time>
      </trkpt>
      <trkpt lat="46.39159" lon="11.01559">
        <ele>647.1</ele>
        <time>2012-07-29T12:10:20Z</time>
      </trkpt>
      <trkpt lat="46.39136" lon="11.01623">
        <ele>652.39</ele>
        <time>2012-07-29T12:10:24Z</time>
      </trkpt>
      <trkpt lat="46.39101" lon="11.01753">
        <ele>657.68</ele>
        <time>2012-07-29T12:10:32Z</time>
      </trkpt>
      <trkpt lat="46.39055" lon="11.01806">
        <ele>661.04</ele>
        <time>2012-07-29T12:10:37Z</time>
      </trkpt>
      <trkpt lat="46.39032" lon="11.01865">
        <ele>664.89</ele>
        <time>2012-07-29T12:10:41Z</time>
      </trkpt>
      <trkpt lat="46.38971" lon="11.02018">
        <ele>668.73</ele>
        <time>2012-07-29T12:10:51Z</time>
      </trkpt>
      <trkpt lat="46.38973" lon="11.02063">
        <ele>671.14</ele>
        <time>2012-07-29T12:10:54Z</time>
      </trkpt>
      <trkpt lat="46.38988" lon="11.02123">
        <ele>670.18</ele>
        <time>2012-07-29T12:10:58Z</time>
      </trkpt>
      <trkpt lat="46.38979" lon="11.02171">
        <ele>671.14</ele>
        <time>2012-07-29T12:11:01Z</time>
      </trkpt>
      <trkpt lat="46.38965" lon="11.02233">
        <ele>670.18</ele>
        <time>2012-07-29T12:11:05Z</time>
      </trkpt>
      <trkpt lat="46.38905" lon="11.02303">
        <ele>668.73</ele>
        <time>2012-07-29T12:11:12Z</time>
      </trkpt>
      <trkpt lat="46.38893" lon="11.02391">
        <ele>670.18</ele>
        <time>2012-07-29T12:11:18Z</time>
      </trkpt>
      <trkpt lat="46.38863" lon="11.02453">
        <ele>673.06</ele>
        <time>2012-07-29T12:11:23Z</time>
      </trkpt>
      <trkpt lat="46.3883" lon="11.02526">
        <ele>674.5</ele>
        <time>2012-07-29T12:11:28Z</time>
      </trkpt>
      <trkpt lat="46.3882" lon="11.02618">
        <ele>672.58</ele>
        <time>2012-07-29T12:11:33Z</time>
      </trkpt>
      <trkpt lat="46.38788" lon="11.02695">
        <ele>672.58</ele>
        <time>2012-07-29T12:11:38Z</time>
      </trkpt>
      <trkpt lat="46.38784" lon="11.02711">
        <ele>672.1</ele>
        <time>2012-07-29T12:11:39Z</time>
      </trkpt>
      <trkpt lat="46.38754" lon="11.02903">
        <ele>676.91</ele>
        <time>2012-07-29T12:11:50Z</time>
      </trkpt>
      <trkpt lat="46.38754" lon="11.03057">
        <ele>678.83</ele>
        <time>2012-07-29T12:11:59Z</time>
      </trkpt>
      <trkpt lat="46.38754" lon="11.03128">
        <ele>677.39</ele>
        <time>2012-07-29T12:12:04Z</time>
      </trkpt>
      <trkpt lat="46.38729" lon="11.03151">
        <ele>674.98</ele>
        <time>2012-07-29T12:12:07Z</time>
      </trkpt>
      <trkpt lat="46.38664" lon="11.03119">
        <ele>671.62</ele>
        <time>2012-07-29T12:12:13Z</time>
      </trkpt>
      <trkpt lat="46.38574" lon="11.03114">
        <ele>669.7</ele>
        <time>2012-07-29T12:12:20Z</time>
      </trkpt>
      <trkpt lat="46.3844" lon="11.03202">
        <ele>671.14</ele>
        <time>2012-07-29T12:12:32Z</time>
      </trkpt>
      <trkpt lat="46.38418" lon="11.03247">
        <ele>671.62</ele>
        <time>2012-07-29T12:12:35Z</time>
      </trkpt>
      <trkpt lat="46.38406" lon="11.03356">
        <ele>673.54</ele>
        <time>2012-07-29T12:12:41Z</time>
      </trkpt>
      <trkpt lat="46.38427" lon="11.03416">
        <ele>677.39</ele>
        <time>2012-07-29T12:12:45Z</time>
      </trkpt>
      <trkpt lat="46.38466" lon="11.03479">
        <ele>680.27</ele>
        <time>2012-07-29T12:12:50Z</time>
      </trkpt>
      <trkpt lat="46.38466" lon="11.03511">
        <ele>680.75</ele>
        <time>2012-07-29T12:12:52Z</time>
      </trkpt>
      <trkpt lat="46.38443" lon="11.03548">
        <ele>682.67</ele>
        <time>2012-07-29T12:12:55Z</time>
      </trkpt>
      <trkpt lat="46.38355" lon="11.03618">
        <ele>681.23</ele>
        <time>2012-07-29T12:13:04Z</time>
      </trkpt>
      <trkpt lat="46.38296" lon="11.03608">
        <ele>682.19</ele>
        <time>2012-07-29T12:13:09Z</time>
      </trkpt>
      <trkpt lat="46.38214" lon="11.03631">
        <ele>681.71</ele>
        <time>2012-07-29T12:13:17Z</time>
      </trkpt>
      <trkpt lat="46.37849" lon="11.03521">
        <ele>683.15</ele>
        <time>2012-07-29T12:13:44Z</time>
      </trkpt>
      <trkpt lat="46.37732" lon="11.03458">
        <ele>683.15</ele>
        <time>2012-07-29T12:13:54Z</time>
      </trkpt>
      <trkpt lat="46.3759" lon="11.03416">
        <ele>685.56</ele>
        <time>2012-07-29T12:14:05Z</time>
      </trkpt>
      <trkpt lat="46.37503" lon="11.03402">
        <ele>684.12</ele>
        <time>2012-07-29T12:14:14Z</time>
      </trkpt>
      <trkpt lat="46.37504" lon="11.03419">
        <ele>682.67</ele>
        <time>2012-07-29T12:14:18Z</time>
      </trkpt>
      <trkpt lat="46.3752" lon="11.03414">
        <ele>680.27</ele>
        <time>2012-07-29T12:17:02Z</time>
      </trkpt>
      <trkpt lat="46.37511" lon="11.03403">
        <ele>676.42</ele>
        <time>2012-07-29T12:24:36Z</time>
      </trkpt>
      <trkpt lat="46.37434" lon="11.03379">
        <ele>678.35</ele>
        <time>2012-07-29T12:24:45Z</time>
      </trkpt>
      <trkpt lat="46.37362" lon="11.03316">
        <ele>681.23</ele>
        <time>2012-07-29T12:24:53Z</time>
      </trkpt>
      <trkpt lat="46.37344" lon="11.033">
        <ele>681.71</ele>
        <time>2012-07-29T12:24:55Z</time>
      </trkpt>
      <trkpt lat="46.37299" lon="11.03298">
        <ele>683.63</ele>
        <time>2012-07-29T12:24:59Z</time>
      </trkpt>
      <trkpt lat="46.37047" lon="11.03285">
        <ele>671.62</ele>
        <time>2012-07-29T12:25:18Z</time>
      </trkpt>
      <trkpt lat="46.3699" lon="11.03331">
        <ele>670.18</ele>
        <time>2012-07-29T12:25:23Z</time>
      </trkpt>
      <trkpt lat="46.3688" lon="11.03456">
        <ele>662.97</ele>
        <time>2012-07-29T12:25:34Z</time>
      </trkpt>
      <trkpt lat="46.36817" lon="11.03502">
        <ele>663.93</ele>
        <time>2012-07-29T12:25:40Z</time>
      </trkpt>
      <trkpt lat="46.36671" lon="11.03563">
        <ele>670.66</ele>
        <time>2012-07-29T12:25:55Z</time>
      </trkpt>
      <trkpt lat="46.36539" lon="11.03589">
        <ele>672.58</ele>
        <time>2012-07-29T12:26:10Z</time>
      </trkpt>
      <trkpt lat="46.36496" lon="11.03579">
        <ele>672.1</ele>
        <time>2012-07-29T12:26:17Z</time>
      </trkpt>
      <trkpt lat="46.36469" lon="11.0354">
        <ele>672.1</ele>
        <time>2012-07-29T12:26:27Z</time>
      </trkpt>
      <trkpt lat="46.36403" lon="11.03585">
        <ele>672.58</ele>
        <time>2012-07-29T12:26:36Z</time>
      </trkpt>
      <trkpt lat="46.36256" lon="11.03617">
        <ele>668.73</ele>
        <time>2012-07-29T12:26:52Z</time>
      </trkpt>
      <trkpt lat="46.36196" lon="11.03707">
        <ele>664.41</ele>
        <time>2012-07-29T12:27:02Z</time>
      </trkpt>
      <trkpt lat="46.36108" lon="11.03768">
        <ele>662.01</ele>
        <time>2012-07-29T12:27:12Z</time>
      </trkpt>
      <trkpt lat="46.36049" lon="11.03777">
        <ele>660.56</ele>
        <time>2012-07-29T12:27:18Z</time>
      </trkpt>
      <trkpt lat="46.35957" lon="11.03756">
        <ele>658.16</ele>
        <time>2012-07-29T12:27:27Z</time>
      </trkpt>
      <trkpt lat="46.35843" lon="11.03727">
        <ele>654.8</ele>
        <time>2012-07-29T12:27:38Z</time>
      </trkpt>
      <trkpt lat="46.35677" lon="11.03748">
        <ele>649.51</ele>
        <time>2012-07-29T12:27:54Z</time>
      </trkpt>
      <trkpt lat="46.35482" lon="11.04007">
        <ele>642.3</ele>
        <time>2012-07-29T12:28:19Z</time>
      </trkpt>
      <trkpt lat="46.35408" lon="11.04166">
        <ele>637.49</ele>
        <time>2012-07-29T12:28:30Z</time>
      </trkpt>
      <trkpt lat="46.35356" lon="11.04309">
        <ele>634.61</ele>
        <time>2012-07-29T12:28:40Z</time>
      </trkpt>
      <trkpt lat="46.35328" lon="11.04401">
        <ele>630.28</ele>
        <time>2012-07-29T12:28:47Z</time>
      </trkpt>
      <trkpt lat="46.3532" lon="11.04417">
        <ele>628.84</ele>
        <time>2012-07-29T12:28:51Z</time>
      </trkpt>
      <trkpt lat="46.35214" lon="11.04784">
        <ele>623.55</ele>
        <time>2012-07-29T12:29:52Z</time>
      </trkpt>
      <trkpt lat="46.35087" lon="11.05049">
        <ele>616.82</ele>
        <time>2012-07-29T12:30:09Z</time>
      </trkpt>
      <trkpt lat="46.35043" lon="11.05138">
        <ele>613.94</ele>
        <time>2012-07-29T12:30:15Z</time>
      </trkpt>
      <trkpt lat="46.35086" lon="11.05315">
        <ele>613.94</ele>
        <time>2012-07-29T12:30:25Z</time>
      </trkpt>
      <trkpt lat="46.35158" lon="11.05417">
        <ele>608.65</ele>
        <time>2012-07-29T12:30:32Z</time>
      </trkpt>
      <trkpt lat="46.35196" lon="11.05442">
        <ele>608.65</ele>
        <time>2012-07-29T12:30:35Z</time>
      </trkpt>
      <trkpt lat="46.35275" lon="11.05437">
        <ele>600.96</ele>
        <time>2012-07-29T12:30:42Z</time>
      </trkpt>
      <trkpt lat="46.35267" lon="11.05499">
        <ele>600.96</ele>
        <time>2012-07-29T12:30:47Z</time>
      </trkpt>
      <trkpt lat="46.35244" lon="11.0556">
        <ele>598.08</ele>
        <time>2012-07-29T12:30:51Z</time>
      </trkpt>
      <trkpt lat="46.35117" lon="11.05649">
        <ele>593.75</ele>
        <time>2012-07-29T12:31:03Z</time>
      </trkpt>
      <trkpt lat="46.34991" lon="11.05612">
        <ele>593.75</ele>
        <time>2012-07-29T12:31:12Z</time>
      </trkpt>
      <trkpt lat="46.34917" lon="11.05585">
        <ele>585.58</ele>
        <time>2012-07-29T12:31:17Z</time>
      </trkpt>
      <trkpt lat="46.34848" lon="11.05602">
        <ele>581.73</ele>
        <time>2012-07-29T12:31:22Z</time>
      </trkpt>
      <trkpt lat="46.3463" lon="11.05574">
        <ele>572.12</ele>
        <time>2012-07-29T12:31:37Z</time>
      </trkpt>
      <trkpt lat="46.34567" lon="11.05583">
        <ele>569.24</ele>
        <time>2012-07-29T12:31:42Z</time>
      </trkpt>
      <trkpt lat="46.34557" lon="11.05589">
        <ele>567.8</ele>
        <time>2012-07-29T12:31:43Z</time>
      </trkpt>
      <trkpt lat="46.34539" lon="11.05626">
        <ele>565.39</ele>
        <time>2012-07-29T12:31:46Z</time>
      </trkpt>
      <trkpt lat="46.34542" lon="11.05657">
        <ele>564.43</ele>
        <time>2012-07-29T12:31:48Z</time>
      </trkpt>
      <trkpt lat="46.3463" lon="11.05768">
        <ele>560.11</ele>
        <time>2012-07-29T12:31:57Z</time>
      </trkpt>
      <trkpt lat="46.34653" lon="11.05871">
        <ele>557.22</ele>
        <time>2012-07-29T12:32:03Z</time>
      </trkpt>
      <trkpt lat="46.34597" lon="11.06061">
        <ele>551.93</ele>
        <time>2012-07-29T12:32:14Z</time>
      </trkpt>
      <trkpt lat="46.34555" lon="11.06172">
        <ele>549.53</ele>
        <time>2012-07-29T12:32:21Z</time>
      </trkpt>
      <trkpt lat="46.34537" lon="11.06187">
        <ele>550.49</ele>
        <time>2012-07-29T12:32:23Z</time>
      </trkpt>
      <trkpt lat="46.34472" lon="11.06169">
        <ele>554.82</ele>
        <time>2012-07-29T12:32:28Z</time>
      </trkpt>
      <trkpt lat="46.34319" lon="11.06155">
        <ele>557.7</ele>
        <time>2012-07-29T12:32:38Z</time>
      </trkpt>
      <trkpt lat="46.34226" lon="11.06033">
        <ele>560.59</ele>
        <time>2012-07-29T12:32:47Z</time>
      </trkpt>
      <trkpt lat="46.34189" lon="11.0602">
        <ele>561.07</ele>
        <time>2012-07-29T12:32:50Z</time>
      </trkpt>
      <trkpt lat="46.34068" lon="11.06067">
        <ele>562.51</ele>
        <time>2012-07-29T12:33:00Z</time>
      </trkpt>
      <trkpt lat="46.33949" lon="11.0623">
        <ele>566.83</ele>
        <time>2012-07-29T12:33:13Z</time>
      </trkpt>
      <trkpt lat="46.3389" lon="11.06291">
        <ele>567.32</ele>
        <time>2012-07-29T12:33:20Z</time>
      </trkpt>
      <trkpt lat="46.33845" lon="11.06357">
        <ele>567.8</ele>
        <time>2012-07-29T12:33:30Z</time>
      </trkpt>
      <trkpt lat="46.33807" lon="11.06352">
        <ele>567.8</ele>
        <time>2012-07-29T12:33:35Z</time>
      </trkpt>
      <trkpt lat="46.33704" lon="11.0623">
        <ele>569.24</ele>
        <time>2012-07-29T12:33:48Z</time>
      </trkpt>
      <trkpt lat="46.33671" lon="11.06224">
        <ele>567.8</ele>
        <time>2012-07-29T12:33:51Z</time>
      </trkpt>
      <trkpt lat="46.33601" lon="11.06248">
        <ele>560.11</ele>
        <time>2012-07-29T12:34:18Z</time>
      </trkpt>
      <trkpt lat="46.33423" lon="11.06376">
        <ele>552.9</ele>
        <time>2012-07-29T12:42:12Z</time>
      </trkpt>
      <trkpt lat="46.33125" lon="11.06413">
        <ele>541.84</ele>
        <time>2012-07-29T12:42:37Z</time>
      </trkpt>
      <trkpt lat="46.32688" lon="11.06398">
        <ele>540.4</ele>
        <time>2012-07-29T12:43:19Z</time>
      </trkpt>
      <trkpt lat="46.32505" lon="11.06408">
        <ele>533.67</ele>
        <time>2012-07-29T12:43:34Z</time>
      </trkpt>
      <trkpt lat="46.32382" lon="11.06361">
        <ele>528.86</ele>
        <time>2012-07-29T12:43:45Z</time>
      </trkpt>
      <trkpt lat="46.32335" lon="11.06364">
        <ele>526.94</ele>
        <time>2012-07-29T12:43:49Z</time>
      </trkpt>
      <trkpt lat="46.31733" lon="11.06726">
        <ele>502.43</ele>
        <time>2012-07-29T12:44:39Z</time>
      </trkpt>
      <trkpt lat="46.31636" lon="11.06741">
        <ele>502.43</ele>
        <time>2012-07-29T12:44:47Z</time>
      </trkpt>
      <trkpt lat="46.31586" lon="11.06724">
        <ele>503.87</ele>
        <time>2012-07-29T12:44:51Z</time>
      </trkpt>
      <trkpt lat="46.31489" lon="11.06723">
        <ele>504.35</ele>
        <time>2012-07-29T12:44:58Z</time>
      </trkpt>
      <trkpt lat="46.31476" lon="11.0673">
        <ele>503.87</ele>
        <time>2012-07-29T12:44:59Z</time>
      </trkpt>
      <trkpt lat="46.3142" lon="11.06782">
        <ele>503.87</ele>
        <time>2012-07-29T12:45:04Z</time>
      </trkpt>
      <trkpt lat="46.31286" lon="11.06975">
        <ele>503.39</ele>
        <time>2012-07-29T12:45:20Z</time>
      </trkpt>
      <trkpt lat="46.31244" lon="11.07009">
        <ele>503.87</ele>
        <time>2012-07-29T12:45:24Z</time>
      </trkpt>
      <trkpt lat="46.31233" lon="11.07013">
        <ele>503.39</ele>
        <time>2012-07-29T12:45:25Z</time>
      </trkpt>
      <trkpt lat="46.31007" lon="11.07005">
        <ele>505.31</ele>
        <time>2012-07-29T12:45:41Z</time>
      </trkpt>
      <trkpt lat="46.30812" lon="11.06913">
        <ele>506.75</ele>
        <time>2012-07-29T12:45:57Z</time>
      </trkpt>
      <trkpt lat="46.30773" lon="11.06913">
        <ele>506.75</ele>
        <time>2012-07-29T12:46:00Z</time>
      </trkpt>
      <trkpt lat="46.30594" lon="11.07062">
        <ele>498.1</ele>
        <time>2012-07-29T12:46:15Z</time>
      </trkpt>
      <trkpt lat="46.30371" lon="11.07109">
        <ele>500.02</ele>
        <time>2012-07-29T12:46:31Z</time>
      </trkpt>
      <trkpt lat="46.30234" lon="11.07095">
        <ele>500.98</ele>
        <time>2012-07-29T12:46:41Z</time>
      </trkpt>
      <trkpt lat="46.298" lon="11.06918">
        <ele>495.22</ele>
        <time>2012-07-29T12:47:16Z</time>
      </trkpt>
      <trkpt lat="46.29705" lon="11.06854">
        <ele>493.77</ele>
        <time>2012-07-29T12:47:24Z</time>
      </trkpt>
      <trkpt lat="46.29347" lon="11.06691">
        <ele>487.05</ele>
        <time>2012-07-29T12:47:53Z</time>
      </trkpt>
      <trkpt lat="46.29282" lon="11.06629">
        <ele>483.68</ele>
        <time>2012-07-29T12:47:59Z</time>
      </trkpt>
      <trkpt lat="46.292" lon="11.06513">
        <ele>475.99</ele>
        <time>2012-07-29T12:48:08Z</time>
      </trkpt>
      <trkpt lat="46.29135" lon="11.06472">
        <ele>472.14</ele>
        <time>2012-07-29T12:48:14Z</time>
      </trkpt>
      <trkpt lat="46.2905" lon="11.06437">
        <ele>464.45</ele>
        <time>2012-07-29T12:48:21Z</time>
      </trkpt>
      <trkpt lat="46.28961" lon="11.06346">
        <ele>457.72</ele>
        <time>2012-07-29T12:48:30Z</time>
      </trkpt>
      <trkpt lat="46.28929" lon="11.06317">
        <ele>454.84</ele>
        <time>2012-07-29T12:48:33Z</time>
      </trkpt>
      <trkpt lat="46.28806" lon="11.06264">
        <ele>447.15</ele>
        <time>2012-07-29T12:48:42Z</time>
      </trkpt>
      <trkpt lat="46.28517" lon="11.0624">
        <ele>427.92</ele>
        <time>2012-07-29T12:49:05Z</time>
      </trkpt>
      <trkpt lat="46.28402" lon="11.06244">
        <ele>417.83</ele>
        <time>2012-07-29T12:49:14Z</time>
      </trkpt>
      <trkpt lat="46.28261" lon="11.06197">
        <ele>408.7</ele>
        <time>2012-07-29T12:49:26Z</time>
      </trkpt>
      <trkpt lat="46.28155" lon="11.06205">
        <ele>402.45</ele>
        <time>2012-07-29T12:49:35Z</time>
      </trkpt>
      <trkpt lat="46.27988" lon="11.06317">
        <ele>391.87</ele>
        <time>2012-07-29T12:49:50Z</time>
      </trkpt>
      <trkpt lat="46.2781" lon="11.06463">
        <ele>378.9</ele>
        <time>2012-07-29T12:50:06Z</time>
      </trkpt>
      <trkpt lat="46.27694" lon="11.06496">
        <ele>371.69</ele>
        <time>2012-07-29T12:50:15Z</time>
      </trkpt>
      <trkpt lat="46.27457" lon="11.06456">
        <ele>363.04</ele>
        <time>2012-07-29T12:50:31Z</time>
      </trkpt>
      <trkpt lat="46.27241" lon="11.06407">
        <ele>351.98</ele>
        <time>2012-07-29T12:50:41Z</time>
      </trkpt>
      <trkpt lat="46.27049" lon="11.06359">
        <ele>350.06</ele>
        <time>2012-07-29T12:50:50Z</time>
      </trkpt>
      <trkpt lat="46.26925" lon="11.06323">
        <ele>346.21</ele>
        <time>2012-07-29T12:50:56Z</time>
      </trkpt>
      <trkpt lat="46.268" lon="11.06273">
        <ele>344.29</ele>
        <time>2012-07-29T12:51:03Z</time>
      </trkpt>
      <trkpt lat="46.26659" lon="11.0612">
        <ele>338.52</ele>
        <time>2012-07-29T12:51:14Z</time>
      </trkpt>
      <trkpt lat="46.26489" lon="11.06079">
        <ele>338.04</ele>
        <time>2012-07-29T12:51:25Z</time>
      </trkpt>
      <trkpt lat="46.26443" lon="11.06036">
        <ele>339</ele>
        <time>2012-07-29T12:51:28Z</time>
      </trkpt>
      <trkpt lat="46.26407" lon="11.05971">
        <ele>339.48</ele>
        <time>2012-07-29T12:51:31Z</time>
      </trkpt>
      <trkpt lat="46.26362" lon="11.05878">
        <ele>336.6</ele>
        <time>2012-07-29T12:51:35Z</time>
      </trkpt>
      <trkpt lat="46.26249" lon="11.05749">
        <ele>331.31</ele>
        <time>2012-07-29T12:51:42Z</time>
      </trkpt>
      <trkpt lat="46.26126" lon="11.05686">
        <ele>322.18</ele>
        <time>2012-07-29T12:51:48Z</time>
      </trkpt>
      <trkpt lat="46.25981" lon="11.05691">
        <ele>311.12</ele>
        <time>2012-07-29T12:51:55Z</time>
      </trkpt>
      <trkpt lat="46.25744" lon="11.05841">
        <ele>304.88</ele>
        <time>2012-07-29T12:52:08Z</time>
      </trkpt>
      <trkpt lat="46.25652" lon="11.05858">
        <ele>304.39</ele>
        <time>2012-07-29T12:52:13Z</time>
      </trkpt>
      <trkpt lat="46.25291" lon="11.05791">
        <ele>301.03</ele>
        <time>2012-07-29T12:52:31Z</time>
      </trkpt>
      <trkpt lat="46.25068" lon="11.05785">
        <ele>300.07</ele>
        <time>2012-07-29T12:52:42Z</time>
      </trkpt>
      <trkpt lat="46.24987" lon="11.05807">
        <ele>298.15</ele>
        <time>2012-07-29T12:52:46Z</time>
      </trkpt>
      <trkpt lat="46.24865" lon="11.05778">
        <ele>297.18</ele>
        <time>2012-07-29T12:52:52Z</time>
      </trkpt>
      <trkpt lat="46.24625" lon="11.05668">
        <ele>292.86</ele>
        <time>2012-07-29T12:53:05Z</time>
      </trkpt>
      <trkpt lat="46.24569" lon="11.05665">
        <ele>293.82</ele>
        <time>2012-07-29T12:53:08Z</time>
      </trkpt>
      <trkpt lat="46.245" lon="11.05692">
        <ele>294.78</ele>
        <time>2012-07-29T12:53:12Z</time>
      </trkpt>
      <trkpt lat="46.24431" lon="11.05774">
        <ele>295.26</ele>
        <time>2012-07-29T12:53:17Z</time>
      </trkpt>
      <trkpt lat="46.2439" lon="11.05849">
        <ele>294.78</ele>
        <time>2012-07-29T12:53:21Z</time>
      </trkpt>
      <trkpt lat="46.24327" lon="11.05887">
        <ele>292.86</ele>
        <time>2012-07-29T12:53:26Z</time>
      </trkpt>
      <trkpt lat="46.24186" lon="11.0585">
        <ele>291.9</ele>
        <time>2012-07-29T12:53:35Z</time>
      </trkpt>
      <trkpt lat="46.24046" lon="11.05698">
        <ele>291.9</ele>
        <time>2012-07-29T12:53:46Z</time>
      </trkpt>
      <trkpt lat="46.23889" lon="11.05604">
        <ele>290.94</ele>
        <time>2012-07-29T12:53:56Z</time>
      </trkpt>
      <trkpt lat="46.23844" lon="11.05595">
        <ele>291.42</ele>
        <time>2012-07-29T12:53:59Z</time>
      </trkpt>
      <trkpt lat="46.23829" lon="11.05598">
        <ele>290.94</ele>
        <time>2012-07-29T12:54:00Z</time>
      </trkpt>
      <trkpt lat="46.23776" lon="11.05639">
        <ele>291.42</ele>
        <time>2012-07-29T12:54:04Z</time>
      </trkpt>
      <trkpt lat="46.23748" lon="11.05716">
        <ele>292.86</ele>
        <time>2012-07-29T12:54:08Z</time>
      </trkpt>
      <trkpt lat="46.23737" lon="11.05828">
        <ele>292.86</ele>
        <time>2012-07-29T12:54:14Z</time>
      </trkpt>
      <trkpt lat="46.2369" lon="11.05902">
        <ele>294.3</ele>
        <time>2012-07-29T12:54:19Z</time>
      </trkpt>
      <trkpt lat="46.23607" lon="11.05938">
        <ele>292.38</ele>
        <time>2012-07-29T12:54:25Z</time>
      </trkpt>
      <trkpt lat="46.23529" lon="11.06067">
        <ele>293.82</ele>
        <time>2012-07-29T12:54:33Z</time>
      </trkpt>
      <trkpt lat="46.23516" lon="11.0608">
        <ele>293.34</ele>
        <time>2012-07-29T12:54:34Z</time>
      </trkpt>
      <trkpt lat="46.23351" lon="11.06144">
        <ele>292.38</ele>
        <time>2012-07-29T12:54:44Z</time>
      </trkpt>
      <trkpt lat="46.23303" lon="11.06197">
        <ele>292.38</ele>
        <time>2012-07-29T12:54:48Z</time>
      </trkpt>
      <trkpt lat="46.23215" lon="11.0641">
        <ele>291.9</ele>
        <time>2012-07-29T12:54:59Z</time>
      </trkpt>
      <trkpt lat="46.23217" lon="11.06749">
        <ele>295.74</ele>
        <time>2012-07-29T12:55:15Z</time>
      </trkpt>
      <trkpt lat="46.23204" lon="11.06773">
        <ele>295.74</ele>
        <time>2012-07-29T12:55:17Z</time>
      </trkpt>
      <trkpt lat="46.23099" lon="11.06877">
        <ele>291.9</ele>
        <time>2012-07-29T12:55:27Z</time>
      </trkpt>
      <trkpt lat="46.2308" lon="11.0697">
        <ele>289.97</ele>
        <time>2012-07-29T12:55:33Z</time>
      </trkpt>
      <trkpt lat="46.23054" lon="11.07013">
        <ele>290.94</ele>
        <time>2012-07-29T12:55:36Z</time>
      </trkpt>
      <trkpt lat="46.22996" lon="11.0709">
        <ele>287.57</ele>
        <time>2012-07-29T12:55:41Z</time>
      </trkpt>
      <trkpt lat="46.22972" lon="11.07145">
        <ele>285.65</ele>
        <time>2012-07-29T12:55:44Z</time>
      </trkpt>
      <trkpt lat="46.22956" lon="11.07272">
        <ele>277.96</ele>
        <time>2012-07-29T12:55:51Z</time>
      </trkpt>
      <trkpt lat="46.22867" lon="11.0736">
        <ele>275.56</ele>
        <time>2012-07-29T12:55:58Z</time>
      </trkpt>
      <trkpt lat="46.22772" lon="11.07543">
        <ele>268.35</ele>
        <time>2012-07-29T12:56:07Z</time>
      </trkpt>
      <trkpt lat="46.2273" lon="11.07732">
        <ele>263.06</ele>
        <time>2012-07-29T12:56:16Z</time>
      </trkpt>
      <trkpt lat="46.22565" lon="11.07967">
        <ele>264.02</ele>
        <time>2012-07-29T12:56:29Z</time>
      </trkpt>
      <trkpt lat="46.22488" lon="11.08047">
        <ele>266.42</ele>
        <time>2012-07-29T12:56:34Z</time>
      </trkpt>
      <trkpt lat="46.22354" lon="11.08126">
        <ele>270.27</ele>
        <time>2012-07-29T12:56:42Z</time>
      </trkpt>
      <trkpt lat="46.22276" lon="11.0814">
        <ele>272.19</ele>
        <time>2012-07-29T12:56:48Z</time>
      </trkpt>
      <trkpt lat="46.22105" lon="11.08117">
        <ele>239.99</ele>
        <time>2012-07-29T12:59:14Z</time>
      </trkpt>
      <trkpt lat="46.19173" lon="11.09673">
        <ele>239.02</ele>
        <time>2012-07-29T12:59:43Z</time>
      </trkpt>
      <trkpt lat="46.19122" lon="11.09794">
        <ele>239.99</ele>
        <time>2012-07-29T12:59:49Z</time>
      </trkpt>
      <trkpt lat="46.19102" lon="11.1006">
        <ele>239.51</ele>
        <time>2012-07-29T13:00:00Z</time>
      </trkpt>
      <trkpt lat="46.1905" lon="11.10162">
        <ele>239.99</ele>
        <time>2012-07-29T13:00:05Z</time>
      </trkpt>
      <trkpt lat="46.1897" lon="11.10215">
        <ele>238.54</ele>
        <time>2012-07-29T13:00:10Z</time>
      </trkpt>
      <trkpt lat="46.18904" lon="11.10215">
        <ele>237.58</ele>
        <time>2012-07-29T13:00:14Z</time>
      </trkpt>
      <trkpt lat="46.18842" lon="11.1018">
        <ele>238.06</ele>
        <time>2012-07-29T13:00:18Z</time>
      </trkpt>
      <trkpt lat="46.18671" lon="11.09945">
        <ele>238.54</ele>
        <time>2012-07-29T13:00:31Z</time>
      </trkpt>
      <trkpt lat="46.17692" lon="11.09302">
        <ele>233.74</ele>
        <time>2012-07-29T13:01:20Z</time>
      </trkpt>
      <trkpt lat="46.17338" lon="11.09049">
        <ele>234.22</ele>
        <time>2012-07-29T13:01:38Z</time>
      </trkpt>
      <trkpt lat="46.17047" lon="11.08772">
        <ele>231.81</ele>
        <time>2012-07-29T13:01:54Z</time>
      </trkpt>
      <trkpt lat="46.16711" lon="11.08408">
        <ele>229.89</ele>
        <time>2012-07-29T13:02:14Z</time>
      </trkpt>
      <trkpt lat="46.16481" lon="11.08177">
        <ele>230.85</ele>
        <time>2012-07-29T13:02:28Z</time>
      </trkpt>
      <trkpt lat="46.16308" lon="11.08075">
        <ele>231.81</ele>
        <time>2012-07-29T13:02:37Z</time>
      </trkpt>
      <trkpt lat="46.16075" lon="11.07966">
        <ele>228.45</ele>
        <time>2012-07-29T13:02:49Z</time>
      </trkpt>
      <trkpt lat="46.1577" lon="11.0789">
        <ele>226.53</ele>
        <time>2012-07-29T13:03:06Z</time>
      </trkpt>
      <trkpt lat="46.15536" lon="11.07705">
        <ele>227.01</ele>
        <time>2012-07-29T13:03:30Z</time>
      </trkpt>
      <trkpt lat="46.15413" lon="11.07676">
        <ele>228.45</ele>
        <time>2012-07-29T13:03:37Z</time>
      </trkpt>
      <trkpt lat="46.14936" lon="11.07723">
        <ele>230.37</ele>
        <time>2012-07-29T13:04:01Z</time>
      </trkpt>
      <trkpt lat="46.14783" lon="11.07814">
        <ele>232.78</ele>
        <time>2012-07-29T13:04:09Z</time>
      </trkpt>
      <trkpt lat="46.14623" lon="11.07916">
        <ele>229.89</ele>
        <time>2012-07-29T13:04:18Z</time>
      </trkpt>
      <trkpt lat="46.14283" lon="11.07965">
        <ele>226.53</ele>
        <time>2012-07-29T13:04:35Z</time>
      </trkpt>
      <trkpt lat="46.14232" lon="11.08005">
        <ele>227.49</ele>
        <time>2012-07-29T13:04:38Z</time>
      </trkpt>
      <trkpt lat="46.14187" lon="11.08061">
        <ele>226.05</ele>
        <time>2012-07-29T13:04:41Z</time>
      </trkpt>
      <trkpt lat="46.14068" lon="11.0829">
        <ele>225.57</ele>
        <time>2012-07-29T13:04:52Z</time>
      </trkpt>
      <trkpt lat="46.13959" lon="11.08408">
        <ele>227.49</ele>
        <time>2012-07-29T13:04:59Z</time>
      </trkpt>
      <trkpt lat="46.13843" lon="11.08445">
        <ele>228.45</ele>
        <time>2012-07-29T13:05:05Z</time>
      </trkpt>
      <trkpt lat="46.13674" lon="11.0839">
        <ele>226.05</ele>
        <time>2012-07-29T13:05:14Z</time>
      </trkpt>
      <trkpt lat="46.13208" lon="11.08175">
        <ele>227.97</ele>
        <time>2012-07-29T13:05:36Z</time>
      </trkpt>
      <trkpt lat="46.12984" lon="11.08154">
        <ele>228.93</ele>
        <time>2012-07-29T13:05:46Z</time>
      </trkpt>
      <trkpt lat="46.12761" lon="11.08199">
        <ele>228.93</ele>
        <time>2012-07-29T13:05:56Z</time>
      </trkpt>
      <trkpt lat="46.12439" lon="11.08316">
        <ele>229.89</ele>
        <time>2012-07-29T13:06:11Z</time>
      </trkpt>
      <trkpt lat="46.12383" lon="11.08362">
        <ele>233.26</ele>
        <time>2012-07-29T13:06:14Z</time>
      </trkpt>
      <trkpt lat="46.12336" lon="11.0842">
        <ele>235.66</ele>
        <time>2012-07-29T13:06:17Z</time>
      </trkpt>
      <trkpt lat="46.12242" lon="11.08557">
        <ele>232.78</ele>
        <time>2012-07-29T13:06:24Z</time>
      </trkpt>
      <trkpt lat="46.12174" lon="11.08621">
        <ele>229.89</ele>
        <time>2012-07-29T13:06:28Z</time>
      </trkpt>
      <trkpt lat="46.11964" lon="11.08798">
        <ele>224.12</ele>
        <time>2012-07-29T13:06:39Z</time>
      </trkpt>
      <trkpt lat="46.11819" lon="11.08874">
        <ele>224.12</ele>
        <time>2012-07-29T13:06:46Z</time>
      </trkpt>
      <trkpt lat="46.11662" lon="11.08871">
        <ele>226.05</ele>
        <time>2012-07-29T13:06:53Z</time>
      </trkpt>
      <trkpt lat="46.11398" lon="11.08789">
        <ele>225.57</ele>
        <time>2012-07-29T13:07:05Z</time>
      </trkpt>
      <trkpt lat="46.11307" lon="11.08792">
        <ele>223.64</ele>
        <time>2012-07-29T13:07:09Z</time>
      </trkpt>
      <trkpt lat="46.10464" lon="11.09034">
        <ele>221.72</ele>
        <time>2012-07-29T13:07:47Z</time>
      </trkpt>
      <trkpt lat="46.10205" lon="11.0916">
        <ele>219.8</ele>
        <time>2012-07-29T13:07:59Z</time>
      </trkpt>
      <trkpt lat="46.10164" lon="11.09187">
        <ele>223.64</ele>
        <time>2012-07-29T13:08:01Z</time>
      </trkpt>
      <trkpt lat="46.10144" lon="11.09202">
        <ele>222.68</ele>
        <time>2012-07-29T13:08:02Z</time>
      </trkpt>
      <trkpt lat="46.10084" lon="11.09247">
        <ele>219.32</ele>
        <time>2012-07-29T13:08:05Z</time>
      </trkpt>
      <trkpt lat="46.10007" lon="11.09313">
        <ele>221.72</ele>
        <time>2012-07-29T13:08:09Z</time>
      </trkpt>
      <trkpt lat="46.09652" lon="11.09645">
        <ele>220.28</ele>
        <time>2012-07-29T13:08:28Z</time>
      </trkpt>
      <trkpt lat="46.0956" lon="11.09733">
        <ele>216.43</ele>
        <time>2012-07-29T13:08:33Z</time>
      </trkpt>
      <trkpt lat="46.09373" lon="11.09924">
        <ele>216.91</ele>
        <time>2012-07-29T13:08:44Z</time>
      </trkpt>
      <trkpt lat="46.09341" lon="11.09997">
        <ele>218.84</ele>
        <time>2012-07-29T13:08:47Z</time>
      </trkpt>
      <trkpt lat="46.0926" lon="11.10272">
        <ele>213.07</ele>
        <time>2012-07-29T13:08:58Z</time>
      </trkpt>
      <trkpt lat="46.09234" lon="11.10317">
        <ele>213.07</ele>
        <time>2012-07-29T13:09:01Z</time>
      </trkpt>
      <trkpt lat="46.09183" lon="11.1033">
        <ele>212.11</ele>
        <time>2012-07-29T13:09:05Z</time>
      </trkpt>
      <trkpt lat="46.09161" lon="11.10291">
        <ele>214.99</ele>
        <time>2012-07-29T13:09:08Z</time>
      </trkpt>
      <trkpt lat="46.09165" lon="11.1026">
        <ele>215.47</ele>
        <time>2012-07-29T13:09:10Z</time>
      </trkpt>
      <trkpt lat="46.09182" lon="11.1024">
        <ele>216.43</ele>
        <time>2012-07-29T13:09:12Z</time>
      </trkpt>
      <trkpt lat="46.09225" lon="11.10238">
        <ele>220.28</ele>
        <time>2012-07-29T13:09:15Z</time>
      </trkpt>
      <trkpt lat="46.0929" lon="11.10267">
        <ele>220.28</ele>
        <time>2012-07-29T13:09:20Z</time>
      </trkpt>
      <trkpt lat="46.09353" lon="11.10352">
        <ele>220.28</ele>
        <time>2012-07-29T13:09:26Z</time>
      </trkpt>
      <trkpt lat="46.09425" lon="11.10543">
        <ele>223.16</ele>
        <time>2012-07-29T13:09:35Z</time>
      </trkpt>
      <trkpt lat="46.09505" lon="11.108">
        <ele>223.16</ele>
        <time>2012-07-29T13:09:46Z</time>
      </trkpt>
      <trkpt lat="46.09621" lon="11.11428">
        <ele>220.28</ele>
        <time>2012-07-29T13:10:12Z</time>
      </trkpt>
      <trkpt lat="46.09635" lon="11.11506">
        <ele>215.95</ele>
        <time>2012-07-29T13:10:15Z</time>
      </trkpt>
      <trkpt lat="46.09646" lon="11.11753">
        <ele>215.95</ele>
        <time>2012-07-29T13:10:24Z</time>
      </trkpt>
      <trkpt lat="46.09583" lon="11.11991">
        <ele>220.28</ele>
        <time>2012-07-29T13:10:33Z</time>
      </trkpt>
      <trkpt lat="46.0952" lon="11.12101">
        <ele>225.57</ele>
        <time>2012-07-29T13:10:38Z</time>
      </trkpt>
      <trkpt lat="46.0943" lon="11.12161">
        <ele>230.37</ele>
        <time>2012-07-29T13:10:43Z</time>
      </trkpt>
      <trkpt lat="46.09248" lon="11.12202">
        <ele>241.91</ele>
        <time>2012-07-29T13:10:52Z</time>
      </trkpt>
      <trkpt lat="46.09084" lon="11.1227">
        <ele>249.6</ele>
        <time>2012-07-29T13:11:01Z</time>
      </trkpt>
      <trkpt lat="46.08974" lon="11.12369">
        <ele>255.37</ele>
        <time>2012-07-29T13:11:09Z</time>
      </trkpt>
      <trkpt lat="46.08954" lon="11.12402">
        <ele>290.94</ele>
        <time>2012-07-29T13:11:48Z</time>
      </trkpt>
      <trkpt lat="46.08942" lon="11.12419">
        <ele>303.43</ele>
        <time>2012-07-29T13:12:01Z</time>
      </trkpt>
      <trkpt lat="46.08832" lon="11.12567">
        <ele>362.55</ele>
        <time>2012-07-29T13:13:00Z</time>
      </trkpt>
      <trkpt lat="46.08802" lon="11.12608">
        <ele>371.69</ele>
        <time>2012-07-29T13:13:32Z</time>
      </trkpt>
      <trkpt lat="46.07784" lon="11.15536">
        <ele>372.65</ele>
        <time>2012-07-29T13:13:35Z</time>
      </trkpt>
      <trkpt lat="46.07793" lon="11.15784">
        <ele>376.01</ele>
        <time>2012-07-29T13:13:44Z</time>
      </trkpt>
      <trkpt lat="46.07823" lon="11.15911">
        <ele>377.94</ele>
        <time>2012-07-29T13:13:49Z</time>
      </trkpt>
      <trkpt lat="46.0788" lon="11.16015">
        <ele>378.42</ele>
        <time>2012-07-29T13:13:54Z</time>
      </trkpt>
      <trkpt lat="46.08039" lon="11.16204">
        <ele>380.82</ele>
        <time>2012-07-29T13:14:05Z</time>
      </trkpt>
      <trkpt lat="46.08115" lon="11.16365">
        <ele>397.16</ele>
        <time>2012-07-29T13:15:03Z</time>
      </trkpt>
      <trkpt lat="46.083" lon="11.17867">
        <ele>398.6</ele>
        <time>2012-07-29T13:15:12Z</time>
      </trkpt>
      <trkpt lat="46.08292" lon="11.18129">
        <ele>402.45</ele>
        <time>2012-07-29T13:15:23Z</time>
      </trkpt>
      <trkpt lat="46.08305" lon="11.18345">
        <ele>403.89</ele>
        <time>2012-07-29T13:15:32Z</time>
      </trkpt>
      <trkpt lat="46.08224" lon="11.1864">
        <ele>405.81</ele>
        <time>2012-07-29T13:15:46Z</time>
      </trkpt>
      <trkpt lat="46.08238" lon="11.19003">
        <ele>407.74</ele>
        <time>2012-07-29T13:16:01Z</time>
      </trkpt>
      <trkpt lat="46.08188" lon="11.19611">
        <ele>424.08</ele>
        <time>2012-07-29T13:16:28Z</time>
      </trkpt>
      <trkpt lat="46.08181" lon="11.1967">
        <ele>425.04</ele>
        <time>2012-07-29T13:16:30Z</time>
      </trkpt>
      <trkpt lat="46.08169" lon="11.19727">
        <ele>425.04</ele>
        <time>2012-07-29T13:16:32Z</time>
      </trkpt>
      <trkpt lat="46.07982" lon="11.20146">
        <ele>434.65</ele>
        <time>2012-07-29T13:16:49Z</time>
      </trkpt>
      <trkpt lat="46.07842" lon="11.20339">
        <ele>440.42</ele>
        <time>2012-07-29T13:16:58Z</time>
      </trkpt>
      <trkpt lat="46.07736" lon="11.20485">
        <ele>443.79</ele>
        <time>2012-07-29T13:17:05Z</time>
      </trkpt>
      <trkpt lat="46.07637" lon="11.20676">
        <ele>442.82</ele>
        <time>2012-07-29T13:17:13Z</time>
      </trkpt>
      <trkpt lat="46.07531" lon="11.20987">
        <ele>446.67</ele>
        <time>2012-07-29T13:17:26Z</time>
      </trkpt>
      <trkpt lat="46.07438" lon="11.21167">
        <ele>451.48</ele>
        <time>2012-07-29T13:17:33Z</time>
      </trkpt>
      <trkpt lat="46.07222" lon="11.21554">
        <ele>455.32</ele>
        <time>2012-07-29T13:17:50Z</time>
      </trkpt>
      <trkpt lat="46.0671" lon="11.22231">
        <ele>474.55</ele>
        <time>2012-07-29T13:18:30Z</time>
      </trkpt>
      <trkpt lat="46.06638" lon="11.22327">
        <ele>476.47</ele>
        <time>2012-07-29T13:18:35Z</time>
      </trkpt>
      <trkpt lat="46.06448" lon="11.22577">
        <ele>472.63</ele>
        <time>2012-07-29T13:18:48Z</time>
      </trkpt>
      <trkpt lat="46.06294" lon="11.22721">
        <ele>470.7</ele>
        <time>2012-07-29T13:18:58Z</time>
      </trkpt>
      <trkpt lat="46.0604" lon="11.22909">
        <ele>475.03</ele>
        <time>2012-07-29T13:19:13Z</time>
      </trkpt>
      <trkpt lat="46.06025" lon="11.22922">
        <ele>475.03</ele>
        <time>2012-07-29T13:19:14Z</time>
      </trkpt>
      <trkpt lat="46.059" lon="11.23007">
        <ele>472.14</ele>
        <time>2012-07-29T13:19:23Z</time>
      </trkpt>
      <trkpt lat="46.0584" lon="11.2302">
        <ele>472.63</ele>
        <time>2012-07-29T13:19:33Z</time>
      </trkpt>
      <trkpt lat="46.05822" lon="11.23026">
        <ele>470.7</ele>
        <time>2012-07-29T13:21:49Z</time>
      </trkpt>
      <trkpt lat="46.05834" lon="11.23013">
        <ele>471.18</ele>
        <time>2012-07-29T13:23:18Z</time>
      </trkpt>
      <trkpt lat="46.0582" lon="11.23027">
        <ele>472.14</ele>
        <time>2012-07-29T13:24:40Z</time>
      </trkpt>
      <trkpt lat="46.05833" lon="11.23042">
        <ele>471.66</ele>
        <time>2012-07-29T13:35:15Z</time>
      </trkpt>
      <trkpt lat="46.05823" lon="11.23059">
        <ele>472.63</ele>
        <time>2012-07-29T13:35:18Z</time>
      </trkpt>
      <trkpt lat="46.0565" lon="11.23192">
        <ele>476.95</ele>
        <time>2012-07-29T13:35:31Z</time>
      </trkpt>
      <trkpt lat="46.05421" lon="11.23311">
        <ele>481.28</ele>
        <time>2012-07-29T13:35:43Z</time>
      </trkpt>
      <trkpt lat="46.05107" lon="11.23451">
        <ele>478.87</ele>
        <time>2012-07-29T13:35:59Z</time>
      </trkpt>
      <trkpt lat="46.04919" lon="11.23507">
        <ele>468.78</ele>
        <time>2012-07-29T13:36:10Z</time>
      </trkpt>
      <trkpt lat="46.04788" lon="11.23522">
        <ele>470.7</ele>
        <time>2012-07-29T13:36:17Z</time>
      </trkpt>
      <trkpt lat="46.04252" lon="11.23566">
        <ele>465.42</ele>
        <time>2012-07-29T13:36:44Z</time>
      </trkpt>
      <trkpt lat="46.0413" lon="11.23641">
        <ele>465.42</ele>
        <time>2012-07-29T13:36:51Z</time>
      </trkpt>
      <trkpt lat="46.04077" lon="11.2372">
        <ele>465.42</ele>
        <time>2012-07-29T13:36:55Z</time>
      </trkpt>
      <trkpt lat="46.0404" lon="11.23814">
        <ele>465.9</ele>
        <time>2012-07-29T13:36:59Z</time>
      </trkpt>
      <trkpt lat="46.0392" lon="11.24261">
        <ele>463.97</ele>
        <time>2012-07-29T13:37:19Z</time>
      </trkpt>
      <trkpt lat="46.03865" lon="11.24324">
        <ele>464.45</ele>
        <time>2012-07-29T13:37:23Z</time>
      </trkpt>
      <trkpt lat="46.03743" lon="11.24358">
        <ele>466.38</ele>
        <time>2012-07-29T13:37:30Z</time>
      </trkpt>
      <trkpt lat="46.03645" lon="11.24423">
        <ele>465.42</ele>
        <time>2012-07-29T13:37:36Z</time>
      </trkpt>
      <trkpt lat="46.0348" lon="11.24415">
        <ele>465.9</ele>
        <time>2012-07-29T13:37:46Z</time>
      </trkpt>
      <trkpt lat="46.03301" lon="11.24515">
        <ele>467.34</ele>
        <time>2012-07-29T13:37:57Z</time>
      </trkpt>
      <trkpt lat="46.03122" lon="11.24522">
        <ele>469.26</ele>
        <time>2012-07-29T13:38:07Z</time>
      </trkpt>
      <trkpt lat="46.02933" lon="11.24605">
        <ele>468.78</ele>
        <time>2012-07-29T13:38:18Z</time>
      </trkpt>
      <trkpt lat="46.02483" lon="11.24564">
        <ele>468.78</ele>
        <time>2012-07-29T13:38:46Z</time>
      </trkpt>
      <trkpt lat="46.02294" lon="11.24825">
        <ele>468.78</ele>
        <time>2012-07-29T13:39:00Z</time>
      </trkpt>
      <trkpt lat="46.02103" lon="11.25063">
        <ele>471.18</ele>
        <time>2012-07-29T13:39:13Z</time>
      </trkpt>
      <trkpt lat="46.01797" lon="11.25658">
        <ele>472.63</ele>
        <time>2012-07-29T13:39:40Z</time>
      </trkpt>
      <trkpt lat="46.01732" lon="11.25715">
        <ele>473.11</ele>
        <time>2012-07-29T13:39:44Z</time>
      </trkpt>
      <trkpt lat="46.01594" lon="11.25832">
        <ele>472.14</ele>
        <time>2012-07-29T13:39:52Z</time>
      </trkpt>
      <trkpt lat="46.01353" lon="11.26092">
        <ele>470.7</ele>
        <time>2012-07-29T13:40:07Z</time>
      </trkpt>
      <trkpt lat="46.0117" lon="11.26274">
        <ele>469.26</ele>
        <time>2012-07-29T13:40:18Z</time>
      </trkpt>
      <trkpt lat="46.00978" lon="11.26366">
        <ele>469.26</ele>
        <time>2012-07-29T13:40:28Z</time>
      </trkpt>
      <trkpt lat="46.00961" lon="11.26382">
        <ele>468.78</ele>
        <time>2012-07-29T13:40:29Z</time>
      </trkpt>
      <trkpt lat="46.00754" lon="11.26668">
        <ele>465.42</ele>
        <time>2012-07-29T13:40:43Z</time>
      </trkpt>
      <trkpt lat="46.00528" lon="11.27304">
        <ele>467.34</ele>
        <time>2012-07-29T13:41:07Z</time>
      </trkpt>
      <trkpt lat="46.00399" lon="11.27731">
        <ele>467.82</ele>
        <time>2012-07-29T13:41:22Z</time>
      </trkpt>
      <trkpt lat="46.0032" lon="11.28088">
        <ele>467.82</ele>
        <time>2012-07-29T13:41:34Z</time>
      </trkpt>
      <trkpt lat="46.0029" lon="11.28238">
        <ele>464.93</ele>
        <time>2012-07-29T13:41:39Z</time>
      </trkpt>
      <trkpt lat="46.00241" lon="11.28577">
        <ele>466.86</ele>
        <time>2012-07-29T13:41:50Z</time>
      </trkpt>
      <trkpt lat="46.00258" lon="11.2887">
        <ele>465.9</ele>
        <time>2012-07-29T13:42:00Z</time>
      </trkpt>
      <trkpt lat="46.00266" lon="11.28988">
        <ele>463.01</ele>
        <time>2012-07-29T13:42:04Z</time>
      </trkpt>
      <trkpt lat="46.00283" lon="11.29292">
        <ele>458.21</ele>
        <time>2012-07-29T13:42:14Z</time>
      </trkpt>
      <trkpt lat="46.00324" lon="11.29624">
        <ele>457.24</ele>
        <time>2012-07-29T13:42:25Z</time>
      </trkpt>
      <trkpt lat="46.00397" lon="11.30043">
        <ele>456.76</ele>
        <time>2012-07-29T13:42:39Z</time>
      </trkpt>
      <trkpt lat="46.00389" lon="11.31048">
        <ele>462.05</ele>
        <time>2012-07-29T13:43:11Z</time>
      </trkpt>
      <trkpt lat="46.00411" lon="11.31266">
        <ele>460.13</ele>
        <time>2012-07-29T13:43:18Z</time>
      </trkpt>
      <trkpt lat="46.00457" lon="11.31504">
        <ele>459.17</ele>
        <time>2012-07-29T13:43:26Z</time>
      </trkpt>
      <trkpt lat="46.00548" lon="11.31795">
        <ele>459.17</ele>
        <time>2012-07-29T13:43:36Z</time>
      </trkpt>
      <trkpt lat="46.00715" lon="11.32181">
        <ele>459.17</ele>
        <time>2012-07-29T13:43:50Z</time>
      </trkpt>
      <trkpt lat="46.00794" lon="11.32342">
        <ele>456.28</ele>
        <time>2012-07-29T13:43:56Z</time>
      </trkpt>
      <trkpt lat="46.0089" lon="11.32478">
        <ele>454.36</ele>
        <time>2012-07-29T13:44:02Z</time>
      </trkpt>
      <trkpt lat="46.01084" lon="11.32649">
        <ele>450.52</ele>
        <time>2012-07-29T13:44:13Z</time>
      </trkpt>
      <trkpt lat="46.01217" lon="11.328">
        <ele>449.07</ele>
        <time>2012-07-29T13:44:21Z</time>
      </trkpt>
      <trkpt lat="46.01318" lon="11.33005">
        <ele>447.63</ele>
        <time>2012-07-29T13:44:29Z</time>
      </trkpt>
      <trkpt lat="46.01633" lon="11.33825">
        <ele>462.53</ele>
        <time>2012-07-29T13:44:57Z</time>
      </trkpt>
      <trkpt lat="46.017" lon="11.34113">
        <ele>460.13</ele>
        <time>2012-07-29T13:45:06Z</time>
      </trkpt>
      <trkpt lat="46.01865" lon="11.35435">
        <ele>469.74</ele>
        <time>2012-07-29T13:45:47Z</time>
      </trkpt>
      <trkpt lat="46.0196" lon="11.36238">
        <ele>469.26</ele>
        <time>2012-07-29T13:46:12Z</time>
      </trkpt>
      <trkpt lat="46.02049" lon="11.36579">
        <ele>469.26</ele>
        <time>2012-07-29T13:46:23Z</time>
      </trkpt>
      <trkpt lat="46.02111" lon="11.36792">
        <ele>467.82</ele>
        <time>2012-07-29T13:46:30Z</time>
      </trkpt>
      <trkpt lat="46.02185" lon="11.36959">
        <ele>466.38</ele>
        <time>2012-07-29T13:46:36Z</time>
      </trkpt>
      <trkpt lat="46.02253" lon="11.37051">
        <ele>463.01</ele>
        <time>2012-07-29T13:46:40Z</time>
      </trkpt>
      <trkpt lat="46.02707" lon="11.37446">
        <ele>447.63</ele>
        <time>2012-07-29T13:47:03Z</time>
      </trkpt>
      <trkpt lat="46.02806" lon="11.3759">
        <ele>443.79</ele>
        <time>2012-07-29T13:47:09Z</time>
      </trkpt>
      <trkpt lat="46.02869" lon="11.3777">
        <ele>443.31</ele>
        <time>2012-07-29T13:47:15Z</time>
      </trkpt>
      <trkpt lat="46.02898" lon="11.38031">
        <ele>443.79</ele>
        <time>2012-07-29T13:47:23Z</time>
      </trkpt>
      <trkpt lat="46.02926" lon="11.38521">
        <ele>444.27</ele>
        <time>2012-07-29T13:47:38Z</time>
      </trkpt>
      <trkpt lat="46.02915" lon="11.38778">
        <ele>444.75</ele>
        <time>2012-07-29T13:47:46Z</time>
      </trkpt>
      <trkpt lat="46.0292" lon="11.3881">
        <ele>444.75</ele>
        <time>2012-07-29T13:47:47Z</time>
      </trkpt>
      <trkpt lat="46.02959" lon="11.38931">
        <ele>441.86</ele>
        <time>2012-07-29T13:47:51Z</time>
      </trkpt>
      <trkpt lat="46.03005" lon="11.39007">
        <ele>440.9</ele>
        <time>2012-07-29T13:47:54Z</time>
      </trkpt>
      <trkpt lat="46.03189" lon="11.39205">
        <ele>438.5</ele>
        <time>2012-07-29T13:48:04Z</time>
      </trkpt>
      <trkpt lat="46.03417" lon="11.39486">
        <ele>437.06</ele>
        <time>2012-07-29T13:48:17Z</time>
      </trkpt>
      <trkpt lat="46.03502" lon="11.396">
        <ele>434.17</ele>
        <time>2012-07-29T13:48:22Z</time>
      </trkpt>
      <trkpt lat="46.03683" lon="11.39889">
        <ele>436.1</ele>
        <time>2012-07-29T13:48:34Z</time>
      </trkpt>
      <trkpt lat="46.03867" lon="11.40213">
        <ele>437.06</ele>
        <time>2012-07-29T13:48:47Z</time>
      </trkpt>
      <trkpt lat="46.03924" lon="11.40428">
        <ele>436.1</ele>
        <time>2012-07-29T13:48:54Z</time>
      </trkpt>
      <trkpt lat="46.03948" lon="11.40722">
        <ele>436.58</ele>
        <time>2012-07-29T13:49:03Z</time>
      </trkpt>
      <trkpt lat="46.03972" lon="11.41068">
        <ele>435.13</ele>
        <time>2012-07-29T13:49:14Z</time>
      </trkpt>
      <trkpt lat="46.04003" lon="11.41262">
        <ele>434.17</ele>
        <time>2012-07-29T13:49:20Z</time>
      </trkpt>
      <trkpt lat="46.04082" lon="11.41511">
        <ele>430.81</ele>
        <time>2012-07-29T13:49:28Z</time>
      </trkpt>
      <trkpt lat="46.04204" lon="11.41825">
        <ele>427.44</ele>
        <time>2012-07-29T13:49:39Z</time>
      </trkpt>
      <trkpt lat="46.04487" lon="11.42363">
        <ele>419.27</ele>
        <time>2012-07-29T13:49:59Z</time>
      </trkpt>
      <trkpt lat="46.0462" lon="11.42671">
        <ele>419.75</ele>
        <time>2012-07-29T13:50:10Z</time>
      </trkpt>
      <trkpt lat="46.04643" lon="11.42794">
        <ele>419.75</ele>
        <time>2012-07-29T13:50:14Z</time>
      </trkpt>
      <trkpt lat="46.04652" lon="11.42891">
        <ele>423.12</ele>
        <time>2012-07-29T13:50:17Z</time>
      </trkpt>
      <trkpt lat="46.04644" lon="11.43089">
        <ele>423.12</ele>
        <time>2012-07-29T13:50:23Z</time>
      </trkpt>
      <trkpt lat="46.04594" lon="11.43519">
        <ele>423.6</ele>
        <time>2012-07-29T13:50:36Z</time>
      </trkpt>
      <trkpt lat="46.04591" lon="11.43684">
        <ele>424.08</ele>
        <time>2012-07-29T13:50:41Z</time>
      </trkpt>
      <trkpt lat="46.04628" lon="11.44133">
        <ele>439.46</ele>
        <time>2012-07-29T13:50:55Z</time>
      </trkpt>
      <trkpt lat="46.04649" lon="11.44327">
        <ele>443.31</ele>
        <time>2012-07-29T13:51:01Z</time>
      </trkpt>
      <trkpt lat="46.04653" lon="11.44359">
        <ele>443.31</ele>
        <time>2012-07-29T13:51:02Z</time>
      </trkpt>
      <trkpt lat="46.04675" lon="11.44754">
        <ele>439.46</ele>
        <time>2012-07-29T13:51:14Z</time>
      </trkpt>
      <trkpt lat="46.04657" lon="11.44914">
        <ele>438.98</ele>
        <time>2012-07-29T13:51:19Z</time>
      </trkpt>
      <trkpt lat="46.04614" lon="11.45155">
        <ele>436.1</ele>
        <time>2012-07-29T13:51:26Z</time>
      </trkpt>
      <trkpt lat="46.04674" lon="11.44828">
        <ele>437.06</ele>
        <time>2012-07-29T13:51:27Z</time>
      </trkpt>
      <trkpt lat="46.04671" lon="11.44888">
        <ele>433.69</ele>
        <time>2012-07-29T13:51:37Z</time>
      </trkpt>
      <trkpt lat="46.04671" lon="11.44892">
        <ele>429.37</ele>
        <time>2012-07-29T13:51:44Z</time>
      </trkpt>
      <trkpt lat="46.0467" lon="11.44875">
        <ele>433.21</ele>
        <time>2012-07-29T13:51:45Z</time>
      </trkpt>
      <trkpt lat="46.04547" lon="11.45791">
        <ele>430.81</ele>
        <time>2012-07-29T13:51:46Z</time>
      </trkpt>
      <trkpt lat="46.04501" lon="11.46453">
        <ele>430.33</ele>
        <time>2012-07-29T13:52:07Z</time>
      </trkpt>
      <trkpt lat="46.04512" lon="11.46549">
        <ele>432.25</ele>
        <time>2012-07-29T13:52:10Z</time>
      </trkpt>
      <trkpt lat="46.04569" lon="11.46762">
        <ele>432.25</ele>
        <time>2012-07-29T13:52:17Z</time>
      </trkpt>
      <trkpt lat="46.0469" lon="11.47068">
        <ele>425.04</ele>
        <time>2012-07-29T13:52:27Z</time>
      </trkpt>
      <trkpt lat="46.04915" lon="11.47631">
        <ele>403.41</ele>
        <time>2012-07-29T13:52:45Z</time>
      </trkpt>
      <trkpt lat="46.04976" lon="11.47785">
        <ele>400.53</ele>
        <time>2012-07-29T13:52:50Z</time>
      </trkpt>
      <trkpt lat="46.04999" lon="11.47847">
        <ele>396.68</ele>
        <time>2012-07-29T13:52:52Z</time>
      </trkpt>
      <trkpt lat="46.05073" lon="11.48148">
        <ele>393.8</ele>
        <time>2012-07-29T13:53:01Z</time>
      </trkpt>
      <trkpt lat="46.0512" lon="11.48737">
        <ele>382.26</ele>
        <time>2012-07-29T13:53:18Z</time>
      </trkpt>
      <trkpt lat="46.05111" lon="11.49044">
        <ele>383.22</ele>
        <time>2012-07-29T13:53:27Z</time>
      </trkpt>
      <trkpt lat="46.05067" lon="11.49582">
        <ele>382.26</ele>
        <time>2012-07-29T13:53:43Z</time>
      </trkpt>
      <trkpt lat="46.05042" lon="11.49885">
        <ele>378.9</ele>
        <time>2012-07-29T13:53:52Z</time>
      </trkpt>
      <trkpt lat="46.05038" lon="11.50056">
        <ele>374.57</ele>
        <time>2012-07-29T13:53:57Z</time>
      </trkpt>
      <trkpt lat="46.05045" lon="11.50158">
        <ele>373.13</ele>
        <time>2012-07-29T13:54:00Z</time>
      </trkpt>
      <trkpt lat="46.0515" lon="11.50697">
        <ele>377.94</ele>
        <time>2012-07-29T13:54:17Z</time>
      </trkpt>
      <trkpt lat="46.05212" lon="11.50993">
        <ele>374.57</ele>
        <time>2012-07-29T13:54:27Z</time>
      </trkpt>
      <trkpt lat="46.05216" lon="11.51096">
        <ele>373.61</ele>
        <time>2012-07-29T13:54:31Z</time>
      </trkpt>
      <trkpt lat="46.05208" lon="11.51178">
        <ele>370.73</ele>
        <time>2012-07-29T13:54:34Z</time>
      </trkpt>
      <trkpt lat="46.05003" lon="11.52126">
        <ele>376.49</ele>
        <time>2012-07-29T13:55:17Z</time>
      </trkpt>
      <trkpt lat="46.04855" lon="11.52799">
        <ele>358.23</ele>
        <time>2012-07-29T13:55:42Z</time>
      </trkpt>
      <trkpt lat="46.04794" lon="11.53047">
        <ele>354.38</ele>
        <time>2012-07-29T13:55:51Z</time>
      </trkpt>
      <trkpt lat="46.04538" lon="11.53708">
        <ele>339.48</ele>
        <time>2012-07-29T13:56:17Z</time>
      </trkpt>
      <trkpt lat="46.04289" lon="11.54271">
        <ele>331.79</ele>
        <time>2012-07-29T13:56:40Z</time>
      </trkpt>
      <trkpt lat="46.04181" lon="11.54614">
        <ele>328.91</ele>
        <time>2012-07-29T13:56:54Z</time>
      </trkpt>
      <trkpt lat="46.03528" lon="11.56268">
        <ele>316.41</ele>
        <time>2012-07-29T13:58:08Z</time>
      </trkpt>
      <trkpt lat="46.03371" lon="11.56673">
        <ele>310.64</ele>
        <time>2012-07-29T13:58:26Z</time>
      </trkpt>
      <trkpt lat="46.03196" lon="11.57403">
        <ele>311.6</ele>
        <time>2012-07-29T13:58:49Z</time>
      </trkpt>
      <trkpt lat="46.02996" lon="11.58151">
        <ele>303.91</ele>
        <time>2012-07-29T13:59:11Z</time>
      </trkpt>
      <trkpt lat="46.02886" lon="11.58385">
        <ele>302.95</ele>
        <time>2012-07-29T13:59:19Z</time>
      </trkpt>
      <trkpt lat="46.02405" lon="11.59257">
        <ele>292.38</ele>
        <time>2012-07-29T13:59:50Z</time>
      </trkpt>
      <trkpt lat="46.02277" lon="11.59555">
        <ele>290.46</ele>
        <time>2012-07-29T14:00:00Z</time>
      </trkpt>
      <trkpt lat="46.02101" lon="11.60102">
        <ele>288.05</ele>
        <time>2012-07-29T14:00:17Z</time>
      </trkpt>
      <trkpt lat="46.02007" lon="11.60482">
        <ele>288.53</ele>
        <time>2012-07-29T14:00:29Z</time>
      </trkpt>
      <trkpt lat="46.01934" lon="11.60727">
        <ele>284.69</ele>
        <time>2012-07-29T14:00:37Z</time>
      </trkpt>
      <trkpt lat="46.01889" lon="11.60809">
        <ele>287.09</ele>
        <time>2012-07-29T14:00:40Z</time>
      </trkpt>
      <trkpt lat="46.01769" lon="11.60965">
        <ele>289.01</ele>
        <time>2012-07-29T14:00:47Z</time>
      </trkpt>
      <trkpt lat="46.01612" lon="11.61178">
        <ele>288.53</ele>
        <time>2012-07-29T14:00:56Z</time>
      </trkpt>
      <trkpt lat="46.01515" lon="11.61384">
        <ele>286.61</ele>
        <time>2012-07-29T14:01:03Z</time>
      </trkpt>
      <trkpt lat="46.01377" lon="11.62045">
        <ele>279.4</ele>
        <time>2012-07-29T14:01:22Z</time>
      </trkpt>
      <trkpt lat="46.01235" lon="11.63036">
        <ele>277.96</ele>
        <time>2012-07-29T14:01:51Z</time>
      </trkpt>
      <trkpt lat="46.0119" lon="11.63759">
        <ele>278.92</ele>
        <time>2012-07-29T14:02:12Z</time>
      </trkpt>
      <trkpt lat="46.01177" lon="11.63968">
        <ele>277.48</ele>
        <time>2012-07-29T14:02:18Z</time>
      </trkpt>
      <trkpt lat="46.01153" lon="11.6411">
        <ele>275.56</ele>
        <time>2012-07-29T14:02:22Z</time>
      </trkpt>
      <trkpt lat="46.01076" lon="11.64334">
        <ele>273.15</ele>
        <time>2012-07-29T14:02:29Z</time>
      </trkpt>
      <trkpt lat="46.00997" lon="11.64476">
        <ele>271.23</ele>
        <time>2012-07-29T14:02:34Z</time>
      </trkpt>
      <trkpt lat="46.00546" lon="11.65113">
        <ele>266.9</ele>
        <time>2012-07-29T14:03:00Z</time>
      </trkpt>
      <trkpt lat="46.00429" lon="11.65539">
        <ele>268.35</ele>
        <time>2012-07-29T14:03:13Z</time>
      </trkpt>
      <trkpt lat="46.00305" lon="11.66038">
        <ele>267.38</ele>
        <time>2012-07-29T14:03:28Z</time>
      </trkpt>
      <trkpt lat="46.00212" lon="11.66244">
        <ele>263.54</ele>
        <time>2012-07-29T14:03:35Z</time>
      </trkpt>
      <trkpt lat="46.0012" lon="11.66362">
        <ele>262.58</ele>
        <time>2012-07-29T14:03:40Z</time>
      </trkpt>
      <trkpt lat="45.99961" lon="11.66471">
        <ele>259.69</ele>
        <time>2012-07-29T14:03:47Z</time>
      </trkpt>
      <trkpt lat="45.99474" lon="11.66666">
        <ele>254.89</ele>
        <time>2012-07-29T14:04:07Z</time>
      </trkpt>
      <trkpt lat="45.99174" lon="11.6687">
        <ele>256.33</ele>
        <time>2012-07-29T14:04:20Z</time>
      </trkpt>
      <trkpt lat="45.98854" lon="11.67169">
        <ele>255.85</ele>
        <time>2012-07-29T14:04:35Z</time>
      </trkpt>
      <trkpt lat="45.98511" lon="11.67533">
        <ele>262.58</ele>
        <time>2012-07-29T14:04:52Z</time>
      </trkpt>
      <trkpt lat="45.98374" lon="11.67629">
        <ele>267.38</ele>
        <time>2012-07-29T14:04:58Z</time>
      </trkpt>
      <trkpt lat="45.97797" lon="11.67869">
        <ele>255.85</ele>
        <time>2012-07-29T14:05:22Z</time>
      </trkpt>
      <trkpt lat="45.9761" lon="11.68043">
        <ele>258.25</ele>
        <time>2012-07-29T14:05:31Z</time>
      </trkpt>
      <trkpt lat="45.97548" lon="11.68103">
        <ele>254.89</ele>
        <time>2012-07-29T14:05:34Z</time>
      </trkpt>
      <trkpt lat="45.97419" lon="11.68196">
        <ele>251.04</ele>
        <time>2012-07-29T14:05:40Z</time>
      </trkpt>
      <trkpt lat="45.97185" lon="11.6836">
        <ele>251.04</ele>
        <time>2012-07-29T14:05:50Z</time>
      </trkpt>
      <trkpt lat="45.97119" lon="11.68405">
        <ele>248.64</ele>
        <time>2012-07-29T14:05:53Z</time>
      </trkpt>
      <trkpt lat="45.96936" lon="11.68479">
        <ele>254.89</ele>
        <time>2012-07-29T14:06:01Z</time>
      </trkpt>
      <trkpt lat="45.96858" lon="11.68519">
        <ele>248.16</ele>
        <time>2012-07-29T14:06:05Z</time>
      </trkpt>
      <trkpt lat="45.96696" lon="11.68648">
        <ele>245.27</ele>
        <time>2012-07-29T14:06:12Z</time>
      </trkpt>
      <trkpt lat="45.96586" lon="11.68774">
        <ele>243.83</ele>
        <time>2012-07-29T14:06:18Z</time>
      </trkpt>
      <trkpt lat="45.96399" lon="11.69143">
        <ele>239.02</ele>
        <time>2012-07-29T14:06:32Z</time>
      </trkpt>
      <trkpt lat="45.9636" lon="11.69257">
        <ele>239.99</ele>
        <time>2012-07-29T14:06:36Z</time>
      </trkpt>
      <trkpt lat="45.96333" lon="11.6948">
        <ele>241.91</ele>
        <time>2012-07-29T14:06:43Z</time>
      </trkpt>
      <trkpt lat="45.9636" lon="11.69709">
        <ele>240.95</ele>
        <time>2012-07-29T14:06:50Z</time>
      </trkpt>
      <trkpt lat="45.96398" lon="11.69998">
        <ele>238.54</ele>
        <time>2012-07-29T14:06:59Z</time>
      </trkpt>
      <trkpt lat="45.96385" lon="11.70156">
        <ele>237.58</ele>
        <time>2012-07-29T14:07:04Z</time>
      </trkpt>
      <trkpt lat="45.9634" lon="11.70337">
        <ele>234.7</ele>
        <time>2012-07-29T14:07:10Z</time>
      </trkpt>
      <trkpt lat="45.96252" lon="11.70566">
        <ele>235.18</ele>
        <time>2012-07-29T14:07:18Z</time>
      </trkpt>
      <trkpt lat="45.96129" lon="11.70712">
        <ele>232.78</ele>
        <time>2012-07-29T14:07:25Z</time>
      </trkpt>
      <trkpt lat="45.95782" lon="11.71043">
        <ele>236.62</ele>
        <time>2012-07-29T14:07:43Z</time>
      </trkpt>
      <trkpt lat="45.95667" lon="11.71145">
        <ele>233.26</ele>
        <time>2012-07-29T14:07:49Z</time>
      </trkpt>
      <trkpt lat="45.95516" lon="11.71352">
        <ele>229.89</ele>
        <time>2012-07-29T14:07:59Z</time>
      </trkpt>
      <trkpt lat="45.95478" lon="11.71448">
        <ele>230.85</ele>
        <time>2012-07-29T14:08:03Z</time>
      </trkpt>
      <trkpt lat="45.95438" lon="11.71764">
        <ele>233.26</ele>
        <time>2012-07-29T14:08:15Z</time>
      </trkpt>
      <trkpt lat="45.95427" lon="11.71841">
        <ele>229.89</ele>
        <time>2012-07-29T14:08:18Z</time>
      </trkpt>
      <trkpt lat="45.95365" lon="11.72019">
        <ele>228.45</ele>
        <time>2012-07-29T14:08:26Z</time>
      </trkpt>
      <trkpt lat="45.95141" lon="11.72376">
        <ele>228.45</ele>
        <time>2012-07-29T14:08:52Z</time>
      </trkpt>
      <trkpt lat="45.95034" lon="11.7244">
        <ele>230.85</ele>
        <time>2012-07-29T14:09:03Z</time>
      </trkpt>
      <trkpt lat="45.94959" lon="11.72477">
        <ele>229.89</ele>
        <time>2012-07-29T14:09:17Z</time>
      </trkpt>
      <trkpt lat="45.94931" lon="11.72529">
        <ele>231.81</ele>
        <time>2012-07-29T14:09:47Z</time>
      </trkpt>
      <trkpt lat="45.94899" lon="11.7255">
        <ele>231.33</ele>
        <time>2012-07-29T14:09:49Z</time>
      </trkpt>
      <trkpt lat="45.94731" lon="11.72625">
        <ele>228.45</ele>
        <time>2012-07-29T14:09:57Z</time>
      </trkpt>
      <trkpt lat="45.94574" lon="11.72658">
        <ele>226.05</ele>
        <time>2012-07-29T14:10:04Z</time>
      </trkpt>
      <trkpt lat="45.94408" lon="11.72672">
        <ele>225.57</ele>
        <time>2012-07-29T14:10:13Z</time>
      </trkpt>
      <trkpt lat="45.94247" lon="11.72608">
        <ele>225.57</ele>
        <time>2012-07-29T14:10:22Z</time>
      </trkpt>
      <trkpt lat="45.94032" lon="11.72531">
        <ele>224.12</ele>
        <time>2012-07-29T14:10:34Z</time>
      </trkpt>
      <trkpt lat="45.93942" lon="11.72525">
        <ele>224.12</ele>
        <time>2012-07-29T14:10:39Z</time>
      </trkpt>
      <trkpt lat="45.93729" lon="11.72506">
        <ele>221.72</ele>
        <time>2012-07-29T14:10:51Z</time>
      </trkpt>
      <trkpt lat="45.9337" lon="11.7261">
        <ele>221.72</ele>
        <time>2012-07-29T14:11:11Z</time>
      </trkpt>
      <trkpt lat="45.932" lon="11.72731">
        <ele>223.16</ele>
        <time>2012-07-29T14:11:21Z</time>
      </trkpt>
      <trkpt lat="45.93037" lon="11.72794">
        <ele>222.2</ele>
        <time>2012-07-29T14:11:30Z</time>
      </trkpt>
      <trkpt lat="45.92815" lon="11.72845">
        <ele>221.24</ele>
        <time>2012-07-29T14:11:41Z</time>
      </trkpt>
      <trkpt lat="45.92695" lon="11.72825">
        <ele>222.68</ele>
        <time>2012-07-29T14:11:47Z</time>
      </trkpt>
      <trkpt lat="45.92432" lon="11.72795">
        <ele>218.36</ele>
        <time>2012-07-29T14:12:00Z</time>
      </trkpt>
      <trkpt lat="45.92175" lon="11.72837">
        <ele>215.47</ele>
        <time>2012-07-29T14:12:12Z</time>
      </trkpt>
      <trkpt lat="45.91955" lon="11.72832">
        <ele>213.55</ele>
        <time>2012-07-29T14:12:23Z</time>
      </trkpt>
      <trkpt lat="45.91859" lon="11.72808">
        <ele>213.07</ele>
        <time>2012-07-29T14:12:28Z</time>
      </trkpt>
      <trkpt lat="45.91726" lon="11.72734">
        <ele>211.63</ele>
        <time>2012-07-29T14:12:36Z</time>
      </trkpt>
      <trkpt lat="45.91657" lon="11.72695">
        <ele>205.38</ele>
        <time>2012-07-29T14:12:43Z</time>
      </trkpt>
      <trkpt lat="45.91643" lon="11.72632">
        <ele>202.98</ele>
        <time>2012-07-29T14:13:04Z</time>
      </trkpt>
      <trkpt lat="45.91626" lon="11.72615">
        <ele>203.94</ele>
        <time>2012-07-29T14:13:07Z</time>
      </trkpt>
      <trkpt lat="45.91618" lon="11.72612">
        <ele>203.46</ele>
        <time>2012-07-29T14:13:08Z</time>
      </trkpt>
      <trkpt lat="45.91605" lon="11.72617">
        <ele>202.98</ele>
        <time>2012-07-29T14:13:10Z</time>
      </trkpt>
      <trkpt lat="45.91596" lon="11.72648">
        <ele>203.46</ele>
        <time>2012-07-29T14:13:13Z</time>
      </trkpt>
      <trkpt lat="45.91579" lon="11.72733">
        <ele>202.49</ele>
        <time>2012-07-29T14:13:23Z</time>
      </trkpt>
      <trkpt lat="45.91681" lon="11.72774">
        <ele>210.19</ele>
        <time>2012-07-29T14:13:33Z</time>
      </trkpt>
      <trkpt lat="45.91833" lon="11.72817">
        <ele>214.99</ele>
        <time>2012-07-29T14:13:42Z</time>
      </trkpt>
      <trkpt lat="45.92056" lon="11.72856">
        <ele>216.43</ele>
        <time>2012-07-29T14:13:52Z</time>
      </trkpt>
      <trkpt lat="45.92569" lon="11.72807">
        <ele>217.4</ele>
        <time>2012-07-29T14:14:14Z</time>
      </trkpt>
      <trkpt lat="45.92781" lon="11.72855">
        <ele>223.16</ele>
        <time>2012-07-29T14:14:23Z</time>
      </trkpt>
      <trkpt lat="45.9304" lon="11.72807">
        <ele>226.05</ele>
        <time>2012-07-29T14:14:34Z</time>
      </trkpt>
      <trkpt lat="45.93247" lon="11.72715">
        <ele>225.57</ele>
        <time>2012-07-29T14:14:43Z</time>
      </trkpt>
      <trkpt lat="45.93397" lon="11.72609">
        <ele>223.64</ele>
        <time>2012-07-29T14:14:50Z</time>
      </trkpt>
      <trkpt lat="45.93537" lon="11.72561">
        <ele>222.68</ele>
        <time>2012-07-29T14:14:56Z</time>
      </trkpt>
      <trkpt lat="45.93645" lon="11.72534">
        <ele>224.61</ele>
        <time>2012-07-29T14:15:01Z</time>
      </trkpt>
      <trkpt lat="45.9381" lon="11.72528">
        <ele>225.57</ele>
        <time>2012-07-29T14:15:08Z</time>
      </trkpt>
      <trkpt lat="45.94105" lon="11.72563">
        <ele>226.05</ele>
        <time>2012-07-29T14:15:21Z</time>
      </trkpt>
      <trkpt lat="45.94305" lon="11.7265">
        <ele>225.09</ele>
        <time>2012-07-29T14:15:32Z</time>
      </trkpt>
      <trkpt lat="45.94479" lon="11.72688">
        <ele>226.05</ele>
        <time>2012-07-29T14:15:41Z</time>
      </trkpt>
      <trkpt lat="45.94651" lon="11.72654">
        <ele>226.05</ele>
        <time>2012-07-29T14:15:50Z</time>
      </trkpt>
      <trkpt lat="45.94875" lon="11.72549">
        <ele>232.78</ele>
        <time>2012-07-29T14:16:03Z</time>
      </trkpt>
      <trkpt lat="45.95099" lon="11.72416">
        <ele>233.74</ele>
        <time>2012-07-29T14:16:16Z</time>
      </trkpt>
      <trkpt lat="45.9518" lon="11.72349">
        <ele>232.3</ele>
        <time>2012-07-29T14:16:21Z</time>
      </trkpt>
      <trkpt lat="45.95329" lon="11.72135">
        <ele>229.41</ele>
        <time>2012-07-29T14:16:35Z</time>
      </trkpt>
      <trkpt lat="45.9538" lon="11.72144">
        <ele>230.37</ele>
        <time>2012-07-29T14:16:43Z</time>
      </trkpt>
      <trkpt lat="45.95406" lon="11.72189">
        <ele>299.59</ele>
        <time>2012-07-29T14:19:03Z</time>
      </trkpt>
      <trkpt lat="45.97057" lon="11.7577">
        <ele>302.95</ele>
        <time>2012-07-29T14:19:23Z</time>
      </trkpt>
      <trkpt lat="45.97171" lon="11.75864">
        <ele>302.47</ele>
        <time>2012-07-29T14:19:29Z</time>
      </trkpt>
      <trkpt lat="45.97701" lon="11.75959">
        <ele>308.72</ele>
        <time>2012-07-29T14:19:54Z</time>
      </trkpt>
      <trkpt lat="45.9776" lon="11.75978">
        <ele>307.28</ele>
        <time>2012-07-29T14:19:57Z</time>
      </trkpt>
      <trkpt lat="45.97867" lon="11.76054">
        <ele>309.68</ele>
        <time>2012-07-29T14:20:03Z</time>
      </trkpt>
      <trkpt lat="45.97951" lon="11.76188">
        <ele>313.53</ele>
        <time>2012-07-29T14:20:09Z</time>
      </trkpt>
      <trkpt lat="45.97987" lon="11.76298">
        <ele>311.6</ele>
        <time>2012-07-29T14:20:13Z</time>
      </trkpt>
      <trkpt lat="45.9801" lon="11.76511">
        <ele>309.2</ele>
        <time>2012-07-29T14:20:20Z</time>
      </trkpt>
      <trkpt lat="45.98018" lon="11.7679">
        <ele>305.36</ele>
        <time>2012-07-29T14:20:29Z</time>
      </trkpt>
      <trkpt lat="45.9801" lon="11.77459">
        <ele>283.25</ele>
        <time>2012-07-29T14:20:51Z</time>
      </trkpt>
      <trkpt lat="45.98044" lon="11.77596">
        <ele>280.84</ele>
        <time>2012-07-29T14:20:56Z</time>
      </trkpt>
      <trkpt lat="45.98147" lon="11.77864">
        <ele>280.36</ele>
        <time>2012-07-29T14:21:07Z</time>
      </trkpt>
      <trkpt lat="45.98173" lon="11.77898">
        <ele>283.25</ele>
        <time>2012-07-29T14:21:15Z</time>
      </trkpt>
      <trkpt lat="45.98174" lon="11.77901">
        <ele>283.25</ele>
        <time>2012-07-29T14:21:17Z</time>
      </trkpt>
      <trkpt lat="45.983" lon="11.78352">
        <ele>280.84</ele>
        <time>2012-07-29T14:21:26Z</time>
      </trkpt>
      <trkpt lat="45.98338" lon="11.78421">
        <ele>281.32</ele>
        <time>2012-07-29T14:21:29Z</time>
      </trkpt>
      <trkpt lat="45.98406" lon="11.78498">
        <ele>281.8</ele>
        <time>2012-07-29T14:21:33Z</time>
      </trkpt>
      <trkpt lat="45.98444" lon="11.78529">
        <ele>278.92</ele>
        <time>2012-07-29T14:21:35Z</time>
      </trkpt>
      <trkpt lat="45.9876" lon="11.78731">
        <ele>283.25</ele>
        <time>2012-07-29T14:21:51Z</time>
      </trkpt>
      <trkpt lat="45.98979" lon="11.78889">
        <ele>281.8</ele>
        <time>2012-07-29T14:22:03Z</time>
      </trkpt>
      <trkpt lat="45.99186" lon="11.79144">
        <ele>286.61</ele>
        <time>2012-07-29T14:22:16Z</time>
      </trkpt>
      <trkpt lat="45.99327" lon="11.79308">
        <ele>285.17</ele>
        <time>2012-07-29T14:22:25Z</time>
      </trkpt>
      <trkpt lat="45.99535" lon="11.79714">
        <ele>288.05</ele>
        <time>2012-07-29T14:22:43Z</time>
      </trkpt>
      <trkpt lat="45.99698" lon="11.79975">
        <ele>297.67</ele>
        <time>2012-07-29T14:22:55Z</time>
      </trkpt>
      <trkpt lat="45.99863" lon="11.80237">
        <ele>296.7</ele>
        <time>2012-07-29T14:23:08Z</time>
      </trkpt>
      <trkpt lat="45.99934" lon="11.80341">
        <ele>292.38</ele>
        <time>2012-07-29T14:23:17Z</time>
      </trkpt>
      <trkpt lat="45.99933" lon="11.80346">
        <ele>294.3</ele>
        <time>2012-07-29T14:26:36Z</time>
      </trkpt>
      <trkpt lat="45.9993" lon="11.80348">
        <ele>292.38</ele>
        <time>2012-07-29T14:30:19Z</time>
      </trkpt>
      <trkpt lat="45.99932" lon="11.80342">
        <ele>300.55</ele>
        <time>2012-07-29T14:46:01Z</time>
      </trkpt>
      <trkpt lat="45.99934" lon="11.80342">
        <ele>301.51</ele>
        <time>2012-07-29T14:47:48Z</time>
      </trkpt>
      <trkpt lat="45.99931" lon="11.80348">
        <ele>298.63</ele>
        <time>2012-07-29T14:53:22Z</time>
      </trkpt>
      <trkpt lat="45.99929" lon="11.80345">
        <ele>296.22</ele>
        <time>2012-07-29T14:56:46Z</time>
      </trkpt>
      <trkpt lat="45.99933" lon="11.80349">
        <ele>296.22</ele>
        <time>2012-07-29T15:09:34Z</time>
      </trkpt>
      <trkpt lat="45.99935" lon="11.80349">
        <ele>293.82</ele>
        <time>2012-07-29T15:12:41Z</time>
      </trkpt>
      <trkpt lat="45.99932" lon="11.80347">
        <ele>292.38</ele>
        <time>2012-07-29T15:13:55Z</time>
      </trkpt>
      <trkpt lat="45.99936" lon="11.80349">
        <ele>291.42</ele>
        <time>2012-07-29T15:16:51Z</time>
      </trkpt>
      <trkpt lat="45.99931" lon="11.80355">
        <ele>294.3</ele>
        <time>2012-07-29T15:31:25Z</time>
      </trkpt>
      <trkpt lat="45.99935" lon="11.8035">
        <ele>297.67</ele>
        <time>2012-07-29T15:32:10Z</time>
      </trkpt>
      <trkpt lat="45.9993" lon="11.80345">
        <ele>297.18</ele>
        <time>2012-07-29T15:35:19Z</time>
      </trkpt>
      <trkpt lat="45.99948" lon="11.80363">
        <ele>297.18</ele>
        <time>2012-07-29T15:39:46Z</time>
      </trkpt>
      <trkpt lat="45.99984" lon="11.80408">
        <ele>300.07</ele>
        <time>2012-07-29T15:39:50Z</time>
      </trkpt>
      <trkpt lat="46.00099" lon="11.80594">
        <ele>301.99</ele>
        <time>2012-07-29T15:40:01Z</time>
      </trkpt>
      <trkpt lat="46.00138" lon="11.8071">
        <ele>303.91</ele>
        <time>2012-07-29T15:40:06Z</time>
      </trkpt>
      <trkpt lat="46.00164" lon="11.80914">
        <ele>306.8</ele>
        <time>2012-07-29T15:40:14Z</time>
      </trkpt>
      <trkpt lat="46.00172" lon="11.81013">
        <ele>303.43</ele>
        <time>2012-07-29T15:40:18Z</time>
      </trkpt>
      <trkpt lat="46.00191" lon="11.81368">
        <ele>303.43</ele>
        <time>2012-07-29T15:40:33Z</time>
      </trkpt>
      <trkpt lat="46.00207" lon="11.82374">
        <ele>314.49</ele>
        <time>2012-07-29T15:41:15Z</time>
      </trkpt>
      <trkpt lat="46.00217" lon="11.82657">
        <ele>312.57</ele>
        <time>2012-07-29T15:41:40Z</time>
      </trkpt>
      <trkpt lat="46.00239" lon="11.82623">
        <ele>311.12</ele>
        <time>2012-07-29T15:42:01Z</time>
      </trkpt>
      <trkpt lat="46.00224" lon="11.82626">
        <ele>313.53</ele>
        <time>2012-07-29T16:03:52Z</time>
      </trkpt>
      <trkpt lat="46.00218" lon="11.82672">
        <ele>313.05</ele>
        <time>2012-07-29T16:04:59Z</time>
      </trkpt>
      <trkpt lat="46.00214" lon="11.82874">
        <ele>319.3</ele>
        <time>2012-07-29T16:05:45Z</time>
      </trkpt>
      <trkpt lat="46.0022" lon="11.83575">
        <ele>319.3</ele>
        <time>2012-07-29T16:06:19Z</time>
      </trkpt>
      <trkpt lat="46.00169" lon="11.83842">
        <ele>329.39</ele>
        <time>2012-07-29T16:06:33Z</time>
      </trkpt>
      <trkpt lat="46.00145" lon="11.83927">
        <ele>331.31</ele>
        <time>2012-07-29T16:06:36Z</time>
      </trkpt>
      <trkpt lat="46.00096" lon="11.84193">
        <ele>332.27</ele>
        <time>2012-07-29T16:06:45Z</time>
      </trkpt>
      <trkpt lat="46.00096" lon="11.84456">
        <ele>333.23</ele>
        <time>2012-07-29T16:06:53Z</time>
      </trkpt>
      <trkpt lat="46.00126" lon="11.84654">
        <ele>329.87</ele>
        <time>2012-07-29T16:06:59Z</time>
      </trkpt>
      <trkpt lat="46.00414" lon="11.85869">
        <ele>308.72</ele>
        <time>2012-07-29T16:07:35Z</time>
      </trkpt>
      <trkpt lat="46.00649" lon="11.8697">
        <ele>297.67</ele>
        <time>2012-07-29T16:08:17Z</time>
      </trkpt>
      <trkpt lat="46.00707" lon="11.87204">
        <ele>293.34</ele>
        <time>2012-07-29T16:08:26Z</time>
      </trkpt>
      <trkpt lat="46.0073" lon="11.87443">
        <ele>289.49</ele>
        <time>2012-07-29T16:08:35Z</time>
      </trkpt>
      <trkpt lat="46.00732" lon="11.87683">
        <ele>286.13</ele>
        <time>2012-07-29T16:08:43Z</time>
      </trkpt>
      <trkpt lat="46.00759" lon="11.87825">
        <ele>283.25</ele>
        <time>2012-07-29T16:08:48Z</time>
      </trkpt>
      <trkpt lat="46.0091" lon="11.88337">
        <ele>275.07</ele>
        <time>2012-07-29T16:09:08Z</time>
      </trkpt>
      <trkpt lat="46.01171" lon="11.89409">
        <ele>269.31</ele>
        <time>2012-07-29T16:09:56Z</time>
      </trkpt>
      <trkpt lat="46.01182" lon="11.89577">
        <ele>272.67</ele>
        <time>2012-07-29T16:10:03Z</time>
      </trkpt>
      <trkpt lat="46.01158" lon="11.89726">
        <ele>275.07</ele>
        <time>2012-07-29T16:10:09Z</time>
      </trkpt>
      <trkpt lat="46.01085" lon="11.89877">
        <ele>276.52</ele>
        <time>2012-07-29T16:10:16Z</time>
      </trkpt>
      <trkpt lat="46.00968" lon="11.90001">
        <ele>279.88</ele>
        <time>2012-07-29T16:10:24Z</time>
      </trkpt>
      <trkpt lat="46.00848" lon="11.90153">
        <ele>282.28</ele>
        <time>2012-07-29T16:10:34Z</time>
      </trkpt>
      <trkpt lat="46.0079" lon="11.90321">
        <ele>286.13</ele>
        <time>2012-07-29T16:10:43Z</time>
      </trkpt>
      <trkpt lat="46.00789" lon="11.90361">
        <ele>290.46</ele>
        <time>2012-07-29T16:10:50Z</time>
      </trkpt>
      <trkpt lat="46.00733" lon="11.90506">
        <ele>290.94</ele>
        <time>2012-07-29T16:10:52Z</time>
      </trkpt>
      <trkpt lat="46.00791" lon="11.90661">
        <ele>294.78</ele>
        <time>2012-07-29T16:10:59Z</time>
      </trkpt>
      <trkpt lat="46.00836" lon="11.90903">
        <ele>298.15</ele>
        <time>2012-07-29T16:11:09Z</time>
      </trkpt>
      <trkpt lat="46.00912" lon="11.91131">
        <ele>294.78</ele>
        <time>2012-07-29T16:11:23Z</time>
      </trkpt>
      <trkpt lat="46.00913" lon="11.91135">
        <ele>284.21</ele>
        <time>2012-07-29T16:11:32Z</time>
      </trkpt>
      <trkpt lat="46.01162" lon="11.91558">
        <ele>278.92</ele>
        <time>2012-07-29T16:11:42Z</time>
      </trkpt>
      <trkpt lat="46.01205" lon="11.91739">
        <ele>272.67</ele>
        <time>2012-07-29T16:11:50Z</time>
      </trkpt>
      <trkpt lat="46.01206" lon="11.91878">
        <ele>268.83</ele>
        <time>2012-07-29T16:11:56Z</time>
      </trkpt>
      <trkpt lat="46.012" lon="11.92003">
        <ele>265.46</ele>
        <time>2012-07-29T16:12:01Z</time>
      </trkpt>
      <trkpt lat="46.01171" lon="11.92148">
        <ele>262.1</ele>
        <time>2012-07-29T16:12:07Z</time>
      </trkpt>
      <trkpt lat="46.00962" lon="11.92736">
        <ele>244.31</ele>
        <time>2012-07-29T16:12:32Z</time>
      </trkpt>
      <trkpt lat="46.00899" lon="11.92915">
        <ele>237.1</ele>
        <time>2012-07-29T16:12:56Z</time>
      </trkpt>
      <trkpt lat="46.00836" lon="11.92982">
        <ele>239.51</ele>
        <time>2012-07-29T16:13:05Z</time>
      </trkpt>
      <trkpt lat="46.00794" lon="11.93059">
        <ele>240.47</ele>
        <time>2012-07-29T16:13:10Z</time>
      </trkpt>
      <trkpt lat="46.00696" lon="11.9324">
        <ele>239.51</ele>
        <time>2012-07-29T16:13:19Z</time>
      </trkpt>
      <trkpt lat="46.00457" lon="11.93693">
        <ele>230.37</ele>
        <time>2012-07-29T16:13:46Z</time>
      </trkpt>
      <trkpt lat="46.00032" lon="11.9395">
        <ele>229.41</ele>
        <time>2012-07-29T16:14:23Z</time>
      </trkpt>
      <trkpt lat="45.99984" lon="11.94016">
        <ele>228.93</ele>
        <time>2012-07-29T16:14:29Z</time>
      </trkpt>
      <trkpt lat="45.99968" lon="11.94143">
        <ele>230.85</ele>
        <time>2012-07-29T16:14:38Z</time>
      </trkpt>
      <trkpt lat="45.99972" lon="11.94169">
        <ele>228.93</ele>
        <time>2012-07-29T16:14:40Z</time>
      </trkpt>
      <trkpt lat="46.00046" lon="11.94315">
        <ele>228.45</ele>
        <time>2012-07-29T16:14:58Z</time>
      </trkpt>
      <trkpt lat="46.00089" lon="11.94387">
        <ele>221.24</ele>
        <time>2012-07-29T16:15:06Z</time>
      </trkpt>
      <trkpt lat="46.00105" lon="11.94446">
        <ele>221.24</ele>
        <time>2012-07-29T16:15:15Z</time>
      </trkpt>
      <trkpt lat="46.00101" lon="11.94479">
        <ele>232.78</ele>
        <time>2012-07-29T16:28:42Z</time>
      </trkpt>
      <trkpt lat="46.001" lon="11.94558">
        <ele>235.66</ele>
        <time>2012-07-29T16:29:02Z</time>
      </trkpt>
      <trkpt lat="46.00076" lon="11.94659">
        <ele>238.06</ele>
        <time>2012-07-29T16:29:08Z</time>
      </trkpt>
      <trkpt lat="46.00014" lon="11.94788">
        <ele>237.58</ele>
        <time>2012-07-29T16:29:18Z</time>
      </trkpt>
      <trkpt lat="45.99955" lon="11.94827">
        <ele>238.06</ele>
        <time>2012-07-29T16:29:26Z</time>
      </trkpt>
      <trkpt lat="45.99832" lon="11.94839">
        <ele>243.35</ele>
        <time>2012-07-29T16:30:04Z</time>
      </trkpt>
      <trkpt lat="45.99739" lon="11.94848">
        <ele>239.51</ele>
        <time>2012-07-29T16:30:10Z</time>
      </trkpt>
      <trkpt lat="45.99704" lon="11.94851">
        <ele>235.18</ele>
        <time>2012-07-29T16:30:13Z</time>
      </trkpt>
      <trkpt lat="45.99683" lon="11.94851">
        <ele>232.78</ele>
        <time>2012-07-29T16:30:17Z</time>
      </trkpt>
      <trkpt lat="45.99576" lon="11.94883">
        <ele>229.89</ele>
        <time>2012-07-29T16:30:36Z</time>
      </trkpt>
      <trkpt lat="45.99448" lon="11.94971">
        <ele>230.85</ele>
        <time>2012-07-29T16:30:55Z</time>
      </trkpt>
      <trkpt lat="45.99207" lon="11.9523">
        <ele>230.37</ele>
        <time>2012-07-29T16:31:26Z</time>
      </trkpt>
      <trkpt lat="45.99068" lon="11.9531">
        <ele>229.89</ele>
        <time>2012-07-29T16:31:36Z</time>
      </trkpt>
      <trkpt lat="45.98922" lon="11.95365">
        <ele>224.12</ele>
        <time>2012-07-29T16:31:48Z</time>
      </trkpt>
      <trkpt lat="45.98867" lon="11.9539">
        <ele>221.72</ele>
        <time>2012-07-29T16:32:02Z</time>
      </trkpt>
      <trkpt lat="45.98732" lon="11.95382">
        <ele>222.68</ele>
        <time>2012-07-29T16:32:29Z</time>
      </trkpt>
      <trkpt lat="45.98674" lon="11.95347">
        <ele>220.76</ele>
        <time>2012-07-29T16:32:34Z</time>
      </trkpt>
      <trkpt lat="45.98565" lon="11.95345">
        <ele>220.76</ele>
        <time>2012-07-29T16:32:44Z</time>
      </trkpt>
      <trkpt lat="45.98484" lon="11.9532">
        <ele>219.8</ele>
        <time>2012-07-29T16:32:52Z</time>
      </trkpt>
      <trkpt lat="45.98316" lon="11.9512">
        <ele>217.88</ele>
        <time>2012-07-29T16:33:17Z</time>
      </trkpt>
      <trkpt lat="45.98236" lon="11.94965">
        <ele>220.28</ele>
        <time>2012-07-29T16:33:31Z</time>
      </trkpt>
      <trkpt lat="45.98207" lon="11.94882">
        <ele>221.24</ele>
        <time>2012-07-29T16:33:35Z</time>
      </trkpt>
      <trkpt lat="45.98146" lon="11.94706">
        <ele>219.8</ele>
        <time>2012-07-29T16:33:43Z</time>
      </trkpt>
      <trkpt lat="45.98103" lon="11.94612">
        <ele>216.43</ele>
        <time>2012-07-29T16:33:49Z</time>
      </trkpt>
      <trkpt lat="45.97975" lon="11.9442">
        <ele>221.24</ele>
        <time>2012-07-29T16:34:09Z</time>
      </trkpt>
      <trkpt lat="45.97611" lon="11.93889">
        <ele>222.2</ele>
        <time>2012-07-29T16:34:52Z</time>
      </trkpt>
      <trkpt lat="45.97546" lon="11.938">
        <ele>222.2</ele>
        <time>2012-07-29T16:34:59Z</time>
      </trkpt>
      <trkpt lat="45.97439" lon="11.93739">
        <ele>223.16</ele>
        <time>2012-07-29T16:35:16Z</time>
      </trkpt>
      <trkpt lat="45.9731" lon="11.93673">
        <ele>221.72</ele>
        <time>2012-07-29T16:35:36Z</time>
      </trkpt>
      <trkpt lat="45.97223" lon="11.93548">
        <ele>224.12</ele>
        <time>2012-07-29T16:35:51Z</time>
      </trkpt>
      <trkpt lat="45.97173" lon="11.93473">
        <ele>219.8</ele>
        <time>2012-07-29T16:35:57Z</time>
      </trkpt>
      <trkpt lat="45.97094" lon="11.93382">
        <ele>216.91</ele>
        <time>2012-07-29T16:36:05Z</time>
      </trkpt>
      <trkpt lat="45.97056" lon="11.93352">
        <ele>216.43</ele>
        <time>2012-07-29T16:36:08Z</time>
      </trkpt>
      <trkpt lat="45.96744" lon="11.93313">
        <ele>216.43</ele>
        <time>2012-07-29T16:36:31Z</time>
      </trkpt>
      <trkpt lat="45.96504" lon="11.93189">
        <ele>212.59</ele>
        <time>2012-07-29T16:36:49Z</time>
      </trkpt>
      <trkpt lat="45.96256" lon="11.93301">
        <ele>216.43</ele>
        <time>2012-07-29T16:37:07Z</time>
      </trkpt>
      <trkpt lat="45.96084" lon="11.93354">
        <ele>219.32</ele>
        <time>2012-07-29T16:37:20Z</time>
      </trkpt>
      <trkpt lat="45.95911" lon="11.93394">
        <ele>219.32</ele>
        <time>2012-07-29T16:37:33Z</time>
      </trkpt>
      <trkpt lat="45.95795" lon="11.93365">
        <ele>219.8</ele>
        <time>2012-07-29T16:37:41Z</time>
      </trkpt>
      <trkpt lat="45.95685" lon="11.93277">
        <ele>220.76</ele>
        <time>2012-07-29T16:37:50Z</time>
      </trkpt>
      <trkpt lat="45.95578" lon="11.93101">
        <ele>222.2</ele>
        <time>2012-07-29T16:38:02Z</time>
      </trkpt>
      <trkpt lat="45.95541" lon="11.93013">
        <ele>223.16</ele>
        <time>2012-07-29T16:38:07Z</time>
      </trkpt>
      <trkpt lat="45.95492" lon="11.92943">
        <ele>223.64</ele>
        <time>2012-07-29T16:38:12Z</time>
      </trkpt>
      <trkpt lat="45.95363" lon="11.9285">
        <ele>223.16</ele>
        <time>2012-07-29T16:38:23Z</time>
      </trkpt>
      <trkpt lat="45.95019" lon="11.92553">
        <ele>224.61</ele>
        <time>2012-07-29T16:38:47Z</time>
      </trkpt>
      <trkpt lat="45.9492" lon="11.92432">
        <ele>225.09</ele>
        <time>2012-07-29T16:38:55Z</time>
      </trkpt>
      <trkpt lat="45.9486" lon="11.9236">
        <ele>224.12</ele>
        <time>2012-07-29T16:39:00Z</time>
      </trkpt>
      <trkpt lat="45.94758" lon="11.92285">
        <ele>226.05</ele>
        <time>2012-07-29T16:39:08Z</time>
      </trkpt>
      <trkpt lat="45.94655" lon="11.92246">
        <ele>226.05</ele>
        <time>2012-07-29T16:39:17Z</time>
      </trkpt>
      <trkpt lat="45.94543" lon="11.92233">
        <ele>227.49</ele>
        <time>2012-07-29T16:39:26Z</time>
      </trkpt>
      <trkpt lat="45.9453" lon="11.92229">
        <ele>227.49</ele>
        <time>2012-07-29T16:39:27Z</time>
      </trkpt>
      <trkpt lat="45.9428" lon="11.92136">
        <ele>219.8</ele>
        <time>2012-07-29T16:39:46Z</time>
      </trkpt>
      <trkpt lat="45.94084" lon="11.91999">
        <ele>210.19</ele>
        <time>2012-07-29T16:40:01Z</time>
      </trkpt>
      <trkpt lat="45.93972" lon="11.91969">
        <ele>207.78</ele>
        <time>2012-07-29T16:40:09Z</time>
      </trkpt>
      <trkpt lat="45.9387" lon="11.91977">
        <ele>209.22</ele>
        <time>2012-07-29T16:40:16Z</time>
      </trkpt>
      <trkpt lat="45.93749" lon="11.92021">
        <ele>211.15</ele>
        <time>2012-07-29T16:40:25Z</time>
      </trkpt>
      <trkpt lat="45.93624" lon="11.92116">
        <ele>210.19</ele>
        <time>2012-07-29T16:40:35Z</time>
      </trkpt>
      <trkpt lat="45.93373" lon="11.92569">
        <ele>225.09</ele>
        <time>2012-07-29T16:41:00Z</time>
      </trkpt>
      <trkpt lat="45.93287" lon="11.92729">
        <ele>227.97</ele>
        <time>2012-07-29T16:41:08Z</time>
      </trkpt>
      <trkpt lat="45.93217" lon="11.92967">
        <ele>235.66</ele>
        <time>2012-07-29T16:41:19Z</time>
      </trkpt>
      <trkpt lat="45.93125" lon="11.93327">
        <ele>236.14</ele>
        <time>2012-07-29T16:41:33Z</time>
      </trkpt>
      <trkpt lat="45.93092" lon="11.93414">
        <ele>234.7</ele>
        <time>2012-07-29T16:41:37Z</time>
      </trkpt>
      <trkpt lat="45.93009" lon="11.9355">
        <ele>236.62</ele>
        <time>2012-07-29T16:41:45Z</time>
      </trkpt>
      <trkpt lat="45.92817" lon="11.93716">
        <ele>232.78</ele>
        <time>2012-07-29T16:42:02Z</time>
      </trkpt>
      <trkpt lat="45.92776" lon="11.93783">
        <ele>231.33</ele>
        <time>2012-07-29T16:42:09Z</time>
      </trkpt>
      <trkpt lat="45.92704" lon="11.93973">
        <ele>234.7</ele>
        <time>2012-07-29T16:42:21Z</time>
      </trkpt>
      <trkpt lat="45.92637" lon="11.94137">
        <ele>235.66</ele>
        <time>2012-07-29T16:42:35Z</time>
      </trkpt>
      <trkpt lat="45.92596" lon="11.94203">
        <ele>236.62</ele>
        <time>2012-07-29T16:42:43Z</time>
      </trkpt>
      <trkpt lat="45.9255" lon="11.9426">
        <ele>239.02</ele>
        <time>2012-07-29T16:43:05Z</time>
      </trkpt>
      <trkpt lat="45.92363" lon="11.94464">
        <ele>240.95</ele>
        <time>2012-07-29T16:43:25Z</time>
      </trkpt>
      <trkpt lat="45.92297" lon="11.94527">
        <ele>241.43</ele>
        <time>2012-07-29T16:43:33Z</time>
      </trkpt>
      <trkpt lat="45.92178" lon="11.94547">
        <ele>240.47</ele>
        <time>2012-07-29T16:43:43Z</time>
      </trkpt>
      <trkpt lat="45.92086" lon="11.94493">
        <ele>240.95</ele>
        <time>2012-07-29T16:43:51Z</time>
      </trkpt>
      <trkpt lat="45.91874" lon="11.94273">
        <ele>238.54</ele>
        <time>2012-07-29T16:44:12Z</time>
      </trkpt>
      <trkpt lat="45.91768" lon="11.94201">
        <ele>235.18</ele>
        <time>2012-07-29T16:44:21Z</time>
      </trkpt>
      <trkpt lat="45.91469" lon="11.94155">
        <ele>224.61</ele>
        <time>2012-07-29T16:45:24Z</time>
      </trkpt>
      <trkpt lat="45.91304" lon="11.94127">
        <ele>216.43</ele>
        <time>2012-07-29T16:45:45Z</time>
      </trkpt>
      <trkpt lat="45.91041" lon="11.94172">
        <ele>208.26</ele>
        <time>2012-07-29T16:46:18Z</time>
      </trkpt>
      <trkpt lat="45.90797" lon="11.94242">
        <ele>196.73</ele>
        <time>2012-07-29T16:47:12Z</time>
      </trkpt>
      <trkpt lat="45.90554" lon="11.94132">
        <ele>200.57</ele>
        <time>2012-07-29T16:48:03Z</time>
      </trkpt>
      <trkpt lat="45.90526" lon="11.94094">
        <ele>201.53</ele>
        <time>2012-07-29T16:48:13Z</time>
      </trkpt>
      <trkpt lat="45.90483" lon="11.94153">
        <ele>200.57</ele>
        <time>2012-07-29T16:48:27Z</time>
      </trkpt>
      <trkpt lat="45.90184" lon="11.94264">
        <ele>199.61</ele>
        <time>2012-07-29T16:59:38Z</time>
      </trkpt>
      <trkpt lat="45.90055" lon="11.94292">
        <ele>198.17</ele>
        <time>2012-07-29T16:59:51Z</time>
      </trkpt>
      <trkpt lat="45.89421" lon="11.94239">
        <ele>195.77</ele>
        <time>2012-07-29T17:00:42Z</time>
      </trkpt>
      <trkpt lat="45.89285" lon="11.94326">
        <ele>198.65</ele>
        <time>2012-07-29T17:00:51Z</time>
      </trkpt>
      <trkpt lat="45.89003" lon="11.94416">
        <ele>193.84</ele>
        <time>2012-07-29T17:01:08Z</time>
      </trkpt>
      <trkpt lat="45.88662" lon="11.94726">
        <ele>192.88</ele>
        <time>2012-07-29T17:01:31Z</time>
      </trkpt>
      <trkpt lat="45.88637" lon="11.94764">
        <ele>193.36</ele>
        <time>2012-07-29T17:01:33Z</time>
      </trkpt>
      <trkpt lat="45.88557" lon="11.94953">
        <ele>191.92</ele>
        <time>2012-07-29T17:01:42Z</time>
      </trkpt>
      <trkpt lat="45.885" lon="11.95204">
        <ele>191.92</ele>
        <time>2012-07-29T17:01:53Z</time>
      </trkpt>
      <trkpt lat="45.88458" lon="11.95417">
        <ele>190.48</ele>
        <time>2012-07-29T17:02:03Z</time>
      </trkpt>
      <trkpt lat="45.88159" lon="11.95918">
        <ele>188.08</ele>
        <time>2012-07-29T17:02:29Z</time>
      </trkpt>
      <trkpt lat="45.88089" lon="11.96063">
        <ele>186.15</ele>
        <time>2012-07-29T17:02:37Z</time>
      </trkpt>
      <trkpt lat="45.88006" lon="11.96185">
        <ele>188.56</ele>
        <time>2012-07-29T17:02:48Z</time>
      </trkpt>
      <trkpt lat="45.87933" lon="11.96268">
        <ele>191.44</ele>
        <time>2012-07-29T17:02:55Z</time>
      </trkpt>
      <trkpt lat="45.87786" lon="11.96308">
        <ele>195.77</ele>
        <time>2012-07-29T17:03:06Z</time>
      </trkpt>
      <trkpt lat="45.87593" lon="11.96356">
        <ele>200.09</ele>
        <time>2012-07-29T17:03:20Z</time>
      </trkpt>
      <trkpt lat="45.87429" lon="11.9646">
        <ele>202.49</ele>
        <time>2012-07-29T17:03:32Z</time>
      </trkpt>
      <trkpt lat="45.8727" lon="11.96576">
        <ele>201.53</ele>
        <time>2012-07-29T17:03:43Z</time>
      </trkpt>
      <trkpt lat="45.87167" lon="11.9671">
        <ele>200.57</ele>
        <time>2012-07-29T17:03:51Z</time>
      </trkpt>
      <trkpt lat="45.87065" lon="11.96807">
        <ele>203.46</ele>
        <time>2012-07-29T17:03:58Z</time>
      </trkpt>
      <trkpt lat="45.86946" lon="11.9694">
        <ele>202.49</ele>
        <time>2012-07-29T17:04:08Z</time>
      </trkpt>
      <trkpt lat="45.8687" lon="11.97099">
        <ele>203.94</ele>
        <time>2012-07-29T17:04:18Z</time>
      </trkpt>
      <trkpt lat="45.86603" lon="11.97792">
        <ele>198.17</ele>
        <time>2012-07-29T17:04:51Z</time>
      </trkpt>
      <trkpt lat="45.86553" lon="11.97954">
        <ele>195.28</ele>
        <time>2012-07-29T17:04:59Z</time>
      </trkpt>
      <trkpt lat="45.8649" lon="11.98562">
        <ele>190.48</ele>
        <time>2012-07-29T17:05:24Z</time>
      </trkpt>
      <trkpt lat="45.86449" lon="11.98862">
        <ele>188.56</ele>
        <time>2012-07-29T17:05:35Z</time>
      </trkpt>
      <trkpt lat="45.86416" lon="11.98973">
        <ele>187.11</ele>
        <time>2012-07-29T17:05:39Z</time>
      </trkpt>
      <trkpt lat="45.86334" lon="11.99122">
        <ele>183.75</ele>
        <time>2012-07-29T17:05:45Z</time>
      </trkpt>
      <trkpt lat="45.86084" lon="11.99431">
        <ele>180.87</ele>
        <time>2012-07-29T17:06:00Z</time>
      </trkpt>
      <trkpt lat="45.8584" lon="11.99893">
        <ele>178.94</ele>
        <time>2012-07-29T17:06:19Z</time>
      </trkpt>
      <trkpt lat="45.85585" lon="12.00173">
        <ele>181.83</ele>
        <time>2012-07-29T17:06:34Z</time>
      </trkpt>
      <trkpt lat="45.85364" lon="12.00389">
        <ele>177.98</ele>
        <time>2012-07-29T17:06:47Z</time>
      </trkpt>
      <trkpt lat="45.85198" lon="12.0066">
        <ele>172.21</ele>
        <time>2012-07-29T17:07:00Z</time>
      </trkpt>
      <trkpt lat="45.84999" lon="12.00912">
        <ele>174.14</ele>
        <time>2012-07-29T17:07:18Z</time>
      </trkpt>
      <trkpt lat="45.84859" lon="12.01066">
        <ele>177.02</ele>
        <time>2012-07-29T17:07:29Z</time>
      </trkpt>
      <trkpt lat="45.84725" lon="12.01163">
        <ele>175.58</ele>
        <time>2012-07-29T17:07:39Z</time>
      </trkpt>
      <trkpt lat="45.84328" lon="12.01332">
        <ele>177.5</ele>
        <time>2012-07-29T17:08:07Z</time>
      </trkpt>
      <trkpt lat="45.8408" lon="12.01478">
        <ele>182.31</ele>
        <time>2012-07-29T17:08:22Z</time>
      </trkpt>
      <trkpt lat="45.83536" lon="12.01836">
        <ele>174.62</ele>
        <time>2012-07-29T17:08:54Z</time>
      </trkpt>
      <trkpt lat="45.83389" lon="12.01899">
        <ele>175.1</ele>
        <time>2012-07-29T17:09:08Z</time>
      </trkpt>
      <trkpt lat="45.83333" lon="12.01922">
        <ele>172.69</ele>
        <time>2012-07-29T17:09:15Z</time>
      </trkpt>
      <trkpt lat="45.83246" lon="12.01954">
        <ele>169.81</ele>
        <time>2012-07-29T17:09:49Z</time>
      </trkpt>
      <trkpt lat="45.83113" lon="12.01963">
        <ele>166.93</ele>
        <time>2012-07-29T17:10:13Z</time>
      </trkpt>
      <trkpt lat="45.82987" lon="12.01923">
        <ele>169.33</ele>
        <time>2012-07-29T17:10:24Z</time>
      </trkpt>
      <trkpt lat="45.82666" lon="12.01682">
        <ele>175.58</ele>
        <time>2012-07-29T17:10:52Z</time>
      </trkpt>
      <trkpt lat="45.82515" lon="12.01556">
        <ele>172.69</ele>
        <time>2012-07-29T17:11:05Z</time>
      </trkpt>
      <trkpt lat="45.8241" lon="12.01441">
        <ele>171.73</ele>
        <time>2012-07-29T17:11:12Z</time>
      </trkpt>
      <trkpt lat="45.82271" lon="12.01303">
        <ele>166.93</ele>
        <time>2012-07-29T17:11:20Z</time>
      </trkpt>
      <trkpt lat="45.82093" lon="12.01227">
        <ele>162.12</ele>
        <time>2012-07-29T17:11:33Z</time>
      </trkpt>
      <trkpt lat="45.82002" lon="12.0122">
        <ele>162.6</ele>
        <time>2012-07-29T17:11:41Z</time>
      </trkpt>
      <trkpt lat="45.81884" lon="12.01244">
        <ele>164.52</ele>
        <time>2012-07-29T17:11:49Z</time>
      </trkpt>
      <trkpt lat="45.81804" lon="12.0128">
        <ele>161.16</ele>
        <time>2012-07-29T17:11:54Z</time>
      </trkpt>
      <trkpt lat="45.8149" lon="12.01512">
        <ele>159.24</ele>
        <time>2012-07-29T17:12:25Z</time>
      </trkpt>
      <trkpt lat="45.81423" lon="12.01551">
        <ele>156.83</ele>
        <time>2012-07-29T17:12:33Z</time>
      </trkpt>
      <trkpt lat="45.8137" lon="12.01553">
        <ele>157.31</ele>
        <time>2012-07-29T17:12:40Z</time>
      </trkpt>
      <trkpt lat="45.81341" lon="12.01612">
        <ele>157.31</ele>
        <time>2012-07-29T17:12:45Z</time>
      </trkpt>
      <trkpt lat="45.81314" lon="12.01641">
        <ele>158.27</ele>
        <time>2012-07-29T17:12:48Z</time>
      </trkpt>
      <trkpt lat="45.80968" lon="12.01918">
        <ele>158.75</ele>
        <time>2012-07-29T17:13:15Z</time>
      </trkpt>
      <trkpt lat="45.80653" lon="12.02413">
        <ele>158.27</ele>
        <time>2012-07-29T17:13:42Z</time>
      </trkpt>
      <trkpt lat="45.80003" lon="12.03444">
        <ele>153.95</ele>
        <time>2012-07-29T17:14:34Z</time>
      </trkpt>
      <trkpt lat="45.7986" lon="12.03619">
        <ele>152.51</ele>
        <time>2012-07-29T17:14:46Z</time>
      </trkpt>
      <trkpt lat="45.79623" lon="12.03863">
        <ele>152.03</ele>
        <time>2012-07-29T17:15:04Z</time>
      </trkpt>
      <trkpt lat="45.7951" lon="12.03971">
        <ele>149.14</ele>
        <time>2012-07-29T17:15:13Z</time>
      </trkpt>
      <trkpt lat="45.79174" lon="12.04238">
        <ele>148.18</ele>
        <time>2012-07-29T17:16:00Z</time>
      </trkpt>
      <trkpt lat="45.79119" lon="12.04288">
        <ele>145.3</ele>
        <time>2012-07-29T17:16:07Z</time>
      </trkpt>
      <trkpt lat="45.78469" lon="12.05002">
        <ele>146.74</ele>
        <time>2012-07-29T17:17:14Z</time>
      </trkpt>
      <trkpt lat="45.78388" lon="12.0514">
        <ele>152.99</ele>
        <time>2012-07-29T17:17:21Z</time>
      </trkpt>
      <trkpt lat="45.78354" lon="12.05234">
        <ele>153.95</ele>
        <time>2012-07-29T17:17:25Z</time>
      </trkpt>
      <trkpt lat="45.78321" lon="12.05432">
        <ele>151.54</ele>
        <time>2012-07-29T17:17:33Z</time>
      </trkpt>
      <trkpt lat="45.78318" lon="12.0581">
        <ele>140.49</ele>
        <time>2012-07-29T17:17:50Z</time>
      </trkpt>
      <trkpt lat="45.78304" lon="12.05929">
        <ele>138.57</ele>
        <time>2012-07-29T17:17:57Z</time>
      </trkpt>
      <trkpt lat="45.7832" lon="12.06079">
        <ele>139.05</ele>
        <time>2012-07-29T17:18:07Z</time>
      </trkpt>
      <trkpt lat="45.78319" lon="12.06097">
        <ele>138.57</ele>
        <time>2012-07-29T17:18:08Z</time>
      </trkpt>
      <trkpt lat="45.783" lon="12.06294">
        <ele>139.53</ele>
        <time>2012-07-29T17:18:17Z</time>
      </trkpt>
      <trkpt lat="45.78242" lon="12.06483">
        <ele>139.05</ele>
        <time>2012-07-29T17:18:25Z</time>
      </trkpt>
      <trkpt lat="45.7818" lon="12.0659">
        <ele>142.89</ele>
        <time>2012-07-29T17:18:30Z</time>
      </trkpt>
      <trkpt lat="45.78068" lon="12.06704">
        <ele>144.34</ele>
        <time>2012-07-29T17:18:37Z</time>
      </trkpt>
      <trkpt lat="45.77955" lon="12.06761">
        <ele>140.49</ele>
        <time>2012-07-29T17:18:43Z</time>
      </trkpt>
      <trkpt lat="45.77799" lon="12.06796">
        <ele>137.13</ele>
        <time>2012-07-29T17:18:51Z</time>
      </trkpt>
      <trkpt lat="45.77641" lon="12.06827">
        <ele>129.92</ele>
        <time>2012-07-29T17:19:00Z</time>
      </trkpt>
      <trkpt lat="45.77497" lon="12.06892">
        <ele>127.51</ele>
        <time>2012-07-29T17:19:09Z</time>
      </trkpt>
      <trkpt lat="45.77371" lon="12.07024">
        <ele>126.55</ele>
        <time>2012-07-29T17:19:18Z</time>
      </trkpt>
      <trkpt lat="45.77261" lon="12.07196">
        <ele>130.4</ele>
        <time>2012-07-29T17:19:27Z</time>
      </trkpt>
      <trkpt lat="45.77137" lon="12.07393">
        <ele>127.03</ele>
        <time>2012-07-29T17:19:37Z</time>
      </trkpt>
      <trkpt lat="45.76957" lon="12.0775">
        <ele>118.86</ele>
        <time>2012-07-29T17:19:54Z</time>
      </trkpt>
      <trkpt lat="45.76799" lon="12.07933">
        <ele>118.38</ele>
        <time>2012-07-29T17:20:05Z</time>
      </trkpt>
      <trkpt lat="45.7666" lon="12.08063">
        <ele>115.5</ele>
        <time>2012-07-29T17:20:14Z</time>
      </trkpt>
      <trkpt lat="45.76519" lon="12.08238">
        <ele>115.01</ele>
        <time>2012-07-29T17:20:24Z</time>
      </trkpt>
      <trkpt lat="45.76201" lon="12.08835">
        <ele>112.13</ele>
        <time>2012-07-29T17:20:51Z</time>
      </trkpt>
      <trkpt lat="45.76052" lon="12.09049">
        <ele>111.65</ele>
        <time>2012-07-29T17:21:02Z</time>
      </trkpt>
      <trkpt lat="45.75726" lon="12.09458">
        <ele>104.92</ele>
        <time>2012-07-29T17:21:26Z</time>
      </trkpt>
      <trkpt lat="45.75361" lon="12.10021">
        <ele>103.48</ele>
        <time>2012-07-29T17:21:56Z</time>
      </trkpt>
      <trkpt lat="45.75139" lon="12.10321">
        <ele>100.6</ele>
        <time>2012-07-29T17:22:12Z</time>
      </trkpt>
      <trkpt lat="45.75006" lon="12.10638">
        <ele>95.31</ele>
        <time>2012-07-29T17:22:42Z</time>
      </trkpt>
      <trkpt lat="45.7494" lon="12.10764">
        <ele>92.9</ele>
        <time>2012-07-29T17:22:55Z</time>
      </trkpt>
      <trkpt lat="45.74816" lon="12.10952">
        <ele>95.79</ele>
        <time>2012-07-29T17:23:35Z</time>
      </trkpt>
      <trkpt lat="45.74296" lon="12.11763">
        <ele>94.35</ele>
        <time>2012-07-29T17:24:20Z</time>
      </trkpt>
      <trkpt lat="45.73974" lon="12.12288">
        <ele>90.5</ele>
        <time>2012-07-29T17:24:45Z</time>
      </trkpt>
      <trkpt lat="45.73641" lon="12.12694">
        <ele>89.54</ele>
        <time>2012-07-29T17:25:07Z</time>
      </trkpt>
      <trkpt lat="45.734" lon="12.13152">
        <ele>84.25</ele>
        <time>2012-07-29T17:25:27Z</time>
      </trkpt>
      <trkpt lat="45.73152" lon="12.13574">
        <ele>83.77</ele>
        <time>2012-07-29T17:25:46Z</time>
      </trkpt>
      <trkpt lat="45.73062" lon="12.13714">
        <ele>80.41</ele>
        <time>2012-07-29T17:25:53Z</time>
      </trkpt>
      <trkpt lat="45.72831" lon="12.14021">
        <ele>81.37</ele>
        <time>2012-07-29T17:26:09Z</time>
      </trkpt>
      <trkpt lat="45.72501" lon="12.14461">
        <ele>77.52</ele>
        <time>2012-07-29T17:26:31Z</time>
      </trkpt>
      <trkpt lat="45.72344" lon="12.14663">
        <ele>74.64</ele>
        <time>2012-07-29T17:26:42Z</time>
      </trkpt>
      <trkpt lat="45.72131" lon="12.14873">
        <ele>67.91</ele>
        <time>2012-07-29T17:27:01Z</time>
      </trkpt>
      <trkpt lat="45.71975" lon="12.15098">
        <ele>67.43</ele>
        <time>2012-07-29T17:27:27Z</time>
      </trkpt>
      <trkpt lat="45.71834" lon="12.15344">
        <ele>66.47</ele>
        <time>2012-07-29T17:27:47Z</time>
      </trkpt>
      <trkpt lat="45.71806" lon="12.15383">
        <ele>64.07</ele>
        <time>2012-07-29T17:27:51Z</time>
      </trkpt>
      <trkpt lat="45.71778" lon="12.15362">
        <ele>63.58</ele>
        <time>2012-07-29T17:28:03Z</time>
      </trkpt>
      <trkpt lat="45.71796" lon="12.1539">
        <ele>64.07</ele>
        <time>2012-07-29T17:28:28Z</time>
      </trkpt>
      <trkpt lat="45.71831" lon="12.15347">
        <ele>66.47</ele>
        <time>2012-07-29T17:28:33Z</time>
      </trkpt>
      <trkpt lat="45.71911" lon="12.1526">
        <ele>65.51</ele>
        <time>2012-07-29T17:28:46Z</time>
      </trkpt>
      <trkpt lat="45.71975" lon="12.15344">
        <ele>67.91</ele>
        <time>2012-07-29T17:28:56Z</time>
      </trkpt>
      <trkpt lat="45.72094" lon="12.15645">
        <ele>70.31</ele>
        <time>2012-07-29T17:29:13Z</time>
      </trkpt>
      <trkpt lat="45.72188" lon="12.16301">
        <ele>68.87</ele>
        <time>2012-07-29T17:29:41Z</time>
      </trkpt>
      <trkpt lat="45.72231" lon="12.16594">
        <ele>65.03</ele>
        <time>2012-07-29T17:29:55Z</time>
      </trkpt>
      <trkpt lat="45.72277" lon="12.16695">
        <ele>64.07</ele>
        <time>2012-07-29T17:30:03Z</time>
      </trkpt>
      <trkpt lat="45.72264" lon="12.16791">
        <ele>67.91</ele>
        <time>2012-07-29T17:30:08Z</time>
      </trkpt>
      <trkpt lat="45.72266" lon="12.16864">
        <ele>67.91</ele>
        <time>2012-07-29T17:30:11Z</time>
      </trkpt>
      <trkpt lat="45.72389" lon="12.17726">
        <ele>67.43</ele>
        <time>2012-07-29T17:30:43Z</time>
      </trkpt>
      <trkpt lat="45.72537" lon="12.18791">
        <ele>63.1</ele>
        <time>2012-07-29T17:31:24Z</time>
      </trkpt>
      <trkpt lat="45.72648" lon="12.19553">
        <ele>57.82</ele>
        <time>2012-07-29T17:31:56Z</time>
      </trkpt>
      <trkpt lat="45.72643" lon="12.19669">
        <ele>55.41</ele>
        <time>2012-07-29T17:32:03Z</time>
      </trkpt>
      <trkpt lat="45.72675" lon="12.19742">
        <ele>55.41</ele>
        <time>2012-07-29T17:32:08Z</time>
      </trkpt>
      <trkpt lat="45.72713" lon="12.2001">
        <ele>58.3</ele>
        <time>2012-07-29T17:32:20Z</time>
      </trkpt>
      <trkpt lat="45.73221" lon="12.23584">
        <ele>51.57</ele>
        <time>2012-07-29T17:34:40Z</time>
      </trkpt>
      <trkpt lat="45.73258" lon="12.23884">
        <ele>44.84</ele>
        <time>2012-07-29T17:34:54Z</time>
      </trkpt>
      <trkpt lat="45.73235" lon="12.23956">
        <ele>45.8</ele>
        <time>2012-07-29T17:34:59Z</time>
      </trkpt>
      <trkpt lat="45.73195" lon="12.23978">
        <ele>45.32</ele>
        <time>2012-07-29T17:35:03Z</time>
      </trkpt>
      <trkpt lat="45.73058" lon="12.23974">
        <ele>43.88</ele>
        <time>2012-07-29T17:35:13Z</time>
      </trkpt>
      <trkpt lat="45.72926" lon="12.23998">
        <ele>44.36</ele>
        <time>2012-07-29T17:35:22Z</time>
      </trkpt>
      <trkpt lat="45.72757" lon="12.24037">
        <ele>42.92</ele>
        <time>2012-07-29T17:35:34Z</time>
      </trkpt>
      <trkpt lat="45.72733" lon="12.24025">
        <ele>43.4</ele>
        <time>2012-07-29T17:35:36Z</time>
      </trkpt>
      <trkpt lat="45.72694" lon="12.23999">
        <ele>41.95</ele>
        <time>2012-07-29T17:35:40Z</time>
      </trkpt>
      <trkpt lat="45.72646" lon="12.24044">
        <ele>43.4</ele>
        <time>2012-07-29T17:35:45Z</time>
      </trkpt>
      <trkpt lat="45.72593" lon="12.24055">
        <ele>43.88</ele>
        <time>2012-07-29T17:35:49Z</time>
      </trkpt>
      <trkpt lat="45.72368" lon="12.24063">
        <ele>43.88</ele>
        <time>2012-07-29T17:36:03Z</time>
      </trkpt>
      <trkpt lat="45.71924" lon="12.2416">
        <ele>41.95</ele>
        <time>2012-07-29T17:36:31Z</time>
      </trkpt>
      <trkpt lat="45.71813" lon="12.24214">
        <ele>37.63</ele>
        <time>2012-07-29T17:36:43Z</time>
      </trkpt>
      <trkpt lat="45.71837" lon="12.24208">
        <ele>39.55</ele>
        <time>2012-07-29T17:37:00Z</time>
      </trkpt>
      <trkpt lat="45.71878" lon="12.24184">
        <ele>38.11</ele>
        <time>2012-07-29T17:37:06Z</time>
      </trkpt>
      <trkpt lat="45.71879" lon="12.24279">
        <ele>40.51</ele>
        <time>2012-07-29T17:37:13Z</time>
      </trkpt>
      <trkpt lat="45.71869" lon="12.24563">
        <ele>37.63</ele>
        <time>2012-07-29T17:37:29Z</time>
      </trkpt>
      <trkpt lat="45.71787" lon="12.24772">
        <ele>35.23</ele>
        <time>2012-07-29T17:37:46Z</time>
      </trkpt>
      <trkpt lat="45.71707" lon="12.24763">
        <ele>36.19</ele>
        <time>2012-07-29T17:37:55Z</time>
      </trkpt>
      <trkpt lat="45.71662" lon="12.24802">
        <ele>36.19</ele>
        <time>2012-07-29T17:38:00Z</time>
      </trkpt>
      <trkpt lat="45.71648" lon="12.24867">
        <ele>38.11</ele>
        <time>2012-07-29T17:38:04Z</time>
      </trkpt>
      <trkpt lat="45.71641" lon="12.2492">
        <ele>36.67</ele>
        <time>2012-07-29T17:38:07Z</time>
      </trkpt>
      <trkpt lat="45.71618" lon="12.25015">
        <ele>36.67</ele>
        <time>2012-07-29T17:38:14Z</time>
      </trkpt>
      <trkpt lat="45.71587" lon="12.25211">
        <ele>38.11</ele>
        <time>2012-07-29T17:38:24Z</time>
      </trkpt>
      <trkpt lat="45.71569" lon="12.25347">
        <ele>33.78</ele>
        <time>2012-07-29T17:38:34Z</time>
      </trkpt>
      <trkpt lat="45.71599" lon="12.25579">
        <ele>37.15</ele>
        <time>2012-07-29T17:38:51Z</time>
      </trkpt>
      <trkpt lat="45.71607" lon="12.25662">
        <ele>34.74</ele>
        <time>2012-07-29T17:38:57Z</time>
      </trkpt>
      <trkpt lat="45.71629" lon="12.25678">
        <ele>36.19</ele>
        <time>2012-07-29T17:39:06Z</time>
      </trkpt>
      <trkpt lat="45.7152" lon="12.25728">
        <ele>38.11</ele>
        <time>2012-07-29T17:39:16Z</time>
      </trkpt>
      <trkpt lat="45.71217" lon="12.25969">
        <ele>35.23</ele>
        <time>2012-07-29T17:39:47Z</time>
      </trkpt>
      <trkpt lat="45.70579" lon="12.25951">
        <ele>34.26</ele>
        <time>2012-07-29T17:40:35Z</time>
      </trkpt>
      <trkpt lat="45.70214" lon="12.25931">
        <ele>31.86</ele>
        <time>2012-07-29T17:41:02Z</time>
      </trkpt>
      <trkpt lat="45.70049" lon="12.25887">
        <ele>28.98</ele>
        <time>2012-07-29T17:41:37Z</time>
      </trkpt>
      <trkpt lat="45.70047" lon="12.2589">
        <ele>26.57</ele>
        <time>2012-07-29T17:53:13Z</time>
      </trkpt>
      <trkpt lat="45.70055" lon="12.25866">
        <ele>28.5</ele>
        <time>2012-07-29T18:25:51Z</time>
      </trkpt>
    </trkseg>
  </trk>
</gpx>